     2              OBSERVATION DATA    GPS                 RINEX VERSION / TYPE
teqc 2000Feb29 20021016 17:28:21UTC                         PGM / RUN BY / DATE
                                                            COMMENT
L2: 1 -> 1; 5 -> 5; 60 -> 9                                 COMMENT
L2: 1 -> 1; 5 -> 5; 60 -> 9                                 COMMENT
L2: 1 -> 1; 5 -> 5; 60 -> 9                                 COMMENT
L2: 1 -> 1; 5 -> 5; 60 -> 9                                 COMMENT
L2: 1 -> 1; 5 -> 5; 60 -> 9                                 COMMENT
Original Marker Name: 0308                                  COMMENT
Campaign Name: Yolo County Subsidence 2002                  COMMENT
4-Character Station Name: 0308                              COMMENT
6-Character Antenna Code: TRMCMP                            COMMENT
Vertical Measurement Point: BPA                             COMMENT
Vertical Offset to Rinex Ref. Point: 0.0000                 COMMENT
Radial Measurement Point: RRP                               COMMENT
Radial Offset to Rinex Ref. Point: 0.0000                   COMMENT
Antenna Height from Field Measurement: 2.0000 m             COMMENT
Additional Antenna Identification Info.:                    COMMENT
Model 22020.00+GP                                           COMMENT
Original XYZ: -2625984.6108 -4234932.7826 3967867.1312      COMMENT
New XYZ position is based on association with SCEC monument COMMENT
E1O4G9E3+0011. Position of that monument is believed to be  COMMENT
valid to within 1 m horizontally; vertical accuracy         COMMENT
should be no worse than 3-times this value.                 COMMENT
                                                            COMMENT
Revised Rinex header created by UCSD GPS archive for        COMMENT
GSAC on 27-Jun-2003 (2003:178) 16:36:57 GMT                 COMMENT
For assistance contact dagnew@ucsd.edu                      COMMENT
or anderson@python.ucsd.edu                                 COMMENT
                                                            COMMENT
HPGN CALIF STA 03-08 1991                                   MARKER NAME
0308                                                        MARKER NUMBER
-Unknown- YOLO_COUNTY                                       OBSERVER / AGENCY
14631 TRIMBLE 4000 SSI NP 7.19; SP 3.04                     REC # / TYPE / VERS
50490 TR GEOD L1/L2 GP                                      ANT # / TYPE
 -2625985.2850 -4234932.7815  3967867.9283                  APPROX POSITION XYZ
        2.0000        0.0000        0.0000                  ANTENNA: DELTA H/E/N
     1     1     0                                          WAVELENGTH FACT L1/2
     7    C1    L1    L2    P1    P2    S1    S2            # / TYPES OF OBSERV
     0                                                      INTERVAL
  2002     7    10    16    46    0.000000                  TIME OF FIRST OBS
  2002     7    10    17    31   30.000000                  TIME OF LAST OBS
                                                            END OF HEADER
 02  7 10 16 46  0.0000000  0 11G 2G 3G 6G15G17G18G21G22G23G26G29
  24610943.9224      11208.30155
         8.2504
  24221722.7034      -6347.39955
        10.0004
  22014815.0234      59044.89157
        23.5004
  20682799.8364      10852.58058
        30.7504
  20787579.7734      29727.33958
        28.2504
  20767752.7734      18082.26657
        25.7504
  22821494.0944       4015.42457
        20.5004
  23609164.1954      59977.83456
        12.7504
  22738876.7584      26121.63357
        23.7504
  22460629.8054      39699.14956
        19.7504
  23362619.3284      44350.55756
        16.7504
 02  7 10 16 46 15.0000000  0 11G 2G 3G 6G15G17G18G21G22G23G26G29
  24617428.0634      45281.75345
         8.0004
  24220172.6484     -14490.84545
        10.5004
  22030244.9064     140130.39947
        23.5004
  20689074.5164      43825.90948
        31.2504
  20795395.1644      70798.21447
        27.7504
  20772554.9614      43318.88747
        25.5004
  22822637.8594      10026.74547
        20.2504
  23620705.3284     120625.61846
        13.0004
  22753866.8524     104896.56947
        23.2504
  22471050.3674      94458.05747
        20.5004
  23374241.5554     105425.06346
        17.0004
 02  7 10 16 46 30.0010000  0 11G 2G 3G 6G15G17G18G21G22G23G26G29
  24624030.2394      79980.36645
         7.7504
  24218728.2394     -22083.06545
        10.7504
  22045790.2864     221821.16047     12760.85956                  22045794.7984
        23.5004         22.5004
  20695459.1304      77375.52848
        31.7504
  20803319.3024     112438.41747     13027.38557                  20803323.5444
        27.7504         26.5004
  20777476.3254      69180.03647      2711.54357                  20777479.0094
        25.5004         27.7504
  22823891.4504      16615.60447      2104.16856                  22823896.9584
        20.0004         18.7504
  23632364.9584     181896.78746     12771.28156                  23632371.1924
        13.0004         12.2504
  22768963.6614     184228.89247
        23.2504
  22481598.0134     149887.99347      5783.93556                  22481602.5014
        20.0004         18.5004
  23385985.3104     167139.39546     19290.24556                  23385990.2554
        17.0004         15.2504
 02  7 10 16 46 45.0010000  0 11G 2G 3G 6G15G17G18G21G22G23G26G29
  24630741.5524     115245.83945
         8.2504
  24217378.6224     -29176.51645
        10.7504
  22061438.2714     304052.35347     76837.11046                  22061442.9114
        23.5004         22.7504
  20701941.7004     111443.22148
        31.2504
  20811340.0524     154588.48848     45871.59347                  20811344.2594
        28.0004         26.5004
  20782505.2714      95608.36647     23305.03447                  20782508.1304
        25.5004         27.7504
  22825245.2944      23727.54747      7645.97946                  22825250.7554
        20.5004         18.5004
  23644130.8334     243729.13546     60952.30846                  23644137.2204
        12.5004         12.0004
  22784153.7164     264053.97047     45645.37256                  22784158.7204
        23.0004         20.7504
  22492262.7244     205927.76447     49451.26446                  22492267.2004
        21.0004         18.5004
  23397839.4504     229431.29846     67829.38546                  23397844.0324
        17.2504         15.5004
 02  7 10 16 47  0.0010000  0 11G 2G 3G 6G15G17G18G21G22G23G26G29
  24637551.6064     151033.26045
         7.7504
  24216114.9034     -35818.55945     -4465.88055                  24216121.8334
        10.7504          9.0004
  22077181.4504     386781.97347    141301.71746                  22077186.0444
        23.2504         22.5004
  20708514.8254     145984.00848     12601.75457                  20708518.6694
        32.0004         28.2504
  20819449.3174     197204.10047     79078.55447                  20819453.6064
        27.2504         26.5004
  20787633.9354     122558.22847     44304.92747                  20787636.7594
        25.5004         27.7504
  22826689.0834      31315.81547     13558.92146                  22826694.5324
        20.5004         18.5004
  23655996.0214     306079.27146    109536.79845                  23656001.8454
        13.0004         11.5004
  22799429.5054     344329.70747    108197.86346                  22799434.8024
        23.0004         20.5004
  22503033.9194     262533.70847     93559.78746                  22503038.5714
        20.5004         18.2504
  23409794.9424     292257.52046    116784.87046                  23409799.3134
        17.2504         15.2504
 02  7 10 16 47 15.0010000  0 11G 2G 3G 6G15G17G18G21G22G23G26G29
  24644455.6144     187308.51345      7570.38655                  24644463.0604
         8.0004          9.0004
  24214929.8174     -42042.94345     -9316.03345                  24214935.9464
        10.5004          8.5004
  22093012.6854     469975.76047    206128.00546                  22093017.0914
        24.2504         22.7504
  20715171.1694     180963.94648     39858.83147                  20715175.0134
        31.7504         28.5004
  20827641.1464     240251.33447    112621.84347                  20827645.2354
        27.7504         26.5004
  20792854.7634     149995.55747     65684.66747                  20792857.4704
        25.2504         27.7504
  22828217.0754      39346.42747     19816.57246                  22828222.2784
        20.2504         18.5004
  23667952.4894     368912.76746    158497.92846                  23667957.9384
        12.5004         12.2504
  22814784.6614     425021.79147    171074.78746                  22814789.7714
        22.7504         20.7504
  22513907.4034     319671.65447    138082.85446                  22513911.9744
        21.2504         18.5004
  23421844.9894     355583.91046    166130.08546                  23421849.8064
        16.7504         15.2504
 02  7 10 16 47 30.0010000  0 11G 2G 3G 6G15G17G18G21G22G23G26G29
  24651443.8804     224034.53845     36188.04545                  24651451.2904
         8.0004          8.7504
  24213818.1064     -47886.42345    -13869.38845                  24213824.7744
        10.5004          8.7504
  22108925.0994     553596.46647    271286.97646                  22108929.9274
        23.2504         22.5004
  20721903.9664     216346.04748     67429.30147                  20721907.8454
        31.2504         28.5004
  20835907.8494     283693.18848    146472.63147                  20835911.9744
        28.0004         26.7504
  20798161.9744     177883.45247     87415.49547                  20798164.7044
        26.0004         28.0004
  22829821.9974      47782.59447     26390.21946                  22829827.4814
        20.0004         18.5004
  23679994.9274     432192.46746    207806.76945                  23680001.1734
        13.0004         11.7504
  22830212.3104     506093.01747    234247.15346                  22830217.1494
        23.2504         20.7504
  22524874.0674     377304.54147    182991.59246                  22524878.4504
        20.7504         18.5004
  23433984.5054     419373.28946    215836.07846                  23433989.0054
        17.5004         15.5004
 02  7 10 16 47 45.0010000  0 11G 2G 3G 6G15G17G18G21G22G23G26G29
  24658512.5604     261179.42245     65132.10145                  24658518.4194
         8.5004          9.0004
  24212772.7004     -53380.54745    -18150.50845                  24212778.3024
        10.7504          8.7504
  22124912.8024     637612.04347    336753.61946                  22124917.5364
        23.2504         22.2504
  20728707.6774     252098.45948     95288.31647                  20728711.6494
        31.2504         28.2504
  20844243.5994     327497.79447    180606.08647                  20844247.6424
        27.7504         26.7504
  20803548.7864     206190.05447    109472.59147                  20803551.4584
        26.0004         28.0004
  22831499.0524      56592.26147     33254.92946                  22831504.8294
        20.5004         18.7504
  23692114.9504     495886.20046    257438.20746                  23692120.0014
        13.0004         12.2504
  22845705.3804     587511.22647    297689.89746                  22845710.0914
        22.7504         20.5004
  22535929.4894     435400.29947    228261.00346                  22535933.6964
        21.0004         18.2504
  23446204.2714     483593.66046    265877.91046                  23446209.3454
        16.7504         15.5004
 02  7 10 16 48  0.0010000  0 11G 2G 3G 6G15G17G18G21G22G23G26G29
  24665654.5054     298717.84545     94382.80845                  24665661.8104
         8.0004          8.7504
  24211789.0524     -58550.34245    -22178.90845                  24211794.3134
        10.7504          8.5004
  22140970.8414     721996.93347    402508.05046                  22140974.9544
        23.7504         22.5004
  20735576.6224     288195.93948    123416.21247                  20735580.6424
        31.2504         28.5004
  20852643.4424     371639.84248    215002.47547                  20852647.5324
        28.0004         26.7504
  20809009.9894     234890.03147    131836.20747                  20809012.7204
        25.2504         28.0004
  22833241.6534      65750.27447     40391.05946                  22833246.9624
        21.0004         19.0004
  23704310.3174     559968.35646    307372.30645                  23704316.0014
        13.2504         11.7504
  22861260.5214     669250.83447    361383.06846                  22861265.2434
        23.2504         20.2504
  22547067.7164     493933.54247    273871.32046                  22547071.9234
        21.0004         18.5004
  23458503.0914     548219.46646    316235.67146                  23458507.8134
        17.5004         15.7504
 02  7 10 16 48 15.0010000  0 11G 2G 3G 6G15G17G18G21G22G23G26G29
  24672869.9114     336637.04545    123930.21645                  24672875.7714
         7.7504          9.0004
  24210864.9194     -63408.26845    -25964.28045                  24210871.1654
        11.0004          9.2504
  22157096.3254     806738.21547    468540.19346                  22157100.8964
        23.2504         22.5004
  20742508.9814     324625.75748    151803.08547                  20742513.0954
        30.7504         28.2504
  20861105.6384     416106.72548    249651.98847                  20861109.7044
        28.2504         27.0004
  20814543.6304     263970.66147    154496.44047                  20814546.3024
        25.5004         27.7504
  22835048.5214      75243.83447     47788.67146                  22835053.9934
        21.0004         18.7504
  23716575.2784     624425.87646    357598.92546                  23716580.4114
        12.5004         12.0004
  22876873.4274     751298.83847    425316.56346                  22876878.0214
        23.0004         20.2504
  22558287.3024     552891.40147    319812.49846                  22558291.2284
        21.7504         18.2504
  23470875.7084     613237.81746    366899.29246                  23470880.4314
        17.5004         16.0004
 02  7 10 16 48 30.0010000  0 11G 2G 3G 6G15G17G18G21G22G23G26G29
  24680154.2314     374910.77145    153753.86245                  24680161.6884
         8.2504          9.0004
  24209994.4974     -67980.19645    -29526.81945                  24210000.7434
        11.0004          9.5004
  22173285.4744     891809.57147    534829.52846                  22173290.0324
        24.0004         22.7504
  20749499.9664     361361.90748    180428.64847                  20749503.9624
        31.5004         28.2504
  20869623.8884     460872.29147    284534.23947                  20869627.8964
        27.7504         26.7504
  20820144.9894     293405.71147    177432.84547                  20820147.6264
        25.7504         28.0004
  22836913.3884      85046.93147     55427.46646                  22836918.9314
        20.5004         18.7504
  23728907.6924     689232.39346    408097.47945                  23728914.6464
        12.5004         11.7504
  22892540.2474     833628.88047    489469.82046                  22892544.8884
        23.0004         20.2504
  22569582.1614     612247.59347    366064.07046                  22569586.1924
        21.0004         18.2504
  23483317.9354     678622.40446    417848.32046                  23483322.4934
        17.5004         15.7504
 02  7 10 16 48 45.0010000  0 11G 2G 3G 6G15G17G18G21G22G23G26G29
  24687502.2554     413525.57245    183843.30145                  24687509.0634
         8.2504          9.5004
  24209176.2394     -72279.31145    -32876.75145                  24209182.0174
        11.0004          9.5004
  22189533.7084     977197.25247    601365.34946                  22189538.2314
        23.7504         22.7504
  20756545.9424     398390.91848    209282.42547                  20756550.1144
        30.5004         28.0004
  20878196.7554     505922.98648    319638.67147                  20878200.8564
        28.0004         26.5004
  20825811.4664     323181.63447    200634.86447                  20825814.1384
        25.5004         28.0004
  22838835.0284      95146.26547     63297.10646                  22838840.6884
        20.0004         18.7504
  23741304.7004     754374.05046    458857.17246                  23741311.4034
        13.0004         12.0004
  22908258.1694     916227.12847    553832.07146                  22908262.9274
        22.7504         20.2504
  22580950.6224     671988.45347    412615.38246                  22580954.8294
        21.5004         18.2504
  23495827.2164     744359.47546    469071.98346                  23495831.6924
        17.0004         15.7504
 02  7 10 16 49  0.0010000  0 11G 2G 3G 6G15G17G18G21G22G23G26G29
  24694914.7634     452472.39945    214191.47045                  24694920.7394
         9.0004          9.5004
  24208407.9744     -76314.47745    -36021.02045                  24208413.9504
        10.5004          9.5004
  22205841.0364    1062891.99347    668140.43846                  22205845.6774
        23.7504         23.0004
  20763646.4814     435703.76948    238357.36747                  20763650.5134
        31.2504         28.2504
  20886822.2944     551250.09247    354958.48647                  20886826.4424
        27.7504         27.0004
  20831540.5674     353289.40747    224095.47447                  20831543.2514
        25.5004         28.0004
  22840812.4354     105532.70647     71390.44846                  22840818.1184
        21.0004         18.7504
  23753761.9274     819841.55846    509870.76745                  23753768.0564
        12.2504         11.2504
  22924025.5754     999084.34847    618396.11246                  22924030.3564
        22.7504         20.2504
  22592390.3724     732104.93047    459459.38146                  22592394.8964
        21.0004         18.0004
  23508401.7634     810439.90446    520563.21746                  23508406.4744
        17.0004         15.2504
 02  7 10 16 49 15.0010000  0 11G 2G 3G 6G15G17G18G21G22G23G26G29
  24702387.0604     491748.56445    244796.24345                  24702393.1184
         8.2504          9.2504
  24207689.8884     -80087.98145    -38961.36345                  24207696.3564
        10.0004          9.2504
  22222205.6694    1148890.89647    735152.54146                  22222210.2864
        23.2504         22.7504
  20770800.0674     473297.77948    267651.39747                  20770804.3804
        30.2504         28.0004
  20895499.3644     596850.82047    390491.51747                  20895503.6774
        26.7504         26.5004
  20837332.1854     383726.31747    247812.54847                  20837335.0794
        24.5004         27.7504
  22842842.2084     116203.72947     79705.55846                  22842847.9154
        20.0004         19.0004
  23766280.8804     885632.00146    561136.02346                  23766286.7634
        12.5004         12.2504
  22939841.0214    1082197.61247    683159.67646                  22939846.1424
        22.2504         20.5004
  22603900.9894     792594.05147    506593.76046                  22603905.2434
        21.0004         18.2504
  23521040.5524     876860.80346    572319.74446                  23521045.8494
        16.0004         15.5004
 02  7 10 16 49 30.0010000  0 11G 2G 3G 6G15G17G18G21G22G23G26G29
  24709923.2394     531345.46445    275650.95945                  24709931.8924
         8.7504          9.5004
  24207020.3174     -83607.96645    -41704.22145                  24207024.8884
        10.5004         10.5004
  22238627.1384    1235185.25147    802394.85646                  22238632.0244
        23.0004         22.2504
  20778006.0134     511164.52248    297157.95047                  20778010.3964
        30.5004         28.0004
  20904227.7004     642716.62747    426231.09447                  20904232.1534
        27.7504         26.7504
  20843185.1464     414483.76947    271779.39547                  20843188.2284
        24.7504         28.0004
  22844925.5914     127150.86047     88235.82546                  22844931.4154
        20.5004         18.5004
  23778861.0524     951736.55946    612646.04846                  23778867.1924
        12.7504         12.2504
  22955703.9034    1165558.15847    748115.92746                  22955708.6494
        22.2504         20.2504
  22615480.6304     853447.32647    554011.90046                  22615485.5994
        20.5004         18.2504
  23533743.6854     943613.52946    624334.84246                  23533749.2394
        16.7504         15.5004
 02  7 10 16 49 45.0010000  0 11G 2G 3G 6G15G17G18G21G22G23G26G29
  24717516.8804     571254.03545    306748.56245                  24717523.5364
         8.2504          9.5004
  24206397.4744     -86883.17045    -44256.27845                  24206403.3104
        10.5004          9.7504
  22255103.4194    1321765.78347    869860.17746                  22255108.1184
        23.5004         22.0004
  20785261.8804     549294.92648    326869.94947                  20785266.1464
        30.2504         28.2504
  20913004.3024     688838.53747    462170.24747                  20913008.7314
        27.2504         26.7504
  20849097.3724     445552.84347    295989.06647                  20849100.4074
        25.0004         27.7504
  22847059.6694     138365.23947     96974.30946                  22847065.1424
        21.0004         19.0004
  23791497.7784    1018145.87346    664393.52345                  23791503.8844
        12.2504         11.7504
  22971612.7314    1249156.76347    813257.68746                  22971617.8414
        22.7504         20.2504
  22627128.8494     914655.40747    601706.50246                  22627132.9974
        21.5004         18.7504
  23546507.1534    1010688.88746    676601.34146                  23546512.6964
        15.7504         15.0004
 02  7 10 16 50  0.0010000  0 11G 2G 3G 6G15G17G18G21G22G23G26G29
  24725170.9894     611470.47845    338086.01045                  24725178.2124
         8.7504          9.2504
  24205819.6064     -89917.05445    -46620.32345                  24205825.6184
        10.7504          9.7504
  22271632.3804    1408628.51947    937545.39646                  22271637.2434
        22.7504         22.0004
  20792567.2864     587685.36748    356784.57147                  20792571.7864
        30.2504         28.0004
  20921829.0994     735212.95147    498306.14747                  20921833.4934
        27.2504         26.7504
  20855068.4034     476929.63647    320438.51247                  20855071.3334
        25.2504         28.0004
  22849243.6924     149842.96547    105918.01946                  22849249.4814
        20.5004         19.0004
  23804192.7004    1084855.83546    716375.27545                  23804198.7004
        13.2504         11.7504
  22987565.2314    1332989.35947    878581.76046                  22987570.2004
        22.2504         20.2504
  22638842.6854     976214.45847    649674.57746                  22638847.1734
        21.0004         18.5004
  23559332.3884    1078082.92846    729116.16646                  23559337.6264
        16.2504         15.0004
 02  7 10 16 50 15.0010000  0 11G 2G 3G 6G15G17G18G21G22G23G26G29
  24732881.6534     651993.70645    369662.52645                  24732889.6964
         8.7504          9.5004
  24205288.3964     -92710.34045    -48796.89545                  24205292.9894
        11.0004         10.2504
  22288215.5754    1495772.27847   1005449.57946                  22288220.5564
        22.2504         21.7504
  20799922.0754     626334.90448    386901.09347                  20799926.5874
        30.2504         28.0004
  20930701.4114     781838.72947    534637.91147                  20930706.2164
        27.0004         26.5004
  20861097.5134     508613.09847    345126.93147                  20861100.4194
        25.2504         28.0004
  22851477.9584     161583.10947    115066.21246                  22851483.3374
        21.0004         19.5004
  23816943.9744    1151865.25146    768590.37046                  23816949.4814
        12.7504         12.2504
  23003562.4894    1417054.68147    944087.18146                  23003567.5634
        22.5004         20.2504
  22650623.9194    1038123.34247    697915.26446                  22650628.7004
        21.2504         18.7504
  23572217.5834    1145794.41746    781878.34546                  23572222.3644
        16.0004         15.0004
 02  7 10 16 50 30.0010000  0 11G 2G 3G 6G15G17G18G21G22G23G26G29
  24740651.2554     692822.54745    401477.20845                  24740658.1614
         9.0004          9.2504
  24204802.2084     -95263.91245    -50786.66045                  24204808.0564
        10.7504          9.7504
  22304851.3494    1583195.62447   1073571.63146                  22304856.3644
        22.0004         21.2504
  20807325.8884     665242.35748    417218.58247                  20807330.3994
        30.2504         28.0004
  20939622.0444     828714.91247    571164.80747                  20939626.5794
        27.5004         26.7504
  20867184.5674     540602.12347    370053.44747                  20867187.5794
        24.7504         27.7504
  22853761.9424     173584.61147    124418.04946                  22853767.0994
        21.2504         19.5004
  23829752.8024    1219172.62046    821037.63945                  23829758.9194
        12.5004         11.5004
  23019603.6694    1501351.35147   1009772.88246                  23019608.8134
        22.0004         20.0004
  22662470.9744    1100380.82447    746427.58646                  22662475.9784
        21.2504         18.5004
  23585162.6384    1213822.01146    834886.84246                  23585167.6884
        16.0004         14.7504
 02  7 10 16 50 45.0010000  0 11G 2G 3G 6G15G17G18G21G22G23G26G29
  24748477.0994     733950.92745    433525.27645                  24748483.6614
         8.7504          9.5004
  24204360.7944     -97583.57145    -52594.16945                  24204366.5714
        10.7504          9.2504
  22321539.9274    1670892.29647   1141906.67046                  22321544.9664
        22.2504         21.0004
  20814777.7004     704401.72748    447732.37847                  20814782.2004
        30.7504         28.2504
  20948588.4034     875835.42147    607882.07947                  20948593.0444
        27.2504         26.7504
  20873329.1144     572890.57547    395213.27647                  20873332.0444
        24.7504         27.7504
  22856093.3724     185841.41847    133968.83346                  22856099.1964
        20.2504         19.0004
  23842615.3964    1286771.59345    873712.13945                  23842621.1614
        11.7504         11.5004
  23035687.2314    1585873.06947   1075633.94446                  23035692.6224
        22.0004         20.0004
  22674382.8644    1162980.65447    795206.65746                  22674387.8924
        20.2504         18.5004
  23598166.0994    1282159.43746    888136.77346                  23598171.6304
        14.7504         14.7504
 02  7 10 16 51  0.0010000  0 11G 2G 3G 6G15G17G18G21G22G23G26G29
  24756360.8964     775375.49945    465804.16345                  24756367.9074
         9.0004          9.5004
  24203963.3414     -99672.30945    -54221.70445                  24203968.7434
        10.7504          9.7504
  22338279.4194    1758858.75247   1210451.92646                  22338284.1774
        22.5004         20.7504
  20822276.4584     743809.81348    478439.97247                  20822281.0054
        30.0004         28.0004
  20957600.9974     923197.04447    644787.23547                  20957605.5914
        27.0004         26.7504
  20879529.6694     605475.12947    420603.84247                  20879532.5524
        25.0004         27.7504
  22858474.0134     198350.57247    143716.24746                  22858479.7674
        20.7504         19.2504
  23855534.1064    1354658.58345    926611.04745                  23855539.8024
        11.7504         11.5004
  23051813.4974    1670616.25747   1141667.57446                  23051819.1344
        21.5004         20.0004
  22686360.1534    1225919.33947    844249.79046                  22686365.1344
        20.2504         18.5004
  23611229.7634    1350803.25746    941625.45046                  23611234.6264
        15.7504         14.5004
 02  7 10 16 51 15.0010000  0 11G 2G 3G 6G15G17G18G21G22G23G26G29
  24764299.4974     817095.50845    498313.24745                  24764304.9814
         8.7504          9.5004
  24203609.3174    -101530.50345    -55669.63545                  24203614.9894
        10.7504          9.7504
  22355069.8804    1847094.08747   1279206.69846                  22355074.4154
        22.2504         21.0004
  20829823.0994     783465.93348    509340.84047                  20829827.6694
        30.5004         28.0004
  20966659.5214     970799.07247    681879.71947                  20966663.8684
        27.2504         26.7504
  20885786.4354     638355.08247    446224.58747                  20885789.2594
        24.7504         27.7504
  22860902.2474     211111.39847    153659.77546                  22860908.0834
        20.5004         19.0004
  23868507.4584    1422832.63945    979733.65145                  23868513.6814
        11.7504         11.5004
  23067981.9584    1755579.97347   1207873.04846                  23067987.3724
        22.0004         19.7504
  22698401.4114    1289196.07647    893556.32546                  22698406.1464
        20.7504         18.5004
  23624349.8414    1419752.51846    995352.13646                  23624355.5834
        15.0004         14.2504
 02  7 10 16 51 30.0010000  0 11G 2G 3G 6G15G17G18G21G22G23G26G29
  24772292.1144     859098.60445    531042.86145                  24772300.6264
         8.2504          9.2504
  24203297.7084    -103170.15145    -56947.27945                  24203304.2714
        11.0004          9.7504
  22371909.1854    1935585.77947   1348161.23246                  22371913.9194
        21.7504         21.0004
  20837414.1924     823357.78948    540425.40147                  20837418.6464
        30.5004         28.2504
  20975761.3564    1018629.31947    719150.03847                  20975765.9504
        27.0004         26.7504
  20892097.2474     671518.03147    472065.84747                  20892100.1774
        25.2504         27.7504
  22863376.5994     224111.61247    163789.82746                  22863382.4354
        21.7504         19.5004
  23881532.1064    1491281.19245   1033070.15945                  23881538.0134
        11.0004         11.0004
  23084189.0834    1840751.66247   1274240.57346                  23084194.5794
        21.7504         20.0004
  22710504.2394    1352798.43847    943116.59846                  22710508.6344
        20.2504         18.5004
  23637526.4504    1488994.91046   1049307.22946                  23637531.5954
        15.2504         14.5004
 02  7 10 16 51 45.0010000  0 11G 2G 3G 6G15G17G18G21G22G23G26G29
  24780337.1774     901375.20645    563985.68945                  24780343.4464
         8.2504          9.2504
  24203024.7714    -104600.53945    -58061.83045                  24203031.6034
        10.2504         10.2504
  22388795.4504    2024324.05147   1417307.89346                  22388800.7354
        21.5004         20.7504
  20845048.6384     863475.82548    571686.20047                  20845053.1264
        30.2504         28.2504
  20984904.5914    1066678.27747    756590.78047                  20984909.0914
        27.0004         26.5004
  20898460.1384     704954.40247    498120.16247                  20898462.8924
        25.0004         27.7504
  22865893.9814     237341.56747    174098.90546                  22865899.8294
        21.0004         19.2504
  23894609.1614    1559994.31246   1086612.80645                  23894615.4314
        12.2504         11.2504
  23100434.7314    1926121.51447   1340762.52046                  23100440.1814
        22.0004         20.0004
  22722667.8334    1416716.69947    992923.02746                  22722672.1224
        20.7504         18.2504
  23650756.0834    1558520.62846   1103483.08646                  23650761.5914
        14.7504         14.5004
 02  7 10 16 52  0.0010000  0 11G 2G 3G 6G15G17G18G21G22G23G26G29
  24788433.7944     943922.85445    597139.67745                  24788439.6774
         8.7504          9.0004
  24202792.2714    -105823.70245    -59014.93045                  24202797.9424
        10.0004          9.7504
  22405728.3024    2113306.26747   1486644.64946                  22405733.1534
        21.7504         20.7504
  20852725.5444     903817.67948    603121.40847                  20852730.0214
        30.7504         28.2504
  20994089.3724    1114943.39847    794199.96147                  20994093.8844
        26.7504         26.5004
  20904874.5754     738661.86647    524385.72147                  20904877.3644
        25.0004         27.5004
  22868454.8254     250798.88247    184585.15446                  22868460.4974
        21.5004         19.2504
  23907733.8414    1628969.29345   1140359.49845                  23907739.8764
        11.5004         11.5004
  23116717.3334    2011686.88847   1407436.82146                  23116722.5714
        22.0004         20.0004
  22734889.8644    1480948.38546   1042973.68646                  22734894.4814
        19.5004         18.5004
  23664040.4034    1628326.95246   1157877.61646                  23664045.5484
        15.0004         14.7504
 02  7 10 16 52 15.0010000  0 11G 2G 3G 6G15G17G18G21G22G23G26G29
  24796580.7714     986739.64945    630503.38945                  24796587.0754
         8.5004          9.0004
  24202598.4504    -106841.32145    -59807.83745                  24202604.7674
         9.7504          9.7504
  22422706.7714    2202530.31447   1556169.85646                  22422711.8214
        21.2504         20.2504
  20860444.4894     944381.50448    634729.57947                  20860448.8494
        30.7504         28.2504
  21003314.6774    1163423.05347    831976.30947                  21003319.2124
        26.7504         26.7504
  20911339.3804     772638.50647    550861.02647                  20911342.3564
        24.5004         27.7504
  22871058.3104     264481.62547    195247.05146                  22871063.8174
        21.5004         20.0004
  23920908.9974    1698203.99346   1194308.60245                  23920914.3534
        12.0004         11.0004
  23133036.6224    2097445.64347   1474261.81046                  23133042.1424
        21.7504         19.7504
  22747172.6464    1545491.37147   1093266.91746                  22747177.4034
        20.2504         18.2504
  23677377.2084    1698411.92946   1212489.26746                  23677382.3534
        15.0004         14.0004
 02  7 10 16 52 30.0010000  0 11G 2G 3G 6G15G17G18G21G22G23G26G29
  24804779.5994    1029817.03145    664070.19645                  24804785.6694
         9.0004          9.0004
  24202441.5444    -107661.52345    -60446.91145                  24202446.8174
         9.2504          9.7504
  22439729.9504    2291987.50447   1625876.72046                  22439735.1064
        21.2504         20.5004
  20868203.9504     985158.94348    666504.20047                  20868208.4974
        30.0004         28.0004
  21012578.9974    1212108.88347    869913.31647                  21012583.6614
        26.7504         26.5004
  20917854.6224     806875.77147    577539.41847                  20917857.6574
        24.2504         27.7504
  22873703.3414     278381.68347    206078.28446                  22873709.0834
        21.2504         19.2504
  23934131.4504    1767689.65145   1248453.22045                  23934138.1774
        11.2504         10.7504
  23149390.9664    2183389.11747   1541230.72746                  23149396.3924
        22.0004         20.0004
  22759512.4034    1610336.99347   1143795.95946                  22759517.0564
        20.2504         18.2504
  23690765.0214    1768766.91946   1267311.32646                  23690770.3644
        14.7504         14.2504
 02  7 10 16 52 45.0010000  0 11G 2G 3G 6G15G17G18G21G22G23G26G29
  24813025.0604    1073151.18345    697837.00745                  24813032.7044
         9.0004          9.7504
  24202322.4034    -108287.83045    -60934.94045                  24202328.3214
         9.0004          9.7504
  22456797.3024    2381673.80847   1695762.10546                  22456802.1184
        22.0004         20.7504
  20876003.7554    1026146.21348    698442.33147                  20876008.1494
        30.7504         27.7504
  21021882.3334    1260996.90547    908007.87247                  21021887.0094
        26.7504         26.7504
  20924418.6464     841369.82647    604417.90347                  20924421.5524
        24.5004         27.5004
  22876388.9504     292495.08447    217075.76746                  22876394.3534
        21.5004         20.0004
  23947401.4034    1837422.14545   1302790.18445                  23947407.5564
        11.2504         11.0004
  23165780.3884    2269513.24747   1608340.41846                  23165785.5214
        21.7504         19.7504
  22771908.9504    1675481.34847   1194557.78746                  22771914.0014
        20.5004         18.7504
  23704203.4664    1839387.87646   1322340.62646                  23704208.4234
        14.5004         13.7504
 02  7 10 16 53  0.0010000  0 11G 2G 3G 6G15G17G18G21G22G23G26G29
  24821318.9584    1116737.21045    731800.16245                  24821325.1574
         9.0004          9.0004
  24202239.3564    -108724.80045    -61275.38045                  24202246.1424
         9.7504          9.2504
  22473906.3254    2471584.20547   1765822.12546                  22473911.0484
        21.2504         20.5004
  20883842.2474    1067338.59448    730540.28247                  20883846.5954
        30.2504         28.0004
  21031223.0134    1310082.40547    946256.30647                  21031227.6064
        26.7504         26.7504
  20931030.7784     876115.82147    631492.71247                  20931034.0014
        24.5004         27.2504
  22879114.5834     306817.04747    228235.75946                  22879120.2314
        21.5004         19.7504
  23960716.8564    1907396.44345   1357315.58845                  23960723.5364
        11.0004         11.2504
  23182202.1534    2355812.99547   1675586.95646                  23182207.4974
        21.5004         19.7504
  22784361.5054    1740919.40247   1245548.46446                  22784366.4154
        20.5004         18.2504
  23717692.3174    1910269.82746   1377573.30346                  23717697.5324
        14.5004         13.7504
 02  7 10 16 53 15.0010000  0 11G 2G 3G 6G15G17G18G21G22G23G26G29
  24829661.4584    1160572.30145    765957.34945                  24829668.2554
         9.0004          9.2504
  24202192.1534    -108974.84745    -61470.21945                  24202198.9154
        10.0004          9.5004
  22491057.9274    2561715.81547   1836054.50346                  22491062.8254
        21.2504         20.2504
  20891719.5444    1108733.47048    762796.02947                  20891723.8804
        30.2504         27.7504
  21040600.9744    1359362.86347    984656.65747                  21040605.6384
        27.2504         26.7504
  20937690.2394     911111.02647    658761.70547                  20937693.3924
        24.5004         27.7504
  22881879.6304     321345.10047    239556.34546                  22881885.0444
        22.5004         19.7504
  23974078.1064    1977609.45045   1412026.98245                  23974084.0484
        11.5004         11.0004
  23198657.6464    2442285.41647   1742968.04246                  23198662.6734
        21.5004         19.5004
  22796868.6924    1806648.33846   1296765.80146                  22796873.4034
        19.7504         18.2504
  23731229.6854    1981409.85746   1433007.08446                  23731235.1814
        14.5004         13.5004
 02  7 10 16 53 30.0010000  0 11G 2G 3G 6G15G17G18G21G22G23G26G29
  24838048.3564    1204644.25845    800299.11145                  24838055.6144
         9.0004          9.5004
  24202178.5604    -109049.81145    -61528.60545                  24202185.2634
        10.7504          9.7504
  22508248.9744    2652056.18847   1906449.55946                  22508254.5054
        20.5004         20.2504
  20899632.7944    1150318.56648    795199.99247                  20899637.2474
        30.0004         28.0004
  21050012.9664    1408825.96047   1023199.32247                  21050017.4894
        26.5004         26.7504
  20944394.3724     946343.19047    686215.34447                  20944397.5364
        24.0004         27.5004
  22884680.3964     336067.07247    251028.03046                  22884685.6344
        21.5004         20.5004
  23987482.0284    2048048.64645   1466914.66545                  23987488.1344
        11.2504         11.0004
  23215143.6774    2528917.98147   1810473.91346                  23215148.9034
        21.7504         19.5004
  22809430.0134    1872655.83147   1348200.21946                  22809435.2634
        20.0004         18.2504
  23744813.5284    2052795.60246   1488632.31546                  23744818.9544
        14.0004         13.5004
 02  7 10 16 53 45.0010000  0 11G 2G 3G 6G15G17G18G21G22G23G26G29
  24846481.3334    1248962.29145    834832.62345                  24846486.7824
         9.2504          9.5004
  24202198.7004    -108940.13745    -61443.10645                  24202203.9384
        10.7504          9.7504
  22525481.8104    2742614.38647   1977014.35446                  22525486.8024
        21.5004         20.5004
  20907583.9274    1192103.25748    827759.49047                  20907588.2744
        30.2504         27.7504
  21059462.5524    1458481.24447   1061891.74747                  21059467.0634
        27.2504         26.5004
  20951145.7314     981821.66247    713860.90547                  20951148.7904
        24.2504         27.5004
  22887520.8104     350992.35447    262658.14946                  22887526.0834
        22.0004         20.2504
  24000930.6924    2118723.12345   1521985.63845                  24000937.2554
        11.0004         11.5004
  23231661.0994    2615719.77647   1878111.66046                  23231666.5014
        21.5004         19.2504
  22822045.2314    1938950.99747   1399858.77646                  22822050.3534
        20.2504         18.2504
  23758446.8964    2124436.10746   1544456.07846                  23758452.2984
        14.5004         13.5004
 02  7 10 16 54  0.0010000  0 11G 2G 3G 6G15G17G18G21G22G23G26G29
  24854960.7714    1293522.59945    869554.92645                  24854968.1344
         9.2504          9.5004
  24202254.1854    -108649.28745    -61216.44645                  24202259.5404
        10.5004          9.7504
  22542754.9424    2833386.33047   2047745.70046                  22542760.2164
        20.7504         20.0004
  20915573.1064    1234083.86748    860471.64947                  20915577.3964
        30.7504         28.0004
  21068947.2244    1508324.70747   1100730.80247                  21068951.7714
        27.2504         26.7504
  20957943.5284    1017542.49647    741695.33147                  20957946.4584
        24.2504         27.2504
  22890399.0994     366117.04447    274443.64946                  22890404.6424
        22.0004         20.0004
  24014423.9424    2189628.66545   1577236.68245                  24014430.0364
        11.0004         10.7504
  23248209.9814    2702686.76647   1945878.12546                  23248215.4424
        21.0004         19.2504
  22834714.5834    2005529.81746   1451738.35846                  22834719.5404
        19.7504         18.0004
  23772127.3724    2196327.39646   1600475.25546                  23772132.9034
        14.2504         13.2504
 02  7 10 16 54 15.0010000  0 11G 2G 3G 6G15G17G18G21G22G23G26G29
  24863485.8724    1338319.73845    904461.74945                  24863493.0714
         9.5004          9.2504
  24202343.4814    -108182.36945    -60852.57945                  24202350.0914
        10.7504          9.5004
  22560068.0214    2924366.46747   2118639.28046                  22560073.4704
        21.0004         20.0004
  20923597.7714    1276255.03748    893332.30047                  20923602.0364
        30.5004         27.7504
  21078466.9114    1558351.22647   1139712.50347                  21078471.6104
        26.7504         26.7504
  20964785.7244    1053500.16847    769714.29847                  20964788.7244
        24.2504         27.2504
  22893313.9584     381435.76547    286380.33646                  22893319.5014
        22.2504         20.2504
  24027959.1774    2260759.69545   1632663.42345                  24027965.2594
        11.0004         10.7504
  23264789.7714    2789813.34847   2013768.94746                  23264795.4194
        21.2504         19.5004
  22847437.8334    2072386.79247   1503834.70646                  22847443.0604
        20.5004         18.0004
  23785853.6614    2268463.90846   1656685.50146                  23785858.7824
        14.0004         13.2504
 02  7 10 16 54 30.0010000  0 11G 2G 3G 6G15G17G18G21G22G23G26G29
  24872053.6224    1383348.00345    939548.68345                  24872060.3604
         9.2504          9.0004
  24202464.8104    -107544.57845    -60355.56645                  24202470.6574
        11.0004         10.0004
  22577419.6924    3015548.97047   2189690.54446                  22577424.9074
        21.2504         20.2504
  20931657.9584    1318611.27348    926337.15347                  20931662.3174
        30.0004         27.7504
  21088020.5134    1608555.20447   1178832.47647                  21088025.1884
        27.0004         26.5004
  20971672.4114    1089689.13947    797913.50147                  20971675.7164
        24.0004         27.0004
  22896264.9114     396943.24547    298464.11046                  22896270.4664
        21.7504         20.2504
  24041537.1064    2332110.27445   1688261.23245                  24041543.5174
        11.2504         10.7504
  23281399.0364    2877093.74047   2081779.62546                  23281404.4504
        21.2504         19.2504
  22860211.7784    2139516.24147   1556143.34746                  22860217.2284
        20.0004         18.0004
  23799626.8804    2340839.83546   1713082.30746                  23799632.4354
        14.5004         13.5004
 02  7 10 16 54 45.0010000  0 11G 2G 3G 6G15G17G18G21G22G23G26G29
  24880667.7244    1428611.48445    974818.91545                  24880675.3684
         9.0004          9.2504
  24202619.5214    -106731.52545    -59722.02645                  24202625.9424
        11.2504         10.5004
  22594810.3564    3106937.70847   2260902.50846                  22594815.5014
        21.2504         20.5004
  20939754.0444    1361156.75248    959489.46847                  20939758.4034
        30.5004         27.7504
  21097608.1224    1658940.79547   1218093.97547                  21097612.7984
        26.2504         26.7504
  20978603.6534    1126113.51347    826296.13447                  20978606.8174
        24.0004         27.5004
  22899252.7394     412643.48947    310698.09046                  22899257.8374
        22.5004         20.5004
  24055157.0134    2403684.26445   1744033.13245                  24055161.9934
        11.0004         11.2504
  23298038.0834    2964531.78747   2149913.14946                  23298043.0634
        21.5004         19.2504
  22873038.8804    2206921.97347   1608667.29046                  22873044.0134
        20.0004         18.0004
  23813445.7314    2413459.19246   1769668.80146                  23813450.8884
        13.7504         13.5004
 02  7 10 16 55  0.0010000  0 11G 2G 3G 6G15G17G18G21G22G23G26G29
  24889322.3964    1474094.50745   1010260.23645                  24889329.0874
         9.0004          9.0004
  24202804.8724    -105758.51045    -58963.78745                  24202809.6184
        11.2504         10.5004
  22612237.7634    3198516.89847   2332262.88246                  22612242.8024
        21.7504         20.7504
  20947883.0834    1403875.86748    992777.08747                  20947887.6304
        29.7504         28.0004
  21107228.3724    1709492.48747   1257484.89147                  21107232.8024
        27.2504         26.5004
  20985576.7394    1162757.69247    854850.04147                  20985579.9034
        24.0004         27.5004
  22902273.9034     428520.96547    323070.16946                  22902279.4464
        22.2504         20.2504
  24068816.8414    2475465.65745   1799966.65345                  24068822.6184
        11.2504         11.0004
  23314703.6534    3052111.66147   2218157.19446                  23314708.8214
        21.5004         19.2504
  22885914.6384    2274588.30846   1661394.29246                  22885919.7474
        19.7504         17.7504
  23827308.1614    2486306.11546   1826432.62746                  23827313.7514
        14.2504         13.2504
 02  7 10 16 55 15.0020000  0 11G 2G 3G 6G15G17G18G21G22G23G26G29
  24898020.9004    1519806.42945   1045879.87045                  24898028.0644
         8.2504          8.7504
  24203020.8774    -104618.97045    -58075.81045                  24203027.4164
        10.7504         10.0004
  22629702.5964    3290298.63347   2403781.07646                  22629708.2094
        20.0004         19.5004
  20956047.0884    1446777.75048   1026207.12047                  20956051.6114
        30.2504         28.0004
  21116881.5104    1760219.87947   1297012.72747                  21116885.9984
        27.0004         26.7504
  20992593.6434    1199630.31547    883581.96147                  20992596.7834
        24.2504         27.5004
  22905330.5254     444582.98847    335586.05946                  22905336.0104
        22.2504         20.5004
  24082517.8384    2547465.36945   1856070.29645                  24082523.8034
        11.2504         11.7504
  23331398.9634    3139845.17547   2286520.95046                  23331404.4944
        21.5004         19.7504
  22898843.1274    2342525.81346   1714332.59346                  22898848.4244
        19.5004         18.0004
  23841215.8854    2559391.40846   1883382.18046                  23841220.5374
        14.2504         13.0004
 02  7 10 16 55 30.0020000  0 11G 2G 3G 6G15G17G18G21G22G23G26G29
  24906762.9554    1565743.07045   1081674.64845                  24906770.6464
         9.2504          9.7504
  24203269.9084    -103310.63545    -57056.32945                  24203275.9904
        10.7504          9.7504
  22647204.9474    3382272.50647   2475448.98246                  22647210.2094
        21.0004         20.0004
  20964244.8694    1489858.87748   1059776.82447                  20964249.3464
        29.7504         27.7504
  21126567.0644    1811118.48847   1336673.97547                  21126571.6004
        27.2504         26.5004
  20999652.8384    1236728.56747    912489.68747                  20999656.1894
        23.5004         27.2504
  22908421.9084     460829.57247    348245.75346                  22908427.6274
        22.2504         20.2504
  24096259.6044    2619675.42845   1912337.83445                  24096266.1434
        11.2504         11.5004
  23348121.3614    3227722.49047   2354996.75646                  23348127.1504
        21.0004         19.0004
  22911821.7604    2410727.40147   1767476.68946                  22911826.9044
        20.5004         17.7504
  23855168.0414    2632707.40146   1940511.51446                  23855172.9514
        14.0004         13.0004
 02  7 10 16 55 45.0020000  0 11G 2G 3G 6G15G17G18G21G22G23G26G29
  24915547.6744    1611906.25145   1117645.92345                  24915554.3184
         9.0004          9.2504
  24203550.5104    -101834.28745    -55905.88045                  24203556.4634
        10.5004         10.5004
  22664744.5104    3474443.28447   2547270.33646                  22664749.6544
        21.0004         20.2504
  20972478.0254    1533121.02448   1093487.58447                  20972482.6194
        30.7504         28.0004
  21136285.7444    1862190.48547   1376470.32547                  21136290.2444
        27.2504         26.5004
  21006755.6584    1274053.55047    941574.09947                  21006758.9394
        23.7504         27.2504
  22911548.5494     477260.63547    361049.20546                  22911554.5844
        22.0004         20.2504
  24110041.1974    2692099.28245   1968771.96545                  24110047.9004
        11.5004         11.5004
  23364872.1434    3315748.05547   2423588.08446                  23364877.5804
        20.7504         19.2504
  22924850.7914    2479196.17947   1820828.95946                  22924855.3264
        20.2504         18.0004
  23869163.1114    2706257.45946   1997823.23446                  23869168.6664
        13.2504         13.0004
 02  7 10 16 56  0.0020000  0 11G 2G 3G 6G15G17G18G21G22G23G26G29
  24924374.8774    1658295.11545   1153793.08445                  24924380.0804
         9.0004          9.0004
  24203864.4324    -100190.30945    -54624.84045                  24203870.6664
        11.0004         10.0004
  22682321.0804    3566810.00547   2619244.36546                  22682326.4244
        20.2504         19.7504
  20980744.6194    1576563.36948   1127338.75847                  20980748.9904
        30.7504         27.7504
  21146037.1744    1913435.15847   1416401.23547                  21146041.6154
        27.0004         26.7504
  21013901.2914    1311604.46847    970834.54947                  21013904.4084
        23.7504         27.2504
  22914710.2444     493875.62947    373995.97646                  22914716.0214
        22.0004         20.5004
  24123862.9474    2764735.78845   2025371.79445                  24123869.7094
        11.0004         11.2504
  23381650.6434    3403920.92347   2492294.19446                  23381656.3384
        20.2504         19.0004
  22937930.5334    2547931.26746   1874388.77146                  22937935.7134
        19.7504         17.7504
  23883204.3614    2780040.83346   2055316.75946                  23883210.3034
        13.7504         13.0004
 02  7 10 16 56 15.0020000  0 11G 2G 3G 6G15G17G18G21G22G23G26G29
  24933245.5414    1704910.19645   1190116.52745                  24933251.1544
         9.2504          8.2504
  24204208.5574     -98377.94745    -53212.58145                  24204214.6864
        10.5004         10.0004
  22699935.4394    3659372.91247   2691371.24946                  22699940.8654
        20.5004         19.7504
  20989045.7604    1620186.48448   1161330.78947                  20989050.2254
        30.2504         28.0004
  21155821.8854    1964853.04647   1456467.11447                  21155826.3734
        27.2504         26.7504
  21021090.3304    1349381.83547   1000271.46447                  21021093.5764
        24.2504         27.0004
  22917907.0574     510674.98847    387086.40946                  22917912.7524
        21.7504         20.5004
  24137726.1044    2837585.14345   2082137.47245                  24137732.1974
        11.0004         11.2504
  23398457.2214    3492241.33547   2561115.27446                  23398462.8114
        20.0004         19.0004
  22951061.5884    2616932.95847   1928156.30646                  22951066.6744
        20.5004         18.0004
  23897288.6664    2854057.63846   2112992.16246                  23897293.5414
        13.2504         13.0004
 02  7 10 16 56 30.0020000  0 11G 2G 3G 6G15G17G18G21G22G23G26G29
  24942159.7054    1751757.89745   1226621.18545                  24942166.1974
         8.5004          9.0004
  24204586.7914     -96390.40745    -51663.84545                  24204592.7684
        10.5004         10.2504
  22717588.2834    3752138.22247   2763655.86146                  22717593.9674
        20.5004         20.0004
  20997382.7834    1663996.93248   1195468.79447                  20997387.2134
        30.7504         27.7504
  21165640.3774    2016450.67447   1496673.05147                  21165645.0884
        26.7504         26.5004
  21028323.3074    1387392.14347   1029889.88747                  21028326.5294
        23.5004         27.2504
  22921140.2834     527665.42347    400325.73246                  22921146.0844
        21.5004         20.2504
  24151630.6434    2910653.51645   2139073.84245                  24151637.5494
        11.2504         11.5004
  23415293.7134    3580715.47447   2630056.14346                  23415299.3504
        20.2504         19.0004
  22964244.0334    2686207.51347   1982136.46746                  22964248.7914
        20.5004         18.0004
  23911419.7914    2928314.19546   2170854.40746                  23911424.9944
        13.7504         12.7504
 02  7 10 16 56 45.0020000  0 11G 2G 3G 6G15G17G18G21G22G23G26G29
  24951121.8854    1798850.26545   1263316.51745                  24951128.4004
         9.0004          8.2504
  24205000.2834     -94215.30445    -49968.89345                  24205005.8734
        10.0004         10.0004
  22735281.6044    3845117.91647   2836107.52246                  22735286.9944
        20.5004         19.7504
  21005757.2994    1708006.87548   1229762.25547                  21005761.7294
        30.2504         28.0004
  21175495.5494    2068240.26947   1537028.57547                  21175500.2134
        27.0004         26.2504
  21035602.9634    1425647.45047   1059699.22347                  21035606.1624
        23.5004         27.2504
  22924412.2834     544858.90747    413723.27446                  22924418.2954
        22.0004         20.5004
  24165579.2214    2983952.71945   2196190.08545                  24165585.2094
        11.2504         10.7504
  23432161.5024    3669355.31147   2699126.12446                  23432167.2794
        20.7504         19.0004
  22977480.5804    2755766.96647   2036338.62746                  22977485.3384
        20.2504         18.0004
  23925598.1274    3002822.41546   2228912.75046                  23925603.2014
        13.5004         12.5004
 02  7 10 16 57  0.0020000  0 11G 2G 3G 6G15G17G18G21G22G23G26G29
  24960127.7054    1846176.62245   1300194.16445                  24960134.2324
         9.0004          9.2504
  24205447.9794     -91862.91745    -48135.84345                  24205454.0024
        10.5004          9.7504
  22753013.5724    3938301.09446   2908717.76146                  22753018.8934
        19.7504         19.5004
  21014168.2294    1752205.78848   1264202.95947                  21014172.7054
        30.5004         28.0004
  21185385.1974    2120211.35147   1577525.51547                  21185389.9084
        26.5004         26.5004
  21042927.2524    1464137.09647   1089691.15747                  21042930.4514
        23.5004         26.7504
  22927720.2054     562244.98647    427270.88746                  22927726.0534
        21.5004         20.2504
  24179569.5104    3057471.99445   2253477.77345                  24179575.8264
        11.2504         10.7504
  23449058.5414    3758150.00447   2768316.77846                  23449064.1074
        20.5004         19.2504
  22990769.5254    2825600.47047   2090754.33646                  22990773.8384
        20.0004         18.0004
  23939822.0414    3077571.56846   2287158.81646                  23939827.0214
        13.5004         13.0004
 02  7 10 16 57 15.0020000  0 11G 2G 3G 6G15G17G18G21G22G23G26G29
  24969179.3384    1893746.04145   1337261.22745                  24969185.4794
         9.0004          9.0004
  24205931.4004     -89323.80345    -46157.29145                  24205937.5644
        10.7504         10.2504
  22770786.4394    4031696.61746   2981493.44646                  22770791.9244
        19.5004         19.2504
  21022616.6044    1796602.86548   1298798.08247                  21022621.2684
        30.5004         28.0004
  21195311.6044    2172372.90547   1618170.87347                  21195316.0214
        27.2504         26.7504
  21050297.9794    1502870.14947   1119872.76047                  21050301.1434
        23.7504         27.0004
  22931067.3224     579832.73947    440975.65046                  22931073.0414
        22.0004         20.5004
  24193602.6504    3131219.98045   2310943.69545                  24193608.6974
        10.7504         10.7504
  23465986.7364    3847108.38347   2837634.97246                  23465992.1044
        20.5004         19.0004
  23004112.0024    2895717.08546   2145390.64146                  23004116.7484
        19.7504         17.5004
  23954093.8224    3152570.48946   2345599.51846                  23954098.9204
        13.2504         12.5004
 02  7 10 16 57 30.0020000  0 11G 2G 3G 6G15G17G18G21G22G23G26G29
  24978276.7134    1941554.63245   1374514.66445                  24978283.1004
         8.7504          9.0004
  24206449.3614     -86601.46845    -44035.99645                  24206455.7834
        11.0004         10.5004
  22788598.4004    4125300.45146   3054431.44046                  22788604.2364
        19.5004         19.2504
  21031102.1044    1841194.29548   1333544.64147                  21031106.6744
        30.0004         27.7504
  21205273.0414    2224721.28347   1658961.80947                  21205277.8224
        27.0004         26.5004
  21057714.0574    1541842.69047   1150240.97347                  21057717.3504
        23.2504         27.0004
  22934451.6824     597618.37247    454834.61246                  22934457.5534
        21.7504         20.5004
  24207679.3224    3205192.48645   2368584.59945                  24207684.6894
        11.2504         10.7504
  23482945.1824    3936226.37547   2907077.54346                  23482951.0884
        20.2504         18.2504
  23017508.0024    2966112.66547   2200244.33346                  23017512.7134
        20.0004         17.5004
  23968412.9394    3227815.13846   2404231.70746                  23968418.3424
        13.7504         12.5004
 02  7 10 16 57 45.0020000  0 11G 2G 3G 6G15G17G18G21G22G23G26G29
  24987420.5494    1989599.84145   1411952.48545                  24987427.1824
         9.0004          9.2504
  24207002.2604     -83698.20745    -41773.65645                  24207009.1784
        11.0004         10.5004
  22806450.1584    4219109.86447   3127529.64746                  22806455.6784
        20.2504         19.5004
  21039623.8694    1885977.56948   1368440.69547                  21039628.3574
        30.2504         27.7504
  21215270.0024    2277254.01347   1699896.40047                  21215274.6434
        27.0004         26.2504
  21065175.3854    1581052.21647   1180793.85347                  21065178.7954
        23.2504         27.0004
  22937873.1744     615599.45647    468845.86346                  22937878.8574
        21.2504         20.5004
  24221798.3694    3279386.86545   2426398.35545                  24221804.6504
        11.2504         11.0004
  23499933.8224    4025501.28947   2976642.39346                  23499939.6934
        20.0004         18.2504
  23030956.6434    3036784.58747   2255313.34946                  23030961.2954
        20.2504         18.2504
  23982776.9634    3303302.86746   2463053.29446                  23982783.0104
        12.7504         12.7504
 02  7 10 16 58  0.0020000  0 11G 2G 3G 6G15G17G18G21G22G23G26G29
  24996613.0574    2037905.28045   1449593.05645                  24996618.7754
         9.7504          9.0004
  24207593.6274     -80589.81745    -39351.51845                  24207599.2294
        11.2504         10.7504
  22824345.1664    4313148.42947   3200806.40246                  22824350.2054
        20.5004         19.7504
  21048187.3614    1930976.48748   1403504.78747                  21048191.7914
        30.7504         28.0004
  21225305.8384    2329995.02647   1740993.28247                  21225310.2914
        26.7504         26.5004
  21072686.3304    1620522.44047   1211549.87847                  21072689.6824
        23.2504         27.0004
  22941336.9084     633799.78347    483027.96346                  22941342.6274
        22.0004         20.7504
  24235963.3544    3353826.50745   2484403.24645                  24235969.7994
        11.2504         11.0004
  23516956.1354    4114956.70846   3046347.90046                  23516961.7364
        19.5004         18.2504
  23044462.2524    3107756.42347   2310616.06646                  23044466.8814
        20.5004         18.0004
  23997192.7604    3379057.12046   2522082.55646                  23997198.3034
        13.5004         12.7504
 02  7 10 16 58 15.0020000  0 11G 2G 3G 6G15G17G18G21G22G23G26G29
  25005850.4164    2086451.78145   1487421.48945                  25005856.3574
         9.5004          9.2504
  24208220.1504     -77295.29345    -36784.34545                  24208225.2254
        11.2504         11.0004
  22842280.0334    4407396.69347   3274246.56846                  22842285.3654
        20.2504         19.7504
  21056787.6744    1976171.96548   1438722.04047                  21056792.0804
        30.5004         28.0004
  21235378.3224    2382925.03847   1782237.44447                  21235382.8574
        27.2504         26.5004
  21080243.4474    1660234.08747   1242494.02047                  21080246.5884
        23.7504         27.0004
  22944838.3224     652200.18447    497365.95646                  22944844.0534
        22.2504         20.5004
  24250172.1744    3428491.89245   2542584.02545                  24250178.0684
        11.5004         11.2504
  23534009.7294    4204573.13746   3116178.84346                  23534015.2834
        19.5004         18.0004
  23058020.8934    3179008.82047   2366137.40146                  23058025.6864
        20.0004         17.7504
  24011655.8224    3455058.65846   2581304.53346                  24011660.7214
        14.5004         13.0004
 02  7 10 16 58 30.0020000  0 11G 2G 3G 6G15G17G18G21G22G23G26G29
  25015136.3144    2135249.89345   1525445.95545                  25015142.4324
        10.0004          9.7504
  24208885.6354     -73803.57445    -34063.49745                  24208891.7294
        11.7504         11.0004
  22860256.7054    4501865.11847   3347858.28346                  22860262.3424
        20.2504         19.5004
  21065427.5184    2021574.84948   1474100.90347                  21065432.0414
        30.5004         28.0004
  21245488.6824    2436054.83747   1823637.27947                  21245493.2754
        27.2504         26.2504
  21087848.5884    1700197.85947   1273634.62247                  21087851.7644
        23.7504         27.0004
  22948379.7134     670811.60447    511868.38546                  22948385.5374
        21.5004         20.0004
  24264426.2294    3503393.44945   2600948.83745                  24264431.6784
        11.7504         11.0004
  23551096.1194    4294361.05247   3186143.44046                  23551101.5454
        20.0004         18.2504
  23071635.2294    3250552.16246   2421885.45246                  23071640.0804
        19.7504         17.5004
  24026167.4324    3531317.85746   2640727.26846                  24026172.8574
        14.2504         13.0004
 02  7 10 16 58 45.0020000  0 11G 2G 3G 6G15G17G18G21G22G23G26G29
  25024470.8854    2184301.64145   1563668.08345                  25024477.6464
         9.7504          9.5004
  24209587.4714     -70112.35846    -31187.21245                  24209592.6624
        12.2504         11.0004
  22878275.4714    4596555.50646   3421642.95346                  22878281.2604
        19.5004         19.5004
  21074107.1434    2067187.19948   1509642.99247                  21074111.6784
        30.5004         28.0004
  21255637.4084    2489386.55647   1865194.45647                  21255641.8614
        27.2504         26.5004
  21095501.5334    1740415.73547   1304973.22847                  21095504.6974
        23.5004         27.0004
  22951962.1114     689636.01347    526536.77846                  22951967.9594
        21.7504         20.2504
  24278724.3934    3578532.93245   2659499.04545                  24278730.2874
        11.7504         11.0004
  23568215.1114    4384322.31546   3256243.10746                  23568220.2914
        19.7504         18.0004
  23085304.9084    3322388.44846   2477861.76246                  23085310.2054
        19.7504         17.7504
  24040728.9164    3607836.62146   2700352.26346                  24040734.2014
        14.5004         13.2504
 02  7 10 16 59  0.0020000  0 11G 2G 3G 6G15G17G18G21G22G23G26G29
  25033854.6504    2233614.13845   1602093.37245                  25033861.0144
        10.5004          9.5004
  24210329.3074     -66214.06246    -28149.55145                  24210335.5294
        12.2504         11.0004
  22896338.0574    4691474.91746   3495606.07446                  22896344.0574
        19.5004         19.2504
  21082828.2294    2113016.25548   1545353.93947                  21082832.5644
        31.0004         28.0004
  21265825.6354    2542927.38747   1906914.57547                  21265830.1824
        27.0004         26.5004
  21103204.4634    1780894.96147   1336515.48547                  21103207.6044
        23.7504         27.0004
  22955586.3304     708680.60547    541376.73746                  22955592.0494
        22.0004         20.5004
  24293069.2994    3653917.18945   2718239.96945                  24293075.2994
        11.5004         10.2504
  23585368.3304    4474463.93746   3326483.31046                  23585374.0964
        19.7504         18.0004
  23099031.7444    3394524.64746   2534071.77146                  23099036.8304
        19.0004         18.0004
  24055340.3144    3684621.89246   2760184.92346                  24055345.5294
        14.2504         13.2504
 02  7 10 16 59 15.0020000  0 11G 2G 3G 6G15G17G18G21G22G23G26G29
  25043289.1744    2283191.91145   1640725.40645                  25043295.0804
        10.2504          9.5004
  24211111.0494     -62103.80745    -24946.75545                  24211116.9674
        11.7504         11.2504
  22914445.4944    4786627.58147   3569750.95846                  22914450.9554
        20.5004         19.2504
  21091591.3304    2159066.67448   1581237.38047                  21091595.7134
        30.5004         28.0004
  21276054.6894    2596682.13647   1948801.38447                  21276059.5064
        26.7504         26.2504
  21110957.9164    1821640.03347   1368264.88947                  21110961.0804
        23.7504         27.0004
  22959252.6114     727950.05447    556391.91146                  22959258.4004
        21.5004         20.5004
  24307461.5724    3729550.47545   2777174.95945                  24307467.6894
        11.5004         11.2504
  23602556.6504    4564790.22746   3396867.40546                  23602561.9944
        19.5004         18.0004
  23112817.2754    3466965.10047   2590518.87846                  23112822.1744
        20.0004         17.7504
  24070003.9084    3761678.08746   2820228.68846                  24070009.4634
        14.5004         13.0004
 02  7 10 16 59 30.0020000  0 11G 2G 3G 6G15G17G18G21G22G23G26G29
  25052774.6114    2333040.20645   1679568.19545                  25052781.3854
        10.0004          9.5004
  24211934.6044     -57776.01046    -21574.40545                  24211939.8654
        12.5004         11.0004
  22932597.9004    4882018.57647   3644081.56846                  22932602.9634
        20.2504         19.5004
  21100397.7444    2205343.77048   1617297.45347                  21100402.0924
        30.5004         28.0004
  21286325.6274    2650656.07947   1990858.99147                  21286330.4324
        26.5004         26.2504
  21118763.2914    1862656.05647   1400225.43047                  21118766.5374
        24.2504         27.0004
  22962963.7444     747449.85647    571586.58346                  22962969.2174
        22.2504         20.7504
  24321902.2834    3805437.81545   2836307.91545                  24321909.1044
        11.0004         11.2504
  23619781.5574    4655306.27846   3467399.37946                  23619787.4164
        19.7504         18.2504
  23126660.9714    3539714.99246   2647207.08546                  23126665.7294
        19.7504         17.7504
  24084718.8774    3839010.20146   2880487.47746                  24084724.3384
        14.0004         13.0004
 02  7 10 16 59 45.0020000  0 11G 2G 3G 6G15G17G18G21G22G23G26G29
  25062313.7754    2383166.14445   1718627.36345                  25062320.1274
        10.2504         10.0004
  24212801.2994     -53223.17446    -18026.72845                  24212806.5374
        13.0004         11.5004
  22950796.3934    4977654.94446   3718603.37646                  22950801.7254
        19.7504         19.2504
  21109248.2914    2251854.90148   1653539.89047                  21109252.7684
        30.2504         28.0004
  21296639.7364    2704856.42947   2033093.02747                  21296644.4474
        27.0004         26.2504
  21126621.0254    1903950.35247   1432402.80147                  21126624.1784
        23.7504         27.0004
  22966719.6194     767187.19247    586966.34946                  22966724.9864
        22.5004         20.5004
  24336393.4474    3881586.09845   2895644.21945                  24336399.7754
        11.5004         11.0004
  23637043.9474    4746019.11747   3538084.68846                  23637049.4084
        20.2504         18.2504
  23140565.1744    3612781.28747   2704141.85546                  23140569.9324
        20.0004         17.5004
  24099489.3384    3916625.30946   2940966.76646                  24099495.2684
        14.7504         13.2504
 02  7 10 17  0  0.0020000  0 11G 2G 3G 6G15G17G18G21G22G23G26G29
  25071904.8144    2433568.01545   1757901.51445                  25071910.6624
         9.7504          9.2504
  24213710.3614     -48446.53946    -14304.66245                  24213715.4594
        12.7504         11.5004
  22969041.9714    5073534.82446   3793314.92246                  22969047.2794
        19.5004         19.0004
  21118143.3144    2298598.47948   1689963.45447                  21118147.9324
        30.2504         28.0004
  21306996.6894    2759281.67447   2075502.29547                  21307001.1314
        27.2504         26.5004
  21134531.8384    1945521.14347   1464795.62547                  21134534.9084
        23.7504         27.0004
  22970520.0574     787160.33847    602529.85646                  22970525.8574
        21.7504         20.5004
  24350933.2524    3957993.44045   2955182.38445                  24350938.9364
        11.5004         11.0004
  23654343.2834    4836926.82647   3608921.83846                  23654348.8854
        20.2504         18.0004
  23154528.9244    3686162.23946   2761321.80446                  23154534.1154
        19.5004         17.2504
  24114312.3224    3994521.61146   3001665.16146                  24114318.1004
        14.7504         13.5004
 02  7 10 17  0 15.0020000  0 11G 2G 3G 6G15G17G18G21G22G23G26G29
  25081548.0644    2484240.57645   1797386.60245                  25081554.4514
        10.2504          9.2504
  24214660.6044     -43450.92746    -10411.95645                  24214666.8614
        12.2504         11.5004
  22987332.2994    5169652.83646   3868212.01646                  22987338.0294
        18.2504         18.7504
  21127081.4324    2345569.42448   1726564.18947                  21127086.1664
        30.0004         28.0004
  21317395.4634    2813926.57847   2118082.73547                  21317399.6234
        27.7504         26.2504
  21142493.9794    1987363.18347   1497399.81447                  21142496.8734
        23.7504         27.0004
  22974364.7994     807364.21647    618273.16446                  22974370.4364
        21.7504         20.7504
  24365521.2214    4034654.27045   3014918.05345                  24365527.3614
        11.2504         11.0004
  23671678.3144    4928024.03247   3679906.64946                  23671683.6234
        20.0004         18.0004
  23168551.4714    3759852.45646   2818742.73146                  23168556.4984
        19.2504         17.0004
  24129187.5964    4072693.73546   3062578.47946                  24129193.0334
        14.2504         13.5004
 02  7 10 17  0 30.0020000  0 11G 2G 3G 6G15G17G18G21G22G23G26G29
  25091244.1584    2535198.17145   1837093.80445                  25091250.3574
        10.0004          9.2504
  24215655.8074     -38221.58246     -6337.12045                  24215661.2444
        12.2504         11.7504
  23005671.3074    5266023.20046   3943305.75946                  23005676.7444
        19.7504         19.0004
  21136065.7134    2392782.24248   1763353.39747                  21136070.3894
        30.2504         28.0004
  21327838.2214    2868805.89547   2160845.82447                  21327842.6744
        26.7504         26.5004
  21150510.7524    2029490.95147   1530226.64347                  21150513.8224
        24.2504         27.0004
  22978255.8854     827813.38147    634207.60746                  22978261.5574
        22.0004         20.7504
  24380161.2134    4111582.77746   3074862.32045                  24380168.1784
        12.2504         11.0004
  23689052.2294    5019324.91046   3751050.18246                  23689057.7254
        19.7504         18.0004
  23182635.6194    3833866.18746   2876415.75546                  23182640.5644
        19.2504         17.5004
  24144119.1744    4151155.95646   3123717.87446                  24144124.2134
        14.5004         13.5004
 02  7 10 17  0 45.0020000  0 11G 2G 3G 6G15G17G18G21G22G23G26G29
  25100995.0644    2586440.54545   1877022.89845                  25101002.2404
         9.2504          9.5004
  24216694.8224     -32758.48546     -2080.13545                  24216701.2324
        12.0004         11.2504
  23024057.8304    5362645.44646   4018595.78946                  23024063.2324
        19.7504         18.7504
  21145095.8544    2440236.71248   1800330.90047                  21145100.6464
        29.5004         27.7504
  21338325.8384    2923919.37847   2203791.38547                  21338330.5024
        26.5004         26.2504
  21158581.4084    2071904.13147   1563275.87947                  21158584.6664
        23.7504         27.0004
  22982194.1824     848507.66447    650333.02846                  22982200.0184
        21.7504         20.7504
  24394850.3384    4188778.47645   3135014.75945                  24394856.3964
        11.2504         10.5004
  23706464.8694    5110829.05446   3822352.08746                  23706470.6234
        19.5004         17.5004
  23196781.7914    3908203.00746   2934340.53446                  23196787.2524
        19.0004         17.5004
  24159104.3934    4229907.79146   3185082.92446                  24159110.1934
        14.2504         13.2504
 02  7 10 17  1  0.0020000  0 11G 2G 3G 6G15G17G18G21G22G23G26G29
  25110800.1744    2637966.80445   1917173.21345                  25110806.8304
         9.2504          9.2504
  24217779.4394     -27062.07446      2358.66546                  24217785.6864
        12.2504         12.0004
  23042491.9714    5459518.53746   4094081.26746                  23042497.4084
        18.7504         18.5004
  21154171.9714    2487932.11448   1837496.14747                  21154176.8814
        29.7504         28.0004
  21348857.9634    2979266.22447   2246918.78647                  21348862.7794
        26.7504         26.2504
  21166706.7214    2114601.89647   1596546.86647                  21166710.0254
        23.7504         27.0004
  22986178.6664     869446.17247    666648.76946                  22986184.5614
        22.5004         20.7504
  24409590.7604    4266240.20345   3195374.52445                  24409597.0414
        11.5004         11.2504
  23723916.5964    5202535.45246   3893811.59946                  23723922.4084
        19.7504         17.5004
  23210988.9714    3982861.88946   2992516.27646                  23210994.2444
        19.2504         17.2504
  24174145.5574    4308948.17246   3246672.82046                  24174151.3934
        14.5004         13.5004
 02  7 10 17  1 15.0020000  0 11G 2G 3G 6G15G17G18G21G22G23G26G29
  25120659.0574    2689775.47945   1957543.58945                  25120666.4084
         9.2504          8.7504
  24218907.6584     -21133.46146      6978.38445                  24218914.1864
        12.2504         11.2504
  23060973.3854    5556640.86546   4169760.95446                  23060979.2324
        18.2504         18.2504
  21163293.8774    2535867.11348   1874848.08947                  21163298.5414
        30.0004         27.7504
  21359434.2754    3034845.13347   2290227.01847                  21359439.0804
        26.5004         26.2504
  21174885.3694    2157582.84447   1630038.51247                  21174888.6394
        23.5004         27.0004
  22990209.4634     890627.87047    683154.01346                  22990215.4044
        22.2504         20.7504
  24424381.3854    4343966.31045   3255940.27045                  24424388.2564
        11.5004         10.7504
  23741405.5884    5294442.50746   3965427.46046                  23741411.0614
        19.7504         17.5004
  23225256.7054    4057841.32246   3050941.80546                  23225261.5924
        19.0004         17.5004
  24189241.2054    4388275.52546   3308486.31346                  24189246.6894
        14.5004         13.5004
 02  7 10 17  1 30.0020000  0 11G 2G 3G 6G15G17G18G21G22G23G26G29
  25130572.2524    2741862.85645   1998131.15645                  25130578.8034
        10.0004          9.0004
  24220079.0104     -14975.88645     11776.52445                  24220085.1504
        11.7504         11.0004
  23079502.1434    5654008.50846   4245631.79846                  23079508.0024
        18.7504         18.7504
  21172460.2684    2584038.15048   1912383.96847                  21172465.1314
        29.5004         27.7504
  21370054.1584    3090652.67347   2333713.40047                  21370058.9044
        26.7504         26.2504
  21183117.5494    2200843.31347   1663747.97247                  21183120.9364
        23.7504         27.0004
  22994285.4794     912049.04947    699845.86546                  22994291.3964
        22.0004         20.5004
  24439221.7684    4421952.76945   3316708.90145                  24439228.2954
        11.5004         11.0004
  23758932.1824    5386546.38846   4037196.70346                  23758937.7134
        19.0004         17.2504
  23239585.1584    4133137.45146   3109614.09046                  23239589.9514
        19.2504         17.2504
  24204390.8074    4467885.99446   3370520.43546                  24204396.6074
        14.7504         13.5004
 02  7 10 17  1 45.0020000  0 11G 2G 3G 6G15G17G18G21G22G23G26G29
  25140533.8934    2794216.11145   2038925.86945                  25140541.6784
         9.2504          9.2504
  24221292.2604      -8601.74046     16743.39245                  24221298.3894
        12.2504         11.5004
  23098075.0494    5751608.53146   4321683.70746                  23098080.8734
        18.7504         18.7504
  21181669.7214    2632432.55648   1950093.88747                  21181674.3854
        30.0004         27.7504
  21380715.0804    3146676.02647   2377367.96047                  21380719.9674
        26.5004         26.2504
  21191400.7294    2244370.47747   1697665.24347                  21191404.0214
        23.7504         27.0004
  22998404.7134     933696.94747    716714.37646                  22998410.4904
        21.5004         20.5004
  24454109.4324    4500186.56845   3377670.26545                  24454116.5494
        11.0004         10.7504
  23776493.4944    5478834.14946   4109109.22246                  23776499.6234
        18.5004         17.2504
  23253971.4084    4208737.27346   3168523.03046                  23253976.5414
        19.0004         17.5004
  24219591.3854    4547766.68146   3432765.12046                  24219596.9394
        14.5004         13.5004
 02  7 10 17  2  0.0020000  0 11G 2G 3G 6G15G17G18G21G22G23G26G29
  25150545.1194    2846829.67645   2079923.40945                  25150551.6114
         9.0004          9.0004
  24222545.4944      -2016.27246     21874.96045                  24222550.5214
        12.2504         11.7504
  23116691.1584    5849435.18546   4397912.23146                  23116696.6194
        19.2504         18.2504
  21190920.0804    2681044.92848   1987973.65747                  21190924.9434
        29.2504         27.5004
  21391416.2294    3202909.74547   2421186.43247                  21391421.1974
        26.2504         26.0004
  21199733.3774    2288158.73947   1731785.97247                  21199736.7294
        23.5004         27.0004
  23002566.7134     955566.10347    733755.31146                  23002572.4204
        22.5004         21.0004
  24469041.9944    4578661.88945   3438819.81945                  24469049.1704
        10.7504         10.5004
  23794089.2444    5571300.02946   4181160.53446                  23794095.2794
        18.2504         17.0004
  23268414.3614    4284635.18946   3227664.25546                  23268419.3774
        19.5004         17.2504
  24234841.9004    4627911.85646   3495215.87746                  24234847.5724
        14.0004         13.5004
 02  7 10 17  2 15.0020000  0 11G 2G 3G 6G15G17G18G21G22G23G26G29
  25160606.1824    2899698.24045   2121119.65945                  25160612.4164
         9.2504          9.0004
  24223837.8934       4775.60646     27167.35145                  24223844.3854
        12.2504         11.5004
  23135348.7914    5947482.99546   4474313.08446                  23135354.6864
        18.2504         17.7504
  21200211.1824    2729870.00248   2026019.17047                  21200215.9164
        29.5004         27.7504
  21402156.0024    3259348.68947   2465164.81947                  21402160.9944
        26.2504         26.0004
  21208114.7684    2332202.72847   1766105.96247                  21208118.2364
        23.5004         27.0004
  23006769.3304     977651.19747    750964.49746                  23006775.2834
        22.5004         21.0004
  24484021.1114    4657373.19645   3500153.29445                  24484026.8774
        11.2504         10.2504
  23811718.1044    5663938.59946   4253346.41446                  23811723.9864
        18.7504         17.2504
  23282913.2604    4360825.67046   3287033.44846                  23282918.2994
        19.5004         17.2504
  24250143.4244    4708316.03346   3557868.47446                  24250149.0614
        14.7504         13.0004
 02  7 10 17  2 30.0020000  0 11G 2G 3G 6G15G17G18G21G22G23G26G29
  25170715.2054    2952819.54545   2162512.85745                  25170720.9944
         9.5004          8.7504
  24225169.1354      11772.00146     32619.09846                  24225174.9474
        12.5004         12.0004
  23154048.1824    6045749.51946   4550884.35546                  23154054.2754
        18.2504         18.0004
  21209542.3774    2778905.62348   2064228.74147                  21209547.2644
        29.0004         27.7504
  21412934.5104    3315990.81847   2509301.53447                  21412939.5374
        26.2504         26.0004
  21216544.2834    2376500.25847   1800623.52047                  21216547.4474
        23.7504         27.2504
  23011012.7754     999950.26247    768340.40146                  23011018.3424
        22.7504         21.0004
  24499043.5644    4736317.96945   3561668.66645                  24499050.3504
        11.2504         10.5004
  23829379.0964    5756747.44146   4325664.96846                  23829385.2364
        18.7504         17.2504
  23297466.6354    4437306.34846   3346628.76646                  23297471.9904
        18.7504         17.0004
  24265492.2214    4788976.83146   3620721.01646                  24265498.1394
        14.7504         13.2504
 02  7 10 17  2 45.0020000  0 11G 2G 3G 6G15G17G18G21G22G23G26G29
  25180870.2834    3006182.07345   2204094.05045                  25180876.8694
         9.7504          9.0004
  24226537.1664      18961.91046     38221.66145                  24226543.0614
        12.5004         11.5004
  23172787.1114    6144223.18346   4627617.02346                  23172792.5614
        18.2504         18.2504
  21218911.7604    2828140.52848   2102593.60147                  21218916.5884
        30.0004         27.7504
  21423749.8144    3372824.72347   2553587.68347                  21423754.7254
        26.5004         26.0004
  21225019.8544    2421039.86447   1835329.70647                  21225023.1354
        23.5004         27.2504
  23015294.5964    1022451.97947    785874.22746                  23015300.5254
        22.7504         21.0004
  24514108.1274    4815484.55245   3623356.87645                  24514113.5534
        11.0004         10.7504
  23847070.0334    5849714.94246   4398107.15346                  23847076.0574
        18.7504         17.2504
  23312073.6504    4514065.56846   3406441.12846                  23312078.7014
        19.5004         17.2504
  24280888.2604    4869882.75246   3683764.57146                  24280894.0254
        14.2504         13.2504
 02  7 10 17  3  0.0030000  0 11G 2G 3G 6G15G17G18G21G22G23G26G29
  25191069.4294    3059781.83445   2245860.04645                  25191076.1084
         9.5004          9.0004
  24227941.1474      26338.57646     43969.72445                  24227947.1834
        12.5004         11.2504
  23191565.2884    6242902.82646   4704510.20846                  23191571.2534
        18.0004         17.7504
  21228317.9914    2877570.66048   2141110.58447                  21228322.7614
        30.0004         27.5004
  21434600.9214    3429846.87547   2598020.52747                  21434605.4914
        26.7504         26.0004
  21233540.9294    2465817.17447   1870221.11947                  21233544.2454
        24.0004         27.0004
  23019613.7184    1045150.35147    803561.29446                  23019619.6834
        22.2504         21.0004
  24529215.3664    4894870.35445   3685215.90345                  24529222.0114
        11.5004         10.5004
  23864790.9994    5942839.68846   4470671.87146                  23864796.7064
        18.2504         17.0004
  23326732.9604    4591100.94246   3466468.68446                  23326738.2454
        19.2504         16.7504
  24296330.0384    4951031.41846   3746997.28746                  24296335.5464
        14.7504         13.7504
 02  7 10 17  3 15.0030000  0 11G 2G 3G 6G15G17G18G21G22G23G26G29
  25201311.5694    3113607.79845   2287802.32345                  25201318.6164
         9.0004          9.0004
  24229379.6474      33897.47446     49859.79645                  24229385.7764
        12.7504         11.2504
  23210379.6554    6341771.23446   4781550.47846                  23210385.5154
        18.0004         18.2504
  21237759.0694    2927185.62148   2179771.59347                  21237763.8274
        29.2504         27.7504
  21445485.2884    3487045.81347   2642591.11747                  21445489.9994
        26.0004         26.0004
  21242104.9604    2510822.19847   1905289.96947                  21242108.2064
        23.7504         27.2504
  23023968.7964    1068038.51547    821396.25446                  23023974.6904
        21.7504         21.0004
  24544360.5854    4974460.72945   3747234.34445                  24544366.7614
        10.5004         10.7504
  23882538.8354    6036105.15546   4543346.24346                  23882544.7414
        18.2504         16.7504
  23341441.9684    4668397.95746   3526700.11246                  23341447.1244
        19.2504         17.0004
  24311815.8194    5032407.88646   3810407.50646                  24311821.1754
        14.5004         13.2504
 02  7 10 17  3 30.0030000  0 11G 2G 3G 6G15G17G18G21G22G23G26G29
  25211597.2494    3167658.19045   2329919.51645                  25211602.9334
         8.7504          8.7504
  24230851.1404      41634.28446     55888.48845                  24230856.5304
        12.5004         11.7504
  23229229.5154    6440829.49246   4858738.67746                  23229235.2804
        18.0004         18.0004
  21247235.5694    2976983.54248   2218575.16547                  21247240.3394
        30.0004         27.7504
  21456403.5074    3544420.14847   2687298.38547                  21456408.2184
        26.5004         26.0004
  21250711.7884    2556052.57647   1940534.42247                  21250715.0584
        24.0004         27.0004
  23028359.9834    1091112.69047    839376.14846                  23028365.9014
        22.2504         21.2504
  24559544.7494    5054255.38545   3809411.95545                  24559550.7494
        10.5004         10.5004
  23900313.5694    6129512.08346   4616130.83046                  23900319.7104
        18.0004         17.0004
  23356201.3194    4745956.41346   3587135.26646                  23356206.4994
        19.2504         17.0004
  24327344.6634    5114012.04946   3873995.14746                  24327350.1944
        14.5004         13.7504
 02  7 10 17  3 45.0030000  0 11G 2G 3G 6G15G17G18G21G22G23G26G29
  25221924.4134    3221926.56145   2372206.50545                  25221930.8474
         9.0004          9.2504
  24232356.4444      49542.83346     62051.02045                  24232362.7024
        12.7504         11.5004
  23248114.6794    6540071.01746   4936069.69246                  23248120.5854
        17.5004         18.2504
  21256745.4374    3026958.09048   2257516.37047                  21256750.3474
        29.5004         28.0004
  21467353.4604    3601963.60047   2732137.43247                  21467358.1834
        26.2504         26.0004
  21259360.6164    2601501.89947   1975949.47747                  21259363.8274
        23.7504         27.2504
  23032785.3044    1114366.76347    857496.23246                  23032791.0814
        22.2504         21.2504
  24574766.8824    5134247.59445   3871743.51045                  24574772.9524
        10.7504         11.0004
  23918114.1714    6223053.88146   4689020.51746                  23918120.1474
        18.2504         17.0004
  23371008.5464    4823769.70246   3647768.98546                  23371013.8904
        19.5004         17.2504
  24342915.2804    5195837.54746   3937755.25546                  24342921.1164
        14.0004         13.5004
 02  7 10 17  4  0.0030000  0 11G 2G 3G 6G15G17G18G21G22G23G26G29
  25232292.4604    3276410.69145   2414661.64245                  25232298.7414
         8.7504          8.7504
  24233893.7654      57621.24446     68345.90245                  24233900.1984
        13.2504         11.5004
  23267034.4134    6639493.40546   5013541.63346                  23267040.3314
        18.0004         17.7504
  21266288.2334    3077107.23848   2296593.62547                  21266293.1084
        29.5004         27.5004
  21478335.7574    3659674.13047   2777106.67047                  21478340.6324
        26.7504         26.0004
  21268050.8194    2647167.91047   2011533.37747                  21268053.9604
        24.2504         27.2504
  23037243.7184    1137798.68647    875754.88446                  23037249.3904
        21.7504         21.2504
  24590026.6794    5214434.89145   3934227.09145                  24590033.7144
        10.7504         11.0004
  23935939.9994    6316728.20946   4762013.48346                  23935945.6014
        18.2504         16.7504
  23385864.1164    4901835.54947   3708599.50246                  23385868.9334
        20.0004         17.2504
  24358527.8664    5277881.82846   4001685.85046                  24358533.4684
        14.2504         13.2504
 02  7 10 17  4 15.0030000  0 11G 2G 3G 6G15G17G18G21G22G23G26G29
  25242699.0694    3331100.88045   2457277.32545                  25242705.3624
         8.2504          9.0004
  24235462.0624      65860.41346     74766.05745                  24235467.6284
        13.2504         11.7504
  23285986.2104    6739086.90546   5091146.92046                  23285992.1404
        17.5004         17.5004
  21275862.8124    3127421.48348   2335799.52947                  21275867.6164
        29.2504         27.7504
  21489347.4294    3717542.35147   2822198.78147                  21489352.1754
        26.5004         26.0004
  21276780.0154    2693041.07847   2047278.71047                  21276783.0974
        24.2504         27.2504
  23041734.7964    1161398.91147    894144.69546                  23041740.6554
        22.0004         21.2504
  24605320.9134    5294807.53545   3996855.08845                  24605327.8084
        10.7504         11.0004
  23953789.2414    6410525.36346   4835102.14446                  23953794.7494
        18.0004         16.7504
  23400765.5624    4980144.09646   3769619.13346                  23400770.5424
        19.2504         17.0004
  24374180.1014    5360135.16346   4065779.32146                  24374185.7144
        14.2504         13.7504
 02  7 10 17  4 30.0030000  0 11G 2G 3G 6G15G17G18G21G22G23G26G29
  25253146.4604    3385997.82645   2500054.14945                  25253153.3434
         9.0004          9.7504
  24237060.8664      74261.42246     81312.30645                  24237066.1754
        13.7504         11.7504
  23304970.9444    6838851.99646   5168885.90146                  23304977.1674
        17.5004         17.2504
  21285468.7654    3177901.56548   2375134.66147                  21285473.6284
        29.0004         27.7504
  21500389.7884    3775568.88847   2867414.26347                  21500394.4994
        27.0004         26.0004
  21285548.9214    2739122.16647   2083186.04647                  21285551.9684
        24.2504         27.2504
  23046258.3904    1185168.01347    912666.09446                  23046264.2614
        22.7504         21.5004
  24620650.2574    5375365.86945   4059627.76545                  24620657.2104
        10.5004         10.5004
  23971660.9914    6504445.83746   4908286.91546                  23971666.6514
        17.7504         16.5004
  23415713.4994    5058695.98446   3830828.38346                  23415718.7614
        19.0004         17.0004
  24389872.3514    5442598.24046   4130036.26746                  24389877.6714
        14.0004         13.5004
 02  7 10 17  4 45.0030000  0 11G 2G 3G 6G15G17G18G21G22G23G26G29
  25263630.7574    3441095.96545   2542987.74345                  25263637.4254
         9.5004          8.7504
  24238688.9684      82819.11546     87980.65846                  24238693.8084
        13.5004         12.0004
  23323986.8354    6938782.96046   5246754.14146                  23323992.8704
        17.0004         17.7504
  21295105.5074    3228542.16648   2414594.86747                  21295110.3944
        29.5004         27.5004
  21511460.7574    3833748.46347   2912748.98747                  21511465.5854
        26.2504         26.0004
  21294356.5934    2785405.61047   2119251.06747                  21294359.4644
        24.0004         27.0004
  23050812.3354    1209100.92947    931315.14746                  23050818.3004
        22.2504         21.5004
  24636014.3904    5456104.04545   4122540.61445                  24636019.5934
        10.5004         10.2504
  23989556.1714    6598483.96746   4981563.33846                  23989562.2884
        17.7504         16.5004
  23430706.6164    5137485.38746   3892222.72146                  23430711.8904
        19.2504         17.0004
  24405603.5304    5525265.22046   4194452.06446                  24405609.4134
        14.0004         13.5004
 02  7 10 17  5  0.0030000  0 11G 2G 3G 6G15G17G18G21G22G23G26G29
  25274153.5934    3496393.80645   2586076.93545                  25274160.6874
         9.2504          9.2504
  24240347.3274      91532.24746     94770.12445                  24240352.5074
        13.2504         11.7504
  23343034.8044    7038878.08946   5324750.29646                  23343040.6044
        17.7504         17.7504
  21304772.1084    3279341.87148   2454179.05547                  21304776.8194
        29.0004         27.7504
  21522560.7804    3892079.70947   2958201.89947                  21522565.6674
        26.0004         26.0004
  21303202.3044    2831889.80747   2155472.52147                  21303205.4794
        24.2504         27.0004
  23055397.7654    1233195.96047    950090.51346                  23055403.6834
        22.5004         21.2504
  24651412.4374    5537020.35145   4185592.23645                  24651419.2334
        10.5004         10.5004
  24007472.8974    6692638.06946   5054930.14746                  24007478.8974
        17.7504         16.7504
  23445744.6084    5216510.57046   3953800.76246                  23445749.8474
        19.2504         17.0004
  24421373.3584    5608134.36646   4259025.41546                  24421379.1714
        14.0004         13.7504
 02  7 10 17  5 15.0030000  0 11G 2G 3G 6G15G17G18G21G22G23G26G29
  25284715.2494    3551891.73845   2629322.04245                  25284722.1204
         9.2504          9.2504
  24242034.3824     100401.76946    101681.44046                  24242040.2414
        12.7504         12.0004
  23362113.4684    7139137.68946   5402874.62346                  23362119.4334
        16.7504         17.5004
  21314469.6944    3330301.26548   2493887.67347                  21314474.6984
        30.0004         27.5004
  21533689.5934    3950563.04447   3003773.32547                  21533694.5264
        25.7504         26.0004
  21312086.2414    2878575.19147   2191850.74247                  21312089.2414
        24.5004         27.2504
  23060013.6944    1257453.76247    968992.71946                  23060019.6714
        22.7504         21.5004
  24666844.4834    5618115.03345   4248782.85545                  24666850.9994
        10.5004         10.7504
  24025412.2414    6786908.52346   5128387.61846                  24025417.9954
        18.0004         16.7504
  23460826.7184    5295771.98446   4015562.88146                  23460831.7224
        18.2504         16.7504
  24437181.1244    5691206.07346   4323756.58246                  24437186.8784
        14.2504         13.2504
 02  7 10 17  5 30.0030000  0 11G 2G 3G 6G15G17G18G21G22G23G26G29
  25295312.7334    3607584.62545   2672719.07045                  25295318.7104
         9.2504          8.7504
  24243751.7494     109423.00046    108711.00946                  24243757.5624
        13.0004         12.0004
  23381222.7264    7239556.51446   5481122.99646                  23381228.5384
        17.7504         17.5004
  21324196.2964    3381415.37348   2533716.84747                  21324201.2884
        28.7504         27.5004
  21544846.8904    4009193.65447   3049459.50347                  21544851.5894
        26.2504         26.2504
  21321007.2184    2925456.77447   2228381.84347                  21321010.3354
        24.0004         27.2504
  23064659.3824    1281869.39847    988017.90846                  23064665.4644
        22.5004         21.5004
  24682309.2884    5699382.61045   4312108.19645                  24682316.6164
        10.5004         10.5004
  24043372.1794    6881290.06046   5201931.64946                  24043378.0854
        18.0004         16.5004
  23475954.6794    5375264.39446   4077505.01446                  23475960.2224
        19.2504         16.7504
  24453026.3904    5774475.07446   4388641.50346                  24453032.4604
        13.7504         13.5004
 02  7 10 17  5 45.0030000  0 11G 2G 3G 6G15G17G18G21G22G23G26G29
  25305948.4294    3663472.05645   2716267.71045                  25305955.2724
         9.2504          9.2504
  24245496.7574     118595.96946    115858.79546                  24245502.3944
        13.2504         12.2504
  23400361.9524    7340133.99446   5559495.02346                  23400368.0814
        17.5004         17.5004
  21333952.5224    3432683.97248   2573666.40447                  21333957.4334
        29.5004         27.7504
  21556031.9444    4067971.29047   3095260.26047                  21556036.7264
        26.5004         26.0004
  21329965.9294    2972534.15347   2265065.51847                  21329968.9644
        24.2504         27.0004
  23069335.6794    1306442.50747   1007165.80646                  23069341.5734
        22.7504         21.7504
  24697806.0464    5780822.53645   4375567.85045                  24697811.9644
        10.0004         10.2504
  24061353.6794    6975782.13746   5275561.81046                  24061359.0344
        18.2504         16.7504
  23491125.0384    5454987.15946   4139626.62446                  23491130.0544
        18.7504         16.5004
  24468909.4054    5857940.84646   4453679.74846                  24468915.2654
        13.2504         13.2504
 02  7 10 17  6  0.0030000  0 11G 2G 3G 6G15G17G18G21G22G23G26G29
  25316620.0934    3719551.46245   2759965.89945                  25316626.0584
         9.7504          9.2504
  24247271.0464     127918.57846    123123.18246                  24247276.5194
        13.2504         12.5004
  23419531.0224    7440867.52946   5637988.62746                  23419537.1634
        17.0004         17.5004
  21343737.3194    3484104.70848   2613734.50447                  21343742.1834
        29.2504         27.5004
  21567244.6084    4126893.70447   3141173.81547                  21567249.2964
        26.2504         26.0004
  21338961.2104    3019804.84747   2301899.82347                  21338964.3514
        23.7504         27.0004
  23074041.4764    1331170.70547   1026434.54846                  23074047.2414
        23.2504         21.5004
  24713336.6084    5862432.15045   4439159.72945                  24713343.3474
        10.2504         10.5004
  24079355.6554    7070382.15746   5349276.08946                  24079361.6904
        18.2504         16.7504
  23506338.9764    5534937.77046   4201925.79746                  23506343.9334
        18.2504         16.2504
  24484829.6244    5941600.71246   4518869.23646                  24484835.3434
        13.2504         13.0004
 02  7 10 17  6 15.0030000  0 11G 2G 3G 6G15G17G18G21G22G23G26G29
  25327327.8904    3775823.84445   2803814.47845                  25327335.0894
         9.2504          9.0004
  24249074.0934     137392.16246    130505.22846                  24249080.0464
        13.5004         12.2504
  23438729.9134    7541757.88846   5716604.44746                  23438736.0774
        17.0004         17.2504
  21353551.8124    3535678.81448   2653922.11947                  21353556.6044
        29.5004         27.7504
  21578484.2804    4185961.88847   3187200.96647                  21578489.3194
        25.2504         25.7504
  21347993.1474    3067269.79047   2338885.49347                  21347996.3474
        23.5004         27.0004
  23078776.6474    1356055.08747   1045824.99846                  23078782.4724
        23.0004         21.7504
  24728897.9834    5944212.18045   4502884.38145                  24728904.0424
        10.0004         10.7504
  24097378.1404    7165090.96546   5423075.13346                  24097384.0934
        18.5004         16.5004
  23521596.8434    5615117.01146   4264403.11546                  23521601.9764
        18.5004         16.5004
  24500786.3044    6025455.63746   4584210.70346                  24500792.4794
        13.0004         12.7504
 02  7 10 17  6 30.0030000  0 11G 2G 3G 6G15G17G18G21G22G23G26G29
  25338072.0464    3832285.46245   2847810.56045                  25338077.0734
         9.0004          8.7504
  24250905.0304     147013.33546    138002.27246                  24250910.0344
        13.5004         12.5004
  23457957.6794    7642801.12946   5795339.39346                  23457963.7144
        17.0004         17.2504
  21363394.2884    3587402.64248   2694226.39347                  21363399.0224
        29.0004         27.5004
  21589752.0464    4245172.25147   3233338.89847                  21589757.2494
        26.0004         26.0004
  21357061.9214    3114925.35847   2376019.70047                  21357065.0504
        23.7504         27.0004
  23083541.1554    1381091.92747   1065334.24346                  23083547.1554
        23.2504         21.7504
  24744492.9684    6026158.48845   4566738.58845                  24744498.6164
        10.7504         10.2504
  24115420.6404    7259904.69346   5496955.94446                  24115426.3234
        18.0004         16.7504
  23536897.6404    5695520.95846   4327055.53346                  23536902.3744
        19.2504         16.7504
  24516779.8744    6109501.49846   4649700.95446                  24516785.9214
        13.0004         12.7504
 02  7 10 17  6 45.0030000  0 11G 2G 3G 6G15G17G18G21G22G23G26G29
  25348852.8434    3888939.22845   2891956.28545                  25348858.9724
         8.5004          9.5004
  24252764.2184     156785.51046    145616.96746                  24252769.9014
        13.5004         12.7504
  23477215.2804    7744000.02146   5874195.61746                  23477220.9054
        17.5004         17.7504
  21373266.5384    3639279.21848   2734649.70047                  21373271.3544
        29.7504         27.7504
  21601046.9444    4304527.92147   3279590.06147                  21601052.1474
        25.5004         25.7504
  21366167.2884    3162774.40147   2413304.66547                  21366170.5224
        23.7504         27.0004
  23088334.8904    1406284.41147   1084964.76646                  23088340.6204
        23.0004         22.0004
  24760118.2334    6108273.90445   4630724.60245                  24760124.9014
         9.7504         10.2504
  24133483.5774    7354826.14546   5570920.68346                  24133489.6364
        18.0004         16.5004
  23552241.2654    5776152.41646   4389885.21746                  23552246.3154
        18.5004         16.2504
  24532810.4214    6193741.23446   4715342.28846                  24532816.1514
        13.0004         12.7504
 02  7 10 17  7  0.0030000  0 11G 2G 3G 6G15G17G18G21G22G23G26G29
  25359670.5854    3945784.67045   2936251.43445                  25359676.7024
         9.2504          8.7504
  24254651.9294     166708.57746    153349.25046                  24254656.9444
        13.2504         12.2504
  23496502.6554    7845353.98546   5953172.68546                  23496508.3744
        17.5004         17.5004
  21383166.8124    3691308.30748   2775191.83647                  21383171.6634
        29.0004         27.5004
  21612369.7654    4364028.70647   3325954.30547                  21612374.9444
        25.5004         25.7504
  21375309.4994    3210816.57747   2450740.12747                  21375312.8274
        24.0004         27.0004
  23093158.6324    1431632.28547   1104716.38046                  23093164.5624
        23.2504         22.0004
  24775776.7104    6190557.72445   4694841.84645                  24775783.4834
        10.0004         10.0004
  24151567.0154    7449854.80846   5644968.96846                  24151572.8974
        18.0004         16.2504
  23567627.4834    5857010.79846   4452891.74146                  23567632.6284
        17.7504         16.5004
  24548877.2654    6278174.26846   4781134.25846                  24548883.1474
        12.7504         12.2504
 02  7 10 17  7 15.0030000  0 11G 2G 3G 6G15G17G18G21G22G23G26G29
  25370523.4684    4002819.42645   2980694.06245                  25370530.5854
         9.0004          9.0004
  24256568.5154     176780.61646    161197.60246                  24256574.4794
        12.7504         12.0004
  23515818.5154    7946860.53446   6032268.65846                  23515824.6084
        16.7504         17.0004
  21393096.3354    3743487.67548   2815851.08547                  21393101.1044
        29.2504         27.5004
  21623719.2104    4423672.23447   3372429.77847                  21623724.2144
        25.2504         25.7504
  21384487.7184    3259049.55747   2488324.26947                  21384490.8944
        23.7504         26.7504
  23098011.3824    1457133.17947   1124587.22646                  23098017.3004
        23.5004         22.2504
  24791465.4834    6273007.33945   4759088.23845                  24791472.4954
         9.2504         10.5004
  24169670.3194    7544988.17546   5719098.83846                  24169676.4484
        18.0004         16.2504
  23583057.1794    5938093.64446   4516073.16146                  23583062.2764
        18.2504         16.2504
  24564981.1474    6362798.09146   4847074.86446                  24564985.7294
        13.2504         12.2504
 02  7 10 17  7 30.0030000  0 11G 2G 3G 6G15G17G18G21G22G23G26G29
  25381412.7724    4060038.80845   3025280.58145                  25381419.7494
         9.5004          9.7504
  24258513.6164     186997.34546    169158.70946                  24258519.3584
        13.2504         12.5004
  23535162.7024    8048514.81346   6111479.73346                  23535168.4214
        17.0004         17.2504
  21403053.6084    3795812.75148   2856623.86347                  21403058.3664
        29.7504         27.7504
  21635095.7574    4483454.03247   3419012.99747                  21635100.9254
        25.5004         25.7504
  21393701.5774    3307468.63747   2526053.42147                  21393704.8004
        23.5004         27.0004
  23102892.3194    1482782.63647   1144573.82746                  23102898.3084
        23.7504         22.0004
  24807186.8664    6355617.80345   4823459.99745                  24807192.6904
        10.0004         10.0004
  24187792.6084    7640221.42946   5793306.53646                  24187798.5154
        17.7504         16.2504
  23598528.6014    6019396.08046   4579425.69446                  23598533.8974
        18.0004         16.2504
  24581119.5074    6447607.84246   4913160.34746                  24581125.2374
        13.0004         12.5004
 02  7 10 17  7 45.0030000  0 11G 2G 3G 6G15G17G18G21G22G23G26G29
  25392335.8904    4117442.81645   3070010.92645                  25392342.4644
         9.5004          9.2504
  24260484.9214     197359.26746    177232.94846                  24260490.5114
        13.5004         12.7504
  23554535.1014    8150316.74646   6190805.86646                  23554541.2654
        16.7504         17.2504
  21413038.4374    3848283.72648   2897510.33747                  21413043.1944
        29.7504         27.5004
  21646497.9214    4543374.31547   3465704.11646                  21646503.0894
        25.0004         25.5004
  21402950.8044    3356073.81847   2563927.58747                  21402953.8744
        23.2504         26.7504
  23107801.1874    1508580.87347   1164676.36846                  23107806.8474
        23.2504         22.2504
  24822937.5304    6438388.96345   4887956.95945                  24822943.6834
        10.0004          9.7504
  24205933.6014    7735554.49146   5867592.01646                  24205939.3434
        18.0004         16.2504
  23614041.7804    6100917.97946   4642949.24646                  23614047.5814
        18.0004         16.2504
  24597293.5624    6532603.37646   4979390.61346                  24597299.8544
        12.7504         12.2504
 02  7 10 17  8  0.0030000  0 11G 2G 3G 6G15G17G18G21G22G23G26G29
  25403294.4524    4175032.06145   3114885.65645                  25403301.3824
         9.0004          8.7504
  24262485.1874     207867.25246    185421.03146                  24262490.9874
        14.2504         12.7504
  23573935.6244    8252266.73946   6270247.37246                  23573941.7184
        17.2504         16.7504
  21423051.2414    3900901.35248   2938511.07947                  21423055.9294
        29.7504         27.5004
  21657926.8974    4603433.78947   3512503.69547                  21657932.0544
        25.2504         25.7504
  21412235.7184    3404865.66947   2601947.21247                  21412238.8944
        23.7504         26.7504
  23112739.2884    1534528.52447   1184895.33146                  23112744.7964
        24.2504         22.2504
  24838719.1554    6521321.13045   4952579.40245                  24838725.9054
        10.0004         10.0004
  24224094.1404    7830987.81446   5941955.61846                  24224099.8944
        18.0004         16.2504
  23629597.0154    6182659.81446   4706644.16946                  23629602.1014
        18.2504         16.5004
  24613503.2264    6617785.19446   5045766.03846                  24613509.0384
        12.5004         12.2504
 02  7 10 17  8 15.0030000  0 11G 2G 3G 6G15G17G18G21G22G23G26G29
  25414288.9054    4232805.60145   3159903.94445                  25414297.0544
         9.5004          9.0004
  24264512.0384     218520.97546    193722.64946                  24264517.8274
        14.0004         12.7504
  23593364.0854    8354363.75146   6349803.43546                  23593369.6404
        17.2504         17.0004
  21433091.9134    3953664.92948   2979625.54747                  21433096.7654
        29.7504         27.7504
  21669382.0934    4663631.75747   3559411.19347                  21669387.2724
        25.2504         25.7504
  21421555.5694    3453843.41647   2640111.69147                  21421558.6634
        23.5004         26.7504
  23117704.9524    1560624.75847   1205230.07646                  23117710.5654
        23.7504         22.2504
  24854530.9374    6604413.19145   5017326.44245                  24854538.3584
         9.5004         10.0004
  24242273.1404    7926520.41346   6016396.56946                  24242279.0464
        17.7504         16.0004
  23645193.3434    6264620.56346   4770509.66446                  23645198.4524
        18.0004         16.2504
  24629747.9294    6703152.18846   5112285.75946                  24629753.5544
        12.5004         12.0004
 02  7 10 17  8 30.0030000  0 11G 2G 3G 6G15G17G18G21G22G23G26G29
  25425318.2024    4290766.32145   3205068.14745                  25425326.8784
         9.2504          9.0004
  24266567.7724     229323.80046    202140.44846                  24266573.4094
        13.5004         12.7504
  23612820.9214    8456610.58246   6429476.25246                  23612826.8974
        16.5004         16.7504
  21443160.8044    4006577.63748   3020856.22747                  21443165.5624
        29.7504         27.7504
  21680864.3194    4723971.36347   3606429.05547                  21680869.3824
        25.2504         25.7504
  21430911.6554    3503010.02947   2678423.33747                  21430914.8664
        23.5004         26.7504
  23122699.8974    1586872.59047   1225682.94746                  23122705.4644
        24.0004         22.2504
  24870373.9134    6687667.84845   5082200.10545                  24870380.7224
         9.5004          9.5004
  24260472.5304    8022155.11946   6090917.09646                  24260478.5654
        18.0004         16.2504
  23660831.6554    6346803.08146   4834547.97046                  23660837.1634
        17.2504         16.2504
  24646028.1244    6788707.38445   5178952.12046                  24646035.1124
        11.7504         12.0004
 02  7 10 17  8 45.0030000  0 11G 2G 3G 6G15G17G18G21G22G23G26G29
  25436383.0544    4348912.32745   3250376.69345                  25436390.1944
         9.2504          9.2504
  24268650.9294     240274.29046    210673.31646                  24268656.7884
        13.2504         12.7504
  23632306.2494    8559005.15546   6509264.17046                  23632312.2614
        17.0004         16.7504
  21453257.9604    4059637.68848   3062201.71847                  21453262.6474
        30.0004         27.7504
  21692373.5224    4784450.86347   3653555.93146                  21692378.4914
        25.7504         25.5004
  21440303.3584    3552363.59747   2716880.66347                  21440306.4644
        23.2504         26.5004
  23127723.0154    1613270.26747   1246252.58246                  23127728.7334
        23.5004         22.2504
  24886247.0154    6771082.97045   5147198.90145                  24886252.7334
         9.7504          9.7504
  24278690.1014    8117889.88046   6165515.59146                  24278695.7964
        18.5004         16.5004
  23676512.8514    6429205.19746   4898757.40146                  23676518.5114
        17.7504         16.0004
  24662343.7264    6874448.48245   5245763.33145                  24662349.6324
        11.5004         11.2504
 02  7 10 17  9  0.0030000  0 11G 2G 3G 6G15G17G18G21G22G23G26G29
  25447483.1084    4407243.13445   3295829.23445                  25447490.8124
         9.2504          9.5004
  24270762.9374     251372.26246    219321.11646                  24270769.0774
        13.2504         13.0004
  23651819.2264    8661546.81046   6589166.71746                  23651824.8154
        17.2504         16.7504
  21463382.6714    4112844.80548   3103661.80647                  21463387.5224
        29.5004         27.7504
  21703909.0384    4845069.99347   3700791.60746                  21703913.9834
        25.2504         25.2504
  21449730.4914    3601903.61647   2755483.27947                  21449733.6084
        23.5004         26.5004
  23132774.8124    1639817.50447   1266938.76546                  23132780.6834
        23.7504         22.0004
  24902151.6084    6854657.86045   5212322.14245                  24902158.2764
         9.7504         10.2504
  24296926.4994    8213724.15846   6240191.63646                  24296931.9254
        17.7504         16.2504
  23692235.0624    6511826.38346   4963137.52546                  23692240.5224
        17.5004         16.0004
  24678695.4524    6960374.98445   5312719.03045                  24678701.4404
        11.7504         11.0004
 02  7 10 17  9 15.0030000  0 11G 2G 3G 6G15G17G18G21G22G23G26G29
  25458619.2414    4465759.75545   3341426.57745                  25458626.7334
         9.2504          8.7504
  24272903.6794     262619.10146    228084.90846                  24272909.4444
        14.0004         13.0004
  23671360.0774    8764236.38646   6669184.51846                  23671365.9014
        16.5004         16.5004
  21473536.2414    4166200.13248   3145237.38147                  21473541.0344
        30.0004         27.7504
  21715471.2024    4905829.81947   3748136.92146                  21715476.1364
        25.2504         25.2504
  21459193.3824    3651631.29047   2794232.11647                  21459196.5814
        23.2504         26.5004
  23137855.3664    1666515.50647   1287742.41746                  23137861.0034
        23.5004         22.2504
  24918084.9214    6938393.34345   5277570.52145                  24918090.3124
         9.5004         10.0004
  24315182.3354    8309658.93146   6314945.98046                  24315187.9254
        17.2504         15.5004
  23707999.3514    6594667.49346   5027689.02846                  23708005.2694
        17.5004         15.7504
  24695082.4524    7046487.77246   5379819.88745                  24695088.5344
        12.5004         11.7504
 02  7 10 17  9 30.0030000  0 11G 2G 3G 6G15G17G18G21G22G23G26G29
  25469788.9834    4524459.20745   3387166.41145                  25469797.7654
         9.2504          9.2504
  24275072.3044     274012.41346    236962.83746                  24275077.6594
        14.5004         13.0004
  23690929.1164    8867070.82946   6749315.21346                  23690935.0464
        17.0004         16.5004
  21483716.7024    4219700.89648   3186926.27847                  21483721.4484
        29.5004         27.7504
  21727059.0304    4966727.69247   3795589.79946                  21727064.2694
        24.2504         25.2504
  21468691.7654    3701543.62947   2833124.84847                  21468694.8584
        23.7504         26.2504
  23142964.3124    1693361.54147   1308661.42146                  23142970.1594
        24.5004         22.0004
  24934048.6164    7022286.21745   5342941.57245                  24934054.9334
         9.5004          9.5004
  24333456.9684    8405691.15046   6389776.24246                  24333462.9334
        17.5004         15.7504
  23723804.6404    6677725.45946   5092409.50946                  23723810.1124
        17.5004         15.7504
  24711503.7884    7132783.73146   5447063.45745                  24711509.3904
        12.0004         11.7504
 02  7 10 17  9 45.0030000  0 11G 2G 3G 6G15G17G18G21G22G23G26G29
  25480993.3824    4583343.35045   3433050.10645                  25481000.0854
         8.7504          9.2504
  24277268.4134     285554.36846    245956.57546                  24277274.2374
        14.2504         12.7504
  23710526.2104    8970051.81346   6829560.08046                  23710532.1514
        17.2504         16.7504
  21493926.0154    4273349.14248   3228730.10347                  21493930.6674
        30.2504         27.7504
  21738674.5694    5027765.50747   3843151.71846                  21738679.9374
        25.0004         25.2504
  21478225.3974    3751642.41047   2872162.85747                  21478228.5504
        23.7504         26.2504
  23148100.9134    1720357.45647   1329697.21746                  23148106.8194
        23.5004         22.0004
  24950044.0154    7106338.08045   5408436.46845                  24950051.0504
        10.0004         10.2504
  24351750.3434    8501822.50346   6464683.75946                  24351755.9914
        17.2504         15.7504
  23739652.0154    6761001.99946   5157300.30446                  23739657.4524
        18.0004         16.2504
  24727960.8274    7219264.52746   5514451.07845                  24727966.1594
        12.5004         11.7504
 02  7 10 17 10  0.0030000  0 11G 2G 3G 6G15G17G18G21G22G23G26G29
  25492235.3584    4642414.04645   3479079.17645                  25492242.2024
         9.2504          9.2504
  24279492.8194     297247.20246    255067.89246                  24279498.4684
        14.0004         13.0004
  23730150.3274    9073181.07646   6909920.50246                  23730156.2454
        16.2504         16.5004
  21504163.2264    4327146.79348   3270650.34347                  21504168.1124
        29.7504         27.7504
  21750316.6164    5088945.49347   3890824.43846                  21750321.7964
        24.7504         25.5004
  21487794.2804    3801929.49347   2911347.60247                  21487797.4334
        23.2504         26.5004
  23153266.8274    1747505.28147   1350851.39546                  23153272.4054
        23.2504         22.2504
  24966069.3824    7190550.64245   5474056.63145                  24966077.0974
        10.0004         10.2504
  24370062.3904    8598054.79946   6539669.94646                  24370067.9564
        17.0004         15.2504
  23755540.6084    6844498.69046   5222362.62546                  23755545.9874
        17.7504         16.0004
  24744453.2574    7305931.90346   5581984.08445                  24744459.6084
        12.5004         11.7504
 02  7 10 17 10 15.0040000  0 11G 2G 3G 6G15G17G18G21G22G23G26G29
  25503510.0194    4701668.80345   3525251.71745                  25503517.8054
         8.7504          8.7504
  24281745.6214     309085.74846    264292.76646                  24281751.7624
        14.0004         12.7504
  23749804.0664    9176459.00946   6990396.74846                  23749809.6684
        16.7504         16.0004
  21514428.5984    4381091.25848   3312684.98647                  21514433.3324
        30.2504         27.7504
  21761985.6054    5150265.32847   3938606.11146                  21761990.7734
        25.0004         25.5004
  21497399.0354    3852401.97447   2950676.80947                  21497402.1294
        23.5004         26.5004
  23158461.4414    1774800.67747   1372120.54446                  23158467.0084
        24.2504         22.2504
  24982124.9184    7274922.82245   5539801.15145                  24982131.8484
        10.2504          9.7504
  24388393.8944    8694387.97646   6614734.73446                  24388399.7074
        16.5004         15.2504
  23771471.4734    6928214.75946   5287595.92946                  23771477.0044
        17.7504         16.0004
  24760980.5044    7392785.19846   5649661.95245                  24760986.2814
        12.2504         11.5004
 02  7 10 17 10 30.0040000  0 11G 2G 3G 6G15G17G18G21G22G23G26G29
  25514820.5044    4761099.68845   3571561.48645                  25514828.0434
         9.2504          9.2504
  24284026.1134     321068.81746    273630.23846                  24284031.8204
        14.0004         13.0004
  23769482.6444    9279871.64246   7070977.98646                  23769488.6804
        16.7504         16.0004
  21524720.1764    4435175.52348   3354828.56747                  21524724.9694
        29.5004         27.7504
  21773679.5984    5211717.05347   3986490.56346                  21773684.6134
        25.0004         25.5004
  21507037.5664    3903053.16047   2990145.26247                  21507040.5784
        23.5004         26.2504
  23163682.9344    1802239.91847   1393501.79546                  23163688.4064
        23.7504         22.2504
  24998208.5984    7359443.06745   5605661.02845                  24998216.1844
         9.7504         10.2504
  24406742.2774    8790809.09046   6689868.04746                  24406747.9844
        16.7504         15.2504
  23787441.8874    7012138.77546   5352991.24846                  23787447.4304
        17.5004         16.0004
  24777541.8714    7479812.62146   5717475.51845                  24777547.4024
        12.2504         11.5004
 02  7 10 17 10 45.0040000  0 11G 2G 3G 6G15G17G18G21G22G23G26G29
  25526163.9104    4820714.95445   3618014.89145                  25526172.1524
         8.7504          8.7504
  24286334.9024     333201.98446    283084.67346                  24286340.9374
        14.2504         12.7504
  23789188.8554    9383430.02046   7151672.78546                  23789194.9844
        16.2504         16.0004
  21535040.3324    4489407.67548   3397087.37547                  21535045.1954
        30.0004         27.7504
  21785399.7384    5273309.15647   4034484.40446                  21785404.9184
        24.5004         25.5004
  21516711.5904    3953890.61647   3029758.86747                  21516714.8014
        23.5004         26.2504
  23168932.9964    1829829.24247   1414999.99446                  23168938.5744
        23.7504         22.2504
  25014322.7464    7444121.16845   5671643.92045                  25014329.1214
        10.2504         10.2504
  24425109.4964    8887328.67746   6765078.09446                  24425115.4144
        17.0004         15.5004
  23803452.5354    7096280.50346   5418556.20746                  23803458.3594
        17.0004         15.7504
  24794136.7464    7567024.11346   5785432.49845                  24794142.1484
        12.2504         11.7504
 02  7 10 17 11  0.0040000  0 11G 2G 3G 6G15G17G18G21G22G23G26G29
  25537544.3484    4880514.36745   3664611.82145                  25537550.7114
         9.0004          8.7504
  24288672.5594     345485.45946    292656.24146                  24288678.5704
        14.2504         13.0004
  23808923.7384    9487133.76346   7232480.85246                  23808929.5984
        16.5004         15.5004
  21545388.6444    4543787.60648   3439461.34347                  21545393.3674
        30.2504         28.0004
  21797147.2154    5335041.69047   4082587.66746                  21797152.6764
        24.7504         25.2504
  21526421.0354    4004914.14847   3069517.46547                  21526424.0704
        23.0004         26.2504
  23174211.3484    1857568.39547   1436614.93646                  23174217.0084
        23.5004         22.2504
  25030464.9654    7528956.62545   5737749.42245                  25030472.3524
         9.2504          9.7504
  24443495.6444    8983946.44146   6840364.64646                  24443501.3874
        17.0004         15.5004
  23819506.1844    7180639.47446   5484290.46246                  23819511.7974
        17.5004         16.0004
  24810768.8634    7654419.33646   5853532.65545                  24810774.7344
        13.2504         11.7504
 02  7 10 17 11 15.0040000  0 11G 2G 3G 6G15G17G18G21G22G23G26G29
  25548958.2544    4940499.14745   3711353.18945                  25548965.2194
         8.5004          9.5004
  24291038.8634     357920.95746    302346.25746                  24291045.0624
        14.2504         13.0004
  23828684.6994    9590983.96146   7313403.04446                  23828690.7464
        15.0004         15.5004
  21555765.1374    4598316.81248   3481951.62847                  21555769.9304
        30.2504         28.2504
  21808921.6604    5396916.06447   4130801.45546                  21808926.6994
        25.0004         25.2504
  21536166.3404    4056125.10847   3109422.11247                  21536169.4104
        23.2504         26.2504
  23179518.2774    1885458.94747   1458347.84846                  23179524.1254
        23.0004         22.0004
  25046640.1994    7613950.50945   5803978.37345                  25046646.7154
         9.7504          9.2504
  24461900.0824    9080663.56946   6915728.60846                  24461905.7194
        16.7504         15.5004
  23835600.9804    7265216.87146   5550194.91646                  23835605.7854
        17.7504         16.0004
  24827434.5904    7741999.43746   5921776.85446                  24827440.6254
        13.2504         12.0004
 02  7 10 17 11 30.0040000  0 11G 2G 3G 6G15G17G18G21G22G23G26G29
  25560407.2154    5000664.83045   3758235.50345                  25560414.1444
         8.5004          8.7504
  24293433.1444     370504.45246    312151.60146                  24293439.0514
        13.7504         12.7504
  23848474.3944    9694976.07146   7394435.79246                  23848480.3484
        16.0004         16.0004
  21566169.1294    4652991.03848   3524554.90747                  21566173.8284
        30.0004         28.0004
  21820721.9574    5458927.99347   4179122.43346                  21820727.2424
        25.0004         25.5004
  21545945.9964    4107519.04847   3149469.33947                  21545949.0314
        23.2504         26.2504
  23184853.8714    1913496.76247   1480195.52246                  23184859.7304
        23.2504         22.0004
  25062843.0434    7699098.07145   5870327.11445                  25062850.5004
         9.5004         10.2504
  24480322.5594    9177475.57246   6991166.50546                  24480328.4064
        16.5004         15.2504
  23851736.1374    7350008.13546   5616266.01446                  23851741.1874
        17.5004         16.0004
  24844134.6844    7829759.73046   5990161.49245                  24844140.0744
        13.2504         11.7504
 02  7 10 17 11 45.0040000  0 11G 2G 3G 6G15G17G18G21G22G23G26G29
  25571891.1374    5061012.69745   3805259.77545                  25571898.6174
         8.5004          8.5004
  24295856.1684     383237.62346    322073.56946                  24295861.9454
        13.7504         13.0004
  23868290.8874    9799111.23446   7475580.04546                  23868297.0394
        16.2504         15.7504
  21576601.3634    4707811.68348   3567272.28847                  21576605.9924
        30.2504         28.0004
  21832549.3244    5521078.99647   4227551.77746                  21832554.3054
        25.2504         25.5004
  21555761.4494    4159097.35247   3189660.22547                  21555764.4374
        23.5004         26.2504
  23190217.8794    1941683.11947   1502158.92946                  23190223.4694
        23.5004         22.2504
  25079075.8094    7784400.49045   5936796.46645                  25079082.5704
         9.7504          9.5004
  24498763.9184    9274383.62046   7066679.24946                  24498769.9534
        16.7504         15.5004
  23867912.5434    7435014.44746   5682504.68646                  23867917.7234
        18.2504         16.0004
  24860869.7624    7917701.45346   6058687.49546                  24860874.8124
        14.0004         12.2504
 02  7 10 17 12  0.0040000  0 11G 2G 3G 6G15G17G18G21G22G23G26G29
  25583410.2934    5121543.97445   3852427.01245                  25583417.2234
         8.7504          9.0004
  24298307.9884     396122.17346    332113.50446                  24298313.5554
        14.0004         12.7504
  23888134.9104    9903390.53846   7556836.59446                  23888140.9224
        16.2504         15.7504
  21587061.6294    4762780.22648   3610104.91347                  21587066.3284
        30.2504         28.0004
  21844402.7774    5583370.57647   4276090.66547                  21844408.1684
        25.0004         26.0004
  21565611.4264    4210861.18247   3229995.67847                  21565614.5554
        23.2504         26.2504
  23195610.2384    1970019.36947   1524239.14146                  23195615.6874
        24.0004         22.2504
  25095337.5354    7869858.78945   6003387.29845                  25095344.0044
         9.5004          9.7504
  24517223.1134    9371388.85046   7142267.71646                  24517229.6414
        16.7504         15.7504
  23884129.5514    7520236.84246   5748911.73046                  23884134.7544
        17.7504         16.0004
  24877638.6134    8005825.67446   6127355.69646                  24877643.7114
        13.2504         12.0004
 02  7 10 17 12 15.0040000  0 11G 2G 3G 6G15G17G18G21G22G23G26G29
  25594962.7774    5182256.40245   3899735.34445                  25594970.0594
         8.0004          8.0004
  24300788.3714     409156.22146    342269.92646                  24300794.7344
        13.5004         12.7504
  23908004.9734   10007811.55946   7638203.56846                  23908010.6804
        16.0004         15.0004
  21597549.1764    4817894.49048   3653051.09047                  21597553.8634
        29.7504         28.0004
  21856282.8244    5645800.38247   4324737.25447                  21856288.1684
        25.0004         25.7504
  21575496.6604    4262808.33947   3270473.98247                  21575499.7304
        23.2504         26.2504
  23201030.3554    1998503.28747   1546434.41946                  23201035.7814
        23.7504         22.2504
  25111630.2624    7955470.32245   6070097.57245                  25111636.8594
        10.5004          9.7504
  24535700.6764    9468488.88346   7217930.05446                  24535706.5824
        16.5004         15.0004
  23900387.4344    7605672.91946   5815485.28646                  23900392.6134
        17.7504         16.2504
  24894443.1134    8094130.05246   6196164.27345                  24894448.4804
        13.5004         11.7504
 02  7 10 17 12 30.0040000  0 11G 2G 3G 6G15G17G18G21G22G23G26G29
  25606549.7854    5243148.12245   3947183.39045                  25606556.9734
         8.2504          8.5004
  24303296.4104     422338.48146    352541.83646                  24303302.7154
        14.0004         13.2504
  23927902.2624   10112372.39846   7719679.48446                  23927908.2974
        15.2504         15.0004
  21608064.9964    4873152.91448   3696109.59647                  21608069.7894
        30.2504         28.0004
  21868188.7304    5708366.96047   4373490.42747                  21868194.0274
        25.2504         25.7504
  21585416.6684    4314937.03647   3311093.75047                  21585419.9614
        23.7504         26.0004
  23206478.0194    2027133.38647   1568743.60746                  23206483.4694
        23.0004         22.2504
  25127949.2304    8041233.16345   6136925.69745                  25127955.2074
         9.7504         10.0004
  24554196.0434    9565681.90846   7293664.85446                  24554202.1024
        16.2504         15.2504
  23916685.7304    7691320.66346   5882223.77046                  23916690.9224
        17.7504         16.0004
  24911280.1294    8182612.63146   6265111.73145                  24911285.2974
        13.2504         11.7504
 02  7 10 17 12 45.0040000  0 11G 2G 3G 6G15G17G18G21G22G23G26G29
  25618172.7934    5304223.54745   3994774.63945                  25618180.4144
         8.0004          8.7504
  24305834.4494     435673.80046    362933.01846                  24305840.3794
        14.2504         13.0004
  23947827.1914   10217077.38446   7801267.74946                  23947833.1214
        16.0004         15.2504
  21618608.3014    4928560.20848   3739284.10347                  21618612.9064
        30.0004         28.0004
  21880121.8164    5771075.04847   4422353.85447                  21880127.3014
        25.2504         25.7504
  21595371.9104    4367251.86447   3351858.55347                  21595375.0394
        23.2504         26.2504
  23211955.2074    2055914.37947   1591170.37646                  23211961.1604
        23.2504         22.2504
  25144298.1524    8127151.61345   6203875.08545                  25144309.8164
         9.2504          9.7504
  24572709.3014    9662972.29346   7369475.52146                  24572715.3834
        16.2504         15.2504
  23933025.4104    7777184.51046   5949130.65446                  23933030.7894
        18.5004         16.0004
  24928152.7544    8271277.67846   6334201.35145                  24928158.4144
        13.5004         11.5004
 02  7 10 17 13  0.0040000  0 11G 2G 3G 6G15G17G18G21G22G23G26G29
  25629830.0514    5365480.67545   4042507.44445                  25629836.0274
         8.0004          8.5004
  24308400.8014     449160.65146    373442.26746                  24308407.2814
        14.5004         13.2504
  23967779.1294   10321924.35246   7882966.63946                  23967784.8594
        16.2504         16.0004
  21629180.0354    4984114.53048   3782573.17547                  21629184.7694
        30.5004         28.0004
  21892081.3094    5833922.64547   4471325.99247                  21892086.6764
        25.0004         25.7504
  21605361.8944    4419750.79747   3392766.81547                  21605364.9654
        23.2504         26.0004
  23217460.7384    2084844.45447   1613713.30546                  23217466.2584
        24.2504         22.2504
  25160677.9884    8213223.33945   6270943.89145                  25160689.6524
         9.5004          7.2504
  24591241.8404    9760357.95846   7445360.41946                  24591248.2154
        16.7504         15.2504
  23949405.0514    7863262.28146   6016204.22746                  23949410.5234
        18.0004         16.0004
  24945059.5664    8360123.18546   6403431.60045                  24945064.6994
        13.5004         11.5004
 02  7 10 17 13 15.0040000  0 11G 2G 3G 6G15G17G18G21G22G23G26G29
  25641521.1604    5426916.88245   4090379.75445                  25641528.5704
         8.7504          8.5004
  24310995.3484     462796.95146    384067.97446                  24311001.8404
        14.2504         13.5004
  23987757.3014   10426910.59146   7964774.04246                  23987763.4414
        15.5004         15.7504
  21639779.2934    5039813.52848   3825974.98747                  21639784.1564
        30.5004         28.0004
  21904067.0664    5896907.50647   4520405.09847                  21904072.3054
        25.5004         25.7504
  21615386.4884    4472431.08747   3433816.38447                  21615389.3944
        23.0004         26.0004
  23222993.4264    2113920.99247   1636370.36746                  23222999.1564
        23.5004         22.2504
  25177085.2694    8299445.61645   6338130.10245                  25177092.2464
         9.5004          9.0004
  24609791.2624    9857836.27046   7521317.52146                  24609797.1684
        17.0004         15.5004
  23965825.5124    7949551.18446   6083442.31446                  23965830.6914
        18.2504         16.2504
  24962000.1994    8449146.22246   6472800.16545                  24962006.0704
        13.5004         11.7504
 02  7 10 17 13 30.0040000  0 11G 2G 3G 6G15G17G18G21G22G23G26G29
  25653246.8094    5488535.15145   4138393.96945                  25653252.7384
         8.5004          9.2504
  24313619.6764     476585.97146    394812.68546                  24313625.4184
        14.2504         13.7504
  24007762.1374   10532038.93646   8046692.18046                  24007768.3594
        14.5004         15.2504
  21650406.3404    5095660.26248   3869491.91647                  21650411.2154
        29.7504         28.0004
  21916078.9734    5960032.73847   4569593.58247                  21916084.1054
        25.0004         25.7504
  21625446.5664    4525295.86347   3475009.72347                  21625449.6954
        23.0004         26.0004
  23228555.0904    2143146.86947   1659143.79346                  23228560.5514
        23.7504         22.0004
  25193522.4024    8385821.16045   6405435.69645                  25193529.8484
         9.2504         10.0004
  24628358.4494    9955410.06746   7597349.03046                  24628363.9694
        16.2504         15.5004
  23982286.3714    8036054.14546   6150847.20546                  23982291.6564
        18.2504         16.0004
  24978974.2074    8538349.74446   6542309.38045                  24978979.9144
        13.0004         11.5004
 02  7 10 17 13 45.0040000  0 11G 2G 3G 6G15G17G18G21G22G23G26G29
  25665005.0664    5550330.95145   4186546.52145                  25665012.4654
         8.2504          8.5004
  24316271.7074     490523.59346    405673.18046                  24316277.2504
        14.5004         13.2504
  24027793.7154   10637304.66246   8128717.36946                  24027799.5514
        14.7504         14.7504
  21661061.0984    5151650.38648   3913120.58047                  21661066.0664
        30.0004         28.0004
  21928117.6684    6023293.92947   4618888.01047                  21928122.7304
        25.5004         26.0004
  21635540.6134    4578340.61347   3516343.29547                  21635543.7194
        23.0004         26.0004
  23234143.9344    2172517.93947   1682030.35746                  23234149.4774
        23.5004         22.2504
  25209986.6844    8472345.27745   6472857.01745                  25209994.4454
         9.0004          9.5004
  24646943.2774   10053074.73646   7673451.35246                  24646948.9374
        16.2504         15.7504
  23998787.1444    8122766.29146   6218415.09146                  23998792.4774
        18.5004         16.5004
  24995983.1054    8627729.12146   6611955.62345                  24995988.9884
        13.2504         11.7504
 02  7 10 17 14  0.0040000  0 11G 2G 3G 6G15G17G18G21G22G23G26G29
  25676800.1604    5612310.61945   4234842.36445                  25676808.3324
         8.0004          7.7504
  24318954.1374     504616.61346    416654.77946                  24318960.0434
        15.0004         13.7504
  24047853.0514   10742713.95246   8210854.42546                  24047858.7114
        15.7504         15.0004
  21671744.2304    5207790.43448   3956866.06447                  21671748.9884
        30.2504         28.0004
  21940183.1374    6086697.81047   4668293.61947                  21940188.2814
        25.7504         26.0004
  21645670.2464    4631571.78447   3557822.12647                  21645673.2694
        23.0004         26.2504
  23239762.2694    2202040.68547   1705035.11646                  23239768.1174
        23.7504         22.2504
  25226480.9494    8559023.92345   6540398.79345                  25226487.6994
         9.2504          9.2504
  24665547.4884   10150836.56546   7749629.37246                  24665553.5354
        16.5004         15.7504
  24015329.3794    8209694.07446   6286151.02146                  24015334.4414
        19.2504         16.2504
  25013026.2234    8717290.57246   6681743.77045                  25013032.2694
        13.0004         11.7504
 02  7 10 17 14 15.0040000  0 11G 2G 3G 6G15G17G18G21G22G23G26G29
  25688629.3164    5674472.17845   4283279.88645                  25688636.3164
         8.2504          8.2504
  24321664.6374     518863.46246    427756.23246                  24321670.7544
        15.0004         13.5004
  24067938.1134   10848264.67646   8293101.70146                  24067943.8324
        15.2504         14.7504
  21682455.3164    5264078.59548   4000726.96547                  21682460.1214
        30.0004         28.0004
  21952275.1214    6150242.38147   4717808.85547                  21952280.2774
        25.5004         25.7504
  21655834.7464    4684987.32747   3599444.62647                  21655837.6994
        23.0004         26.0004
  23245408.6844    2231713.22647   1728156.59546                  23245414.4734
        24.0004         22.2504
  25243005.0514    8645855.08445   6608059.40745                  25243011.1564
         9.7504          9.2504
  24684168.7624   10248693.47846   7825881.49046                  24684174.9964
        16.5004         15.2504
  24031911.4494    8296835.15746   6354053.14246                  24031916.4064
        18.0004         16.5004
  25030103.8164    8807031.92346   6751672.05345                  25030109.6054
        13.2504         11.5004
 02  7 10 17 14 30.0040000  0 11G 2G 3G 6G15G17G18G21G22G23G26G29
  25700491.0664    5736808.38045   4331853.55045                  25700496.3284
         8.0004          7.7504
  24324403.9414     533257.29446    438972.21646                  24324409.6254
        15.0004         13.5004
  24088049.6444   10953949.51946   8375453.47446                  24088055.6094
        15.0004         15.2504
  21693193.6524    5320507.86248   4044697.81847                  21693198.4924
        30.0004         28.2504
  21964392.3944    6213920.64947   4767428.28247                  21964397.5744
        25.5004         26.0004
  21666033.0664    4738580.14347   3641205.26847                  21666036.2664
        22.7504         26.0004
  23251081.9414    2261528.35747   1751389.18046                  23251087.3204
        23.5004         22.2504
  25259555.8244    8732831.15545   6675832.92945                  25259562.7424
         9.7504          9.5004
  24702807.1214   10346638.22546   7902202.03746                  24702813.0984
        16.2504         15.0004
  24048533.2934    8384182.31046   6422115.85346                  24048538.4494
        18.2504         16.5004
  25047214.2854    8896945.80446   6821734.80146                  25047219.5704
        13.5004         12.0004
 02  7 10 17 14 45.0040000  0 11G 2G 3G 6G15G17G18G21G22G23G26G29
  25712386.9964    5799325.38645   4380568.07445                  25712395.6724
         7.7504          8.5004
  24327172.1524     547804.78346    450307.93146                  24327177.6844
        14.7504         14.0004
  24108187.0904   11059774.53146   8457914.47846                  24108193.1134
        14.7504         15.2504
  21703959.6994    5377084.65348   4088783.62547                  21703964.5164
        29.7504         28.0004
  21976536.7154    6277739.08047   4817156.91647                  21976541.8364
        25.5004         26.2504
  21676266.1844    4792356.38647   3683108.83147                  21676269.4184
        22.7504         25.7504
  23256784.0434    2291492.48347   1774737.86846                  23256789.7384
        23.7504         22.5004
  25276135.6914    8819958.23645   6743724.11845                  25276142.0904
         9.7504          9.5004
  24721463.2854   10444676.83546   7978595.73746                  24721469.0274
        16.5004         15.2504
  24065195.3244    8471741.44046   6490343.73446                  24065200.7974
        18.2504         16.2504
  25064357.5354    8987038.24846   6891936.67846                  25064362.2584
        13.0004         12.2504
 02  7 10 17 15  0.0040000  0 11G 2G 3G 6G15G17G18G21G22G23G26G29
  25724317.4964    5862020.23345   4429421.17745                  25724322.3014
         7.7504          7.5004
  24329969.2854     562503.61446    461761.59346                  24329974.9344
        15.0004         13.5004
  24128351.6444   11165736.73446   8540482.37546                  24128357.9844
        15.0004         15.0004
  21714753.9264    5433806.31548   4132982.31847                  21714758.7304
        30.5004         28.0004
  21988707.2544    6341694.91147   4866992.62447                  21988712.4924
        26.0004         26.2504
  21686533.7854    4846313.19747   3725153.09847                  21686536.9494
        22.7504         26.0004
  23262513.8794    2321602.79147   1798200.46846                  23262519.5044
        24.0004         22.5004
  25292744.2234    8907233.14345   6811730.52645                  25292751.3524
        10.2504          9.5004
  24740136.8634   10542806.41246   8055060.32146                  24740143.0044
        16.2504         15.2504
  24081896.5594    8559509.57246   6558734.46946                  24081902.0664
        17.7504         16.2504
  25081534.7464    9077306.38646   6962275.45046                  25081540.2304
        12.7504         12.0004
 02  7 10 17 15 15.0040000  0 11G 2G 3G 6G15G17G18G21G22G23G26G29
  25736283.3794    5924894.85245   4478414.35545                  25736291.0474
         8.7504          8.5004
  24332796.0194     577356.14446    473334.99946                  24332801.3874
        15.7504         13.7504
  24148541.8014   11271837.96346   8623158.59246                  24148548.0234
        14.5004         15.0004
  21725575.3324    5490674.82848   4177295.42947                  21725580.0314
        30.0004         28.2504
  22000904.3094    6405790.31247   4916937.08647                  22000909.4654
        26.0004         26.0004
  21696836.3324    4900452.55247   3767339.61547                  21696839.5904
        22.7504         25.7504
  23268271.8944    2351861.57447   1821778.74946                  23268277.3204
        23.7504         22.5004
  25309380.0124    8994657.61845   6879853.42145                  25309385.5554
        10.2504          9.0004
  24758827.5514   10641028.83546   8131597.24946                  24758833.4804
        16.0004         15.2504
  24098638.3944    8647488.56546   6627289.52046                  24098644.0784
        17.7504         16.0004
  25098746.4104    9167751.88746   7032752.46646                  25098752.3874
        12.7504         12.0004
 02  7 10 17 15 30.0040000  0 11G 2G 3G 6G15G17G18G21G22G23G26G29
  25748281.3094    5987944.63545   4527544.04545                  25748288.5434
         8.2504          8.5004
  24335650.9734     592358.23746    485024.96846                  24335656.9264
        16.0004         14.2504
  24168757.8484   11378073.47846   8705939.46046                  24168763.7894
        14.5004         14.5004
  21736424.3794    5547685.88448   4221719.63247                  21736429.1254
        30.2504         28.2504
  22013126.9104    6470020.88547   4966986.87547                  22013131.8554
        25.5004         26.0004
  21707172.4574    4954769.95047   3809664.85547                  21707175.5394
        23.0004         26.0004
  23274057.4104    2382264.27947   1845469.19346                  23274062.9884
        23.7504         22.5004
  25326044.5824    9082226.94345   6948089.21845                  25326050.3834
        10.5004          9.2504
  24777535.8014   10739339.46946   8208202.91246                  24777541.8714
        16.0004         15.0004
  24115419.5044    8735673.65446   6696005.15946                  24115425.2814
        18.0004         16.0004
  25115990.0664    9258370.15746   7103364.06446                  25115995.3284
        12.7504         12.0004
 02  7 10 17 15 45.0040000  0 11G 2G 3G 6G15G17G18G21G22G23G26G29
  25760312.8714    6051170.91245   4576811.24945                  25760320.0234
         9.0004          7.7504
  24338533.9414     607511.55246    496832.77646                  24338539.8714
        15.2504         13.7504
  24188998.9734   11484444.45046   8788825.89146                  24189004.9734
        14.5004         14.7504
  21747300.2234    5604841.05248   4266256.12047                  21747305.0514
        30.0004         28.0004
  22025375.4884    6534388.15447   5017143.17747                  22025380.7034
        26.0004         26.2504
  21717543.0664    5009266.78147   3852129.92047                  21717546.1604
        23.0004         25.7504
  23279870.6914    2412812.25047   1869272.82946                  23279876.3634
        24.2504         22.5004
  25342735.9574    9169942.16445   7016438.69045                  25342743.3094
        10.0004          9.5004
  24796260.9734   10837739.60846   8284878.30846                  24796267.2424
        16.0004         15.0004
  24132240.2384    8824066.07646   6764882.35646                  24132246.2034
        18.0004         15.7504
  25133267.8094    9349162.35046   7174111.20045                  25133273.2234
        12.5004         11.7504
 02  7 10 17 16  0.0040000  0 11G 2G 3G 6G15G17G18G21G22G23G26G29
  25772376.7774    6114572.78045   4626215.27345                  25772383.4804
         8.2504          8.0004
  24341446.5194     622815.65646    508758.03946                  24341452.0394
        15.2504         14.0004
  24209267.0824   11590949.83346   8871817.02946                  24209272.9534
        14.7504         14.0004
  21758203.9804    5662139.52548   4310904.27447                  21758208.6564
        29.7504         28.0004
  22037650.5514    6598891.42547   5067405.45947                  22037655.6134
        27.0004         26.2504
  21727947.4024    5063942.05947   3894734.03047                  21727950.4844
        23.2504         26.0004
  23285711.1764    2443504.94047   1893189.22346                  23285716.6604
        24.2504         22.7504
  25359454.4964    9257802.15545   7084900.99445                  25359462.1174
         9.7504          9.7504
  24815002.1054   10936228.18946   8361622.63546                  24815007.8364
        15.2504         14.5004
  24149098.8944    8912664.66546   6833920.20046                  24149104.8944
        16.5004         15.7504
  25150577.5824    9440127.31546   7244992.95245                  25150583.1134
        12.2504         11.7504
 02  7 10 17 16 15.0040000  0 11G 2G 3G 6G15G17G18G21G22G23G26G29
  25784476.1214    6178152.50845   4675757.90645                  25784482.1214
         8.7504          7.7504
  24344387.7074     638273.32146    520803.00046                  24344392.7814
        15.7504         14.0004
  24229559.7854   11697591.74446   8954914.58546                  24229565.9614
        14.0004         13.7504
  21769135.3324    5719583.79548   4355666.03747                  21769140.1254
        30.0004         28.0004
  22049951.0594    6663533.24447   5117775.70047                  22049956.2854
        26.0004         26.5004
  21738386.1054    5118798.02847   3937478.94047                  21738389.1054
        23.0004         26.0004
  23291579.6764    2474344.64247   1917220.18146                  23291585.3594
        24.2504         22.7504
  25376202.2934    9345809.02345   7153477.72245                  25376208.9144
        10.0004          9.0004
  24833761.4734   11034807.47146   8438437.63946                  24833767.3204
        15.7504         14.5004
  24165998.7854    9001471.62346   6903120.41546                  24166004.5744
        17.5004         15.2504
  25167920.8094    9531267.25445   7316011.08645                  25167926.7624
        11.7504         11.5004
 02  7 10 17 16 30.0040000  0 11G 2G 3G 6G15G17G18G21G22G23G26G29
  25796609.1524    6241912.04645   4725440.63645                  25796615.8204
         8.2504          8.0004
  24347359.0354     653886.98046    532969.50546                  24347365.0474
        16.0004         14.0004
  24249879.6444   11804372.00246   9038119.91946                  24249885.4574
        14.2504         14.2504
  21780094.6054    5777176.04348   4400543.10647                  21780099.6564
        29.7504         27.7504
  22062279.0354    6728315.70647   5168255.52247                  22062283.9694
        26.7504         26.5004
  21748859.6214    5173836.79247   3980366.28347                  21748862.7854
        23.0004         26.0004
  23297476.6604    2505333.58147   1941367.42146                  23297482.4374
        24.0004         23.0004
  25392977.8404    9433964.47345   7222170.24945                  25392984.6024
        10.0004          8.7504
  24852538.5904   11133479.34446   8515324.77946                  24852544.8364
        15.7504         14.7504
  24182938.8554    9090488.70346   6972484.37146                  24182944.3984
        17.7504         15.5004
  25185297.8324    9622584.13845   7387167.07845                  25185303.4924
        11.2504         11.5004
 02  7 10 17 16 45.0040000  0 11G 2G 3G 6G15G17G18G21G22G23G26G29
  25808776.0664    6305845.94445   4775259.22545                  25808784.0044
         8.2504          8.2504
  24350358.6604     669651.68346    545253.69746                  24350364.3794
        15.5004         14.2504
  24270225.2154   11911285.03646   9121428.72046                  24270231.6604
        14.5004         14.2504
  21791081.0664    5834911.04248   4445531.40947                  21791085.9414
        29.0004         27.7504
  22074632.5664    6793233.56147   5218840.86147                  22074637.5944
        26.7504         26.5004
  21759366.8554    5229052.88947   4023391.81547                  21759369.9144
        22.7504         26.0004
  23303400.8554    2536466.51847   1965626.87046                  23303406.6214
        23.7504         22.5004
  25409780.5044    9522262.89845   7290974.17845                  25409787.3484
        10.5004          9.2504
  24871331.5824   11232238.33746   8592279.81046                  24871338.0164
        15.7504         14.5004
  24199916.8554    9179710.34646   7042007.70346                  24199922.0234
        17.5004         15.5004
  25202708.3164    9714072.21745   7458456.43345                  25202713.7074
        11.7504         11.7504
 02  7 10 17 17  0.0040000  0 11G 2G 3G 6G15G17G18G21G22G23G26G29
  25820975.4964    6369956.06445   4825215.09745                  25820983.1764
         8.0004          8.0004
  24353387.4104     685569.65046    557657.32346                  24353393.1994
        15.2504         14.2504
  24290595.4344   12018332.62746   9204842.38046                  24290601.6914
        14.5004         14.5004
  21802095.4414    5892790.86148   4490632.56147                  21802100.4574
        29.5004         27.7504
  22087011.7384    6858288.85447   5269533.28147                  22087016.6024
        26.2504         26.5004
  21769908.3094    5284448.28247   4066557.05747                  21769911.5084
        23.0004         25.7504
  23309353.0984    2567745.37247   1990000.02046                  23309358.8284
        24.0004         23.0004
  25426611.0194    9610705.86045   7359890.74845                  25426617.7934
        10.7504          9.5004
  24890141.5434   11331086.28546   8669304.15746                  24890147.4614
        15.5004         14.2504
  24216934.8554    9269138.31746   7111691.82446                  24216940.7734
        17.2504         15.5004
  25220150.4574    9805733.35445   7529880.67645                  25220156.3054
        11.5004         11.0004
 02  7 10 17 17 15.0040000  0 11G 2G 3G 6G15G17G18G21G22G23G26G29
  25833209.0664    6434241.58345   4875307.68045                  25833215.0664
         8.0004          7.7504
  24356445.8944     701640.64246    570180.19746                  24356451.4144
        15.5004         14.2504
  24310991.6914   12125513.89846   9288360.20846                  24310997.8554
        14.5004         14.2504
  21813136.9344    5950815.01448   4535846.18247                  21813141.9024
        28.7504         27.7504
  22099417.7384    6923481.21247   5320332.50947                  22099422.8364
        26.5004         26.5004
  21780483.8484    5340022.26147   4109861.45447                  21780486.9064
        23.5004         25.7504
  23315333.1994    2599169.53847   2014486.40246                  23315338.7304
        24.5004         23.0004
  25443468.2154    9699292.49145   7428919.24645                  25443474.1214
        10.2504          9.7504
  24908968.3714   11430022.41646   8746397.21146                  24908974.2304
        15.0004         13.7504
  24233991.3094    9358771.74046   7181536.02946                  24233996.5234
        17.2504         15.7504
  25237625.5274    9897566.70845   7601439.10445                  25237631.8444
        11.0004         11.2504
 02  7 10 17 17 30.0050000  0 11G 2G 3G 6G15G17G18G21G22G23G26G29
  25845475.7044    6498706.87945   4925540.37645                  25845482.1034
         8.0004          8.0004
  24359533.4384     717866.16346    582823.46646                  24359538.9114
        15.2504         14.0004
  24331413.9544   12232835.88446   9371987.67446                  24331419.9194
        13.5004         13.7504
  21824207.0794    6008987.53748   4581175.41247                  21824211.9664
        29.7504         27.7504
  22111850.0094    6988815.01947   5371241.96847                  22111855.1654
        26.0004         26.2504
  21791093.8294    5395778.57447   4153307.93047                  21791096.8884
        23.2504         26.0004
  23321341.0484    2630741.18247   2039087.70246                  23321346.6734
        24.5004         22.7504
  25460354.5874    9788028.52045   7498064.16645                  25460361.1734
        10.5004          9.0004
  24927813.3454   11529053.23746   8823564.06546                  24927819.7784
        14.7504         14.2504
  24251088.1734    9448616.34946   7251544.80646                  24251093.0014
        17.2504         15.2504
  25255135.0404    9989578.09345   7673136.26045                  25255141.3684
        11.2504         11.0004
 02  7 10 17 17 45.0050000  0 11G 2G 3G 6G15G17G18G21G22G23G26G29
  25857775.8064    6563340.81245   4975904.45045                  25857782.7704
         8.7504          8.2504
  24362650.0404     734241.99146    595583.87846                  24362655.7244
        15.5004         13.7504
  24351860.3924   12340281.62246   9455711.56246                  24351866.6964
        14.2504         14.0004
  21835302.9934    6067298.47348   4626612.49847                  21835307.9744
        29.0004         27.7504
  22124307.5174    7054279.30547   5422253.08547                  22124312.5914
        26.0004         26.2504
  21801736.7204    5451707.31647   4196888.77047                  21801739.7314
        23.2504         26.0004
  23327375.6494    2662453.81547   2063798.86246                  23327381.1814
        24.5004         23.0004
  25477265.7204    9876899.38945   7567314.15445                  25477271.7554
        10.0004          9.5004
  24946673.1964   11628163.02746   8900792.43346                  24946679.4664
        14.5004         13.5004
  24268222.3294    9538657.63246   7321706.82946                  24268228.1884
        16.5004         14.7504
  25272674.7594   10081752.90445   7744960.74145                  25272680.4314
        10.5004         11.0004
 02  7 10 17 18  0.0050000  0 11G 2G 3G 6G15G17G18G21G22G23G26G29
  25870108.0954    6628149.29745   5026404.53445                  25870115.0484
         8.0004          8.5004
  24365795.3374     750771.32346    608463.89446                  24365800.9854
        15.7504         14.2504
  24372331.7904   12447859.79646   9539538.66846                  24372337.6854
        14.0004         14.2504
  21846426.8214    6125753.43348   4672161.80947                  21846431.7554
        29.5004         28.0004
  22136791.1574    7119880.31647   5473370.75147                  22136796.4314
        26.5004         26.2504
  21812413.4624    5507813.83347   4240608.13047                  21812416.4854
        23.0004         26.0004
  23333437.8454    2694311.11347   2088622.74446                  23333443.5634
        24.5004         23.0004
  25494204.5014    9965912.42345   7636674.91945                  25494211.6654
         9.7504          9.2504
  24965549.6264   11727359.99646   8978088.74446                  24965555.9664
        14.0004         13.2504
  24285395.1034    9628903.00846   7392027.87546                  24285400.7284
        16.0004         14.5004
  25290247.4934   10174098.54745   7816918.36745                  25290253.4234
        10.5004         11.0004
 02  7 10 17 18 15.0050000  0 11G 2G 3G 6G15G17G18G21G22G23G26G29
  25882474.6884    6693134.38445   5077042.23345                  25882482.6614
         8.5004          8.5004
  24368970.1964     767456.73146    621465.52146                  24368975.8564
        16.0004         14.5004
  24392828.9624   12555572.42546   9623470.53246                  24392834.6344
        14.0004         13.7504
  21857578.1104    6184354.78748   4717825.19747                  21857582.9624
        29.2504         28.0004
  22149301.3684    7185620.36947   5524596.75347                  22149306.3024
        26.7504         26.5004
  21823124.1654    5564100.38147   4284467.77447                  21823127.4814
        22.7504         26.0004
  23339528.2044    2726315.23547   2113561.04346                  23339533.7944
        24.7504         23.2504
  25511170.7124   10055069.55045   7706147.95945                  25511177.7004
         9.7504          9.5004
  24984443.6424   11826646.19446   9055454.58946                  24984449.9354
        14.0004         13.2504
  24302608.0634    9719354.44046   7462509.50446                  24302613.3374
        16.5004         15.0004
  25307852.9784   10266617.15145   7889010.73945                  25307858.7434
        10.5004         10.5004
 02  7 10 17 18 30.0050000  0 11G 2G 3G 6G15G17G18G21G22G23G26G29
  25894874.2124    6758293.50545   5127815.53945                  25894880.5874
         8.0004          9.0004
  24372175.1034     784296.08846    634587.11446                  24372181.1854
        16.2504         14.7504
  24413351.0094   12663416.78446   9707505.03246                  24413356.7514
        14.2504         13.7504
  21868757.2434    6243100.12948   4763600.77947                  21868762.2354
        29.5004         28.0004
  22161836.6424    7251497.05347   5575929.23047                  22161841.5994
        26.2504         26.2504
  21833868.7824    5620564.28847   4328465.62247                  21833871.9464
        22.7504         26.0004
  23345645.8454    2758464.31047   2138612.28746                  23345651.1424
        25.0004         23.5004
  25528164.0874   10144367.91145   7775731.03045                  25528170.7784
         9.7504          9.0004
  25003353.7124   11926018.96946   9132887.88246                  25003360.0634
        14.2504         13.2504
  24319858.6104    9810009.23146   7533149.57646                  24319864.0364
        16.2504         15.0004
  25325491.6264   10359305.92945   7961235.71545                  25325498.1884
        10.7504         10.7504
 02  7 10 17 18 45.0050000  0 11G 2G 3G 6G15G17G18G21G22G23G26G29
  25907306.0094    6823627.14245   5178724.82045                  25907312.1384
         8.0004          8.0004
  24375408.9784     801290.45846    647829.49646                  24375414.7674
        16.5004         14.7504
  24433898.5564   12771393.32346   9791642.55646                  24433904.8254
        14.0004         13.5004
  21879963.6964    6301990.19848   4809489.13347                  21879968.6304
        29.7504         28.0004
  22174399.4314    7317511.25647   5627368.86047                  22174404.4814
        27.2504         26.7504
  21844647.4624    5677206.23947   4372602.20247                  21844650.8954
        22.5004         26.0004
  23351791.1574    2790758.74447   2163776.79646                  23351796.5604
        25.0004         23.5004
  25545182.5634   10233807.93545   7845424.54045                  25545188.7164
         9.0004          9.0004
  25022280.2904   12025478.84746   9210389.03846                  25022286.8994
        14.2504         13.0004
  24337148.7744    9900867.77146   7603948.43546                  24337153.9314
        16.0004         15.2504
  25343162.2984   10452165.29445   8033593.65745                  25343167.6654
        10.7504         11.0004
 02  7 10 17 19  0.0050000  0 11G 2G 3G 6G15G17G18G21G22G23G26G29
  25919770.7674    6889130.68645   5229766.52245                  25919777.5054
         7.7504          8.0004
  24378671.4074     818435.55946    661189.32746                  24378677.6184
        16.0004         14.2504
  24454469.3294   12879497.26546   9875879.35946                  24454475.9384
        13.5004         14.0004
  21891196.5014    6361020.56848   4855486.81947                  21891201.5404
        29.0004         28.0004
  22186986.7904    7383658.45347   5678912.11747                  22186991.7244
        26.7504         26.5004
  21855459.2674    5734021.59447   4416873.90647                  21855462.5834
        23.0004         26.0004
  23357963.4314    2823194.11147   2189051.12446                  23357968.7284
        25.2504         23.5004
  25562229.1104   10323384.78645   7915224.63845                  25562236.8954
         9.2504          9.0004
  25041222.6184   12125021.19546   9287954.50646                  25041228.5834
        14.0004         13.0004
  24354476.2984    9991925.26846   7674902.30746                  24354481.9114
        16.0004         14.5004
  25360864.0794   10545190.55345   8106080.83545                  25360870.7824
        10.5004         11.0004
 02  7 10 17 19 15.0050000  0 11G 2G 3G 6G15G17G18G21G22G23G26G29
  25932268.4234    6954804.85245   5280941.16945                  25932276.5364
         7.5004          8.0004
  24381962.6034     835732.58246    674667.53546                  24381968.8604
        15.5004         14.2504
  24475065.7984   12987729.17546   9960215.84046                  24475071.8684
        13.5004         14.0004
  21902456.5174    6420192.19748   4901594.57547                  21902461.6034
        29.2504         27.7504
  22199599.7904    7449939.62647   5730559.78247                  22199604.5834
        27.0004         26.5004
  21866304.0714    5791011.06747   4461281.28947                  21866307.4814
        22.7504         25.7504
  23364162.8844    2855771.22647   2214435.90846                  23364168.3564
        25.2504         23.7504
  25579301.2824   10413098.96445   7985131.74745                  25579308.7514
         9.0004          8.7504
  25060180.3994   12224646.64346   9365584.68746                  25060186.4234
        14.2504         13.2504
  24371841.7824   10083182.31846   7746011.66946                  24371847.4894
        16.0004         14.7504
  25378597.3534   10638382.34045   8178697.77145                  25378603.5634
        10.2504         10.7504
 02  7 10 17 19 30.0050000  0 11G 2G 3G 6G15G17G18G21G22G23G26G29
  25944798.6884    7020648.51645   5332247.90145                  25944807.2244
         8.0004          8.2504
  24385282.8064     853180.93246    688263.67546                  24385288.4314
        15.2504         14.2504
  24495685.7514   13096087.78346  10044651.06846                  24495692.4894
        13.2504         14.0004
  21913743.3604    6479504.23148   4947811.74547                  21913748.5874
        29.5004         27.7504
  22212237.6264    7516353.82147   5782311.08247                  22212242.5954
        26.5004         26.5004
  21877181.6264    5848173.65047   4505823.55947                  21877184.8844
        22.7504         25.7504
  23370388.8214    2888489.11647   2239930.38246                  23370394.3174
        25.0004         23.5004
  25596399.0404   10502949.06045   8055144.76445                  25596405.4034
         8.5004          8.5004
  25079153.7434   12324354.03146   9443278.72946                  25079159.6144
        13.7504         13.2504
  24389245.3534   10174637.66046   7817275.55246                  24389251.4234
        15.7504         14.2504
  25396363.1344   10731739.22145   8251443.37545                  25396369.9314
        10.7504         10.0004
 02  7 10 17 19 45.0050000  0 11G 2G 3G 6G15G17G18G21G22G23G26G29
  25957359.5954    7086661.91945   5383686.89845                  25957366.6774
         7.5004          8.2504
  24388632.1034     870781.29346    701978.25646                  24388638.1734
        15.2504         14.2504
  24516330.1104   13204573.28746  10129185.16446                  24516336.3684
        13.7504         13.5004
  21925056.7744    6538957.08848   4994138.64147                  21925061.8954
        29.5004         27.7504
  22224901.6884    7582901.59247   5834166.48147                  22224906.7164
        27.2504         26.2504
  21888092.4314    5905509.56647   4550500.89647                  21888095.6304
        22.7504         25.7504
  23376641.4154    2921348.33947   2265534.98146                  23376646.9464
        25.0004         23.7504
  25613521.7904   10592935.20845   8125263.77245                  25613529.1774
         7.5004          8.5004
  25098143.7594   12424143.60546   9521036.80546                  25098149.8884
        14.2504         13.2504
  24406686.7824   10266291.37946   7888694.00946                  24406692.4544
        16.0004         14.5004
  25414159.4234   10825261.56545   8324317.87945                  25414165.2354
        10.7504         10.7504
 02  7 10 17 20  0.0050000  0 11G 2G 3G 6G15G17G18G21G22G23G26G29
  25969954.0714    7152841.34845   5435255.27545                  25969962.4544
         8.0004          8.0004
  24392010.1184     888530.40846    715808.74446                  24392015.9544
        16.0004         14.5004
  24536997.9384   13313181.85246  10213815.15546                  24537004.1494
        14.0004         13.2504
  21936396.3374    6598547.28948   5040572.55347                  21936401.3534
        29.2504         28.0004
  22237589.6264    7649579.41447   5886123.21747                  22237594.6774
        26.5004         26.2504
  21899035.0714    5963015.19447   4595310.46847                  21899038.2354
        22.2504         25.7504
  23382920.8294    2954345.09147   2291246.75746                  23382926.2784
        25.2504         24.0004
  25630671.6104   10683053.54445   8195485.82945                  25630680.1924
         8.0004          8.7504
  25117148.2204   12524011.62546   9598856.01246                  25117154.1384
        14.7504         13.0004
  24424165.1184   10358139.70046   7960264.12146                  24424170.7904
        16.2504         14.2504
  25431987.5404   10918945.44045   8397318.29245                  25431994.0674
        10.2504         10.5004
 02  7 10 17 20 15.0050000  0 11G 2G 3G 6G15G17G18G21G22G23G26G29
  25982578.7824    7219188.33145   5486954.16245                  25982587.2824
         7.7504          8.7504
  24395416.6424     906430.38446    729756.79646                  24395422.1384
        16.5004         15.0004
  24557689.2514   13421914.92846  10298542.18146                  24557695.1224
        14.0004         13.7504
  21947762.5094    6658276.58048   5087114.85247                  21947767.3604
        29.0004         27.7504
  22250303.2514    7716389.08847   5938182.69247                  22250308.2904
        27.0004         26.5004
  21910010.7904    6020692.18747   4640253.58047                  21910013.9424
        23.0004         25.7504
  23389225.9624    2987481.24347   2317067.15446                  23389231.6694
        25.0004         23.7504
  25647845.6264   10773305.32345   8265811.83545                  25647852.3064
         7.7504          8.2504
  25136167.8064   12623959.62946   9676737.54146                  25136173.9114
        14.7504         13.2504
  24441679.7984   10450183.94846   8031986.89046                  24441685.7394
        15.2504         14.5004
  25449845.4704   11012792.24345   8470445.63145                  25449851.5994
        10.7504         10.7504
 02  7 10 17 20 30.0050000  0 11G 2G 3G 6G15G17G18G21G22G23G26G29
  25995236.5404    7285703.24645   5538783.94145                  25995244.0674
         7.7504          8.0004
  24398850.8924     924482.06346    743823.04846                  24398856.3644
        16.0004         14.7504
  24578403.7674   13530772.79646  10383366.44346                  24578410.0364
        13.2504         13.0004
  21959155.2594    6718145.58648   5133766.01947                  21959160.3104
        29.5004         28.0004
  22263041.8374    7783331.13247   5990345.31247                  22263046.6304
        26.7504         26.2504
  21921019.1344    6078540.86547   4685330.47447                  21921022.3924
        23.0004         25.7504
  23395558.3604    3020757.62847   2342996.82046                  23395563.9744
        25.0004         23.7504
  25665045.6884   10863690.82645   8336242.06945                  25665052.5714
         8.0004          8.2504
  25155201.9384   12723987.89146   9754681.61546                  25155207.9384
        14.5004         13.7504
  24459233.4234   10542424.44246   8103862.57446                  24459238.8254
        16.0004         14.5004
  25467735.5244   11106802.32045   8543700.22145                  25467741.2554
        10.7504         10.7504
 02  7 10 17 20 45.0050000  0 11G 2G 3G 6G15G17G18G21G22G23G26G29
  26007926.2984    7352388.41445   5590746.37745                  26007934.8924
         7.7504          8.5004
  24402315.5484     942688.24846    758009.70346                  24402321.4544
        15.7504         14.7504
  24599142.8454   13639757.69546  10468289.67146                  24599149.8454
        13.2504         13.5004
  21970574.9464    6778156.85748   5180528.03947                  21970579.9624
        29.0004         27.7504
  22275806.2744    7850408.17947   6042613.13847                  22275811.3134
        26.7504         26.2504
  21932060.5174    6136563.72847   4730543.08947                  21932063.7864
        22.7504         26.0004
  23401917.8534    3054176.22247   2369037.29546                  23401923.2674
        25.2504         24.0004
  25682271.5714   10954212.14545   8406778.11145                  25682276.9034
         7.5004          8.2504
  25174252.5174   12824098.76146   9832690.04846                  25174258.6694
        14.5004         13.2504
  24476823.7904   10634863.26346   8175892.79946                  24476829.0284
        15.5004         13.7504
  25485656.7514   11200977.80945   8617083.67045                  25485661.7204
        11.2504         11.0004
 02  7 10 17 21  0.0050000  0 11G 2G 3G 6G15G17G18G21G22G23G26G29
  26020648.4384    7419243.76845   5642841.45545                  26020657.3844
         8.0004          8.0004
  24405809.5714     961049.31846    772317.04646                  24405815.1964
        16.0004         15.0004
  24619905.9854   13748869.45946  10553311.76846                  24619912.3604
        12.7504         13.5004
  21982021.9074    6838310.64148   5227401.11247                  21982027.0054
        29.2504         27.7504
  22288596.0714    7917620.50047   6094986.35847                  22288601.1344
        26.5004         26.2504
  21943135.0244    6194760.62047   4775891.31447                  21943138.2474
        22.7504         26.0004
  23408304.4624    3087737.37947   2395188.86346                  23408309.7594
        25.5004         23.7504
  25699523.1184   11044869.01845   8477419.75645                  25699530.9744
         7.7504          8.5004
  25193319.2744   12924292.22846   9910762.84846                  25193325.2514
        14.7504         13.5004
  24494451.1654   10727500.31446   8248077.49746                  24494456.7784
        14.7504         14.0004
  25503608.9934   11295318.68645   8690596.02045                  25503614.6884
        11.0004         11.0004
 02  7 10 17 21 15.0050000  0 11G 2G 3G 6G15G17G18G21G22G23G26G29
  26033402.4234    7486266.68745   5695067.08045                  26033411.1454
         8.0004          7.7504
  24409332.4314     979563.00046    786743.30346                  24409337.9744
        15.7504         15.0004
  24640693.4314   13858105.31246  10638430.56346                  24640699.4194
        13.2504         13.2504
  21993495.3134    6898604.38348   5274383.23847                  21993500.6104
        28.7504         27.7504
  22301411.7044    7984965.48147   6147462.95847                  22301416.9194
        26.5004         26.0004
  21954242.1494    6253129.02847   4821373.19047                  21954245.5484
        22.2504         25.7504
  23414717.2674    3121438.65747   2421449.60946                  23414722.9384
        24.7504         23.7504
  25716799.0174   11135658.62745   8548164.86145                  25716807.3414
         7.7504          8.7504
  25212400.9154   13024565.53446   9988897.85346                  25212407.0444
        15.0004         13.2504
  24512116.8454   10820332.76646   8320414.45446                  24512122.4234
        15.0004         14.0004
  25521592.8994   11389822.08545   8764234.97645                  25521598.9814
        11.5004         11.0004
 02  7 10 17 21 30.0050000  0 11G 2G 3G 6G15G17G18G21G22G23G26G29
  26046189.1104    7553458.90545   5747424.62045                  26046196.5324
         8.0004          8.5004
  24412885.0954     998231.65246    801290.31146                  24412890.4504
        15.7504         14.5004
  24661504.0874   13967466.99246  10723647.40046                  24661510.0054
        13.2504         13.5004
  22004995.8214    6959040.21448   5321476.08747                  22005000.9314
        28.7504         28.0004
  22314252.6884    8052445.36447   6200044.67247                  22314257.6104
        26.7504         26.2504
  21965382.1424    6311670.87347   4866990.21047                  21965385.5634
        22.7504         25.7504
  23421157.5564    3155281.98847   2447821.05946                  23421163.1224
        25.2504         24.0004
  25734102.3294   11226582.65945   8619014.72045                  25734110.3134
         8.0004          8.7504
  25231497.6424   13124920.58146  10067096.57446                  25231503.4074
        15.0004         13.7504
  24529820.4234   10913362.35446   8392905.00146                  24529825.9194
        15.5004         14.0004
  25539607.5174   11484489.67145   8838001.91745                  25539612.4624
        11.7504         11.5004
 02  7 10 17 21 45.0050000  0 11G 2G 3G 6G15G17G18G21G22G23G26G29
  26059007.0874    7620815.68445   5799910.37145                  26059014.2044
         7.7504          8.0004
  24416466.5484    1017051.01146    815954.76346                  24416472.9464
        15.7504         14.7504
  24682338.3764   14076949.50946  10808958.39246                  24682344.4354
        13.5004         13.7504
  22016522.9074    7019613.54648   5368676.07947                  22016528.0524
        29.5004         27.7504
  22327118.3604    8120055.46947   6252727.86147                  22327123.3534
        26.2504         26.0004
  21976554.4704    6370381.28947   4912738.58247                  21976557.7984
        22.7504         25.7504
  23427623.8764    3189262.60147   2474299.47646                  23427629.4544
        25.2504         24.0004
  25751428.9384   11317636.05345   8689965.37745                  25751437.1814
         8.0004          9.2504
  25250609.4384   13225352.49546  10145355.17146                  25250615.4624
        15.2504         13.5004
  24547560.0794   11006584.08646   8465545.28746                  24547564.6264
        15.7504         14.5004
  25557653.1344   11579316.73546   8911893.09345                  25557659.5674
        12.0004         11.2504
 02  7 10 17 22  0.0050000  0 11G 2G 3G 6G15G17G18G21G22G23G26G29
  26071856.7674    7688340.82445   5852527.30745                  26071864.9624
         7.7504          7.5004
  24420077.0634    1036025.36046    830739.99446                  24420082.3374
        16.2504         15.0004
  24703195.6264   14186556.57146  10894366.44646                  24703201.5794
        13.2504         13.5004
  22028076.3604    7080328.43148   5415986.37147                  22028081.3534
        29.0004         27.5004
  22340009.7354    8187799.87047   6305515.69747                  22340014.7394
        26.5004         25.7504
  21987759.6264    6429264.19347   4958621.35947                  21987762.8254
        22.7504         25.7504
  23434117.1574    3223384.48947   2500887.97046                  23434122.7124
        25.5004         24.0004
  25768781.4314   11408822.50045   8761019.70645                  25768788.8884
         8.0004          8.5004
  25269736.3294   13325865.08746  10223676.63046                  25269742.2824
        15.0004         13.2504
  24565336.6814   11100001.69846   8538338.21446                  24565341.8024
        16.0004         14.2504
  25575728.7354   11674306.78746   8985911.28945                  25575735.5094
        12.0004         11.2504
 02  7 10 17 22 15.0050000  0 11G 2G 3G 6G15G17G18G21G22G23G26G29
  26084737.6264    7756034.36145   5905275.54245                  26084745.4114
         7.7504          7.7504
  24423717.4234    1055155.15846    845646.34046                  24423722.7784
        16.2504         14.7504
  24724077.1734   14296288.18746  10979871.53546                  24724082.8684
        13.5004         13.2504
  22039656.9464    7141185.23848   5463407.25347                  22039661.9854
        29.2504         27.7504
  22352926.6734    8255678.89247   6358408.42747                  22352931.5014
        26.2504         25.7504
  21998997.3844    6488319.72147   5004638.65147                  21999000.7474
        22.2504         26.0004
  23440637.1344    3257648.01547   2527586.84246                  23440642.7124
        24.7504         23.5004
  25786159.0634   11500141.83845   8832177.56845                  25786165.1344
         8.0004          8.5004
  25288878.4854   13426458.42646  10302061.01646                  25288884.1224
        15.2504         13.7504
  24583150.3994   11193615.08446   8611283.68246                  24583155.8374
        15.5004         14.0004
  25593835.2824   11769459.85145   9060056.52845                  25593841.7634
        11.5004         10.7504
 02  7 10 17 22 30.0050000  0 11G 2G 3G 6G15G17G18G21G22G23G26G29
  26097651.3134    7823894.82945   5958153.76145                  26097656.3764
         7.7504          7.2504
  24427386.6494    1074439.50846    860673.10946                  24427392.1344
        16.0004         14.7504
  24744981.6034   14406142.81046  11065472.49146                  24744987.8494
        13.0004         13.5004
  22051264.6734    7202182.77048   5510937.79047                  22051269.7594
        29.5004         28.0004
  22365869.1184    8323691.36547   6411405.14946                  22365874.0634
        26.2504         25.5004
  22010267.9934    6547546.43747   5050789.33647                  22010271.4384
        22.7504         25.7504
  23447183.9544    3292051.94947   2554395.12346                  23447189.6384
        24.7504         23.5004
  25803561.5174   11591592.48545   8903437.77645                  25803568.9504
         8.5004          9.2504
  25308035.5634   13527131.06646  10380507.20646                  25308041.9034
        14.7504         14.2504
  24601001.7204   11287422.64646   8684380.45846                  24601007.2044
        15.7504         14.0004
  25611972.4934   11864774.44045   9134327.60145                  25611978.5404
        11.0004         10.5004
 02  7 10 17 22 45.0050000  0 11G 2G 3G 6G15G17G18G21G22G23G26G29
  26110596.0484    7891922.55445   6011162.34645                  26110608.1224
         7.7504          7.5004
  24431086.1424    1093879.18346    875820.93446                  24431091.3804
        16.2504         15.2504
  24765909.8534   14516120.60046  11151169.41646                  24765916.1224
        13.2504         13.5004
  22062898.7044    7263321.52048   5558578.36947                  22062903.7084
        29.0004         28.0004
  22378836.7594    8391837.77147   6464506.23447                  22378841.7634
        26.2504         25.7504
  22021571.1264    6606944.75247   5097073.73747                  22021574.3954
        22.7504         26.0004
  23453757.4464    3326596.61647   2581313.06446                  23453763.1654
        24.7504         23.5004
  25820988.3684   11683174.50745   8974800.32745                  25820996.9384
         8.2504          8.7504
  25327207.7984   13627883.24646  10459015.36146                  25327213.9154
        14.5004         14.0004
  24618889.6884   11381424.56746   8757628.68246                  24618895.4894
        15.5004         13.7504
  25630141.5174   11960250.71945   9208724.66545                  25630148.5174
        11.2504         10.5004
 02  7 10 17 23  0.0050000  0 11G 2G 3G 6G15G17G18G21G22G23G26G29
  26123573.2124    7960115.25445   6064299.42745                  26123581.4424
         7.7504          7.5004
  24434814.6264    1113472.39446    891088.38246                  24434820.0404
        16.7504         15.2504
  24786861.0094   14626219.22846  11236960.48646                  24786867.0204
        13.2504         13.2504
  22074559.8534    7324599.40848   5606327.36747                  22074564.8104
        29.7504         28.0004
  22391829.5014    8460116.10547   6517710.12447                  22391834.5054
        25.7504         25.7504
  22032906.4234    6666512.38347   5143490.06847                  22032909.8104
        22.7504         25.7504
  23460357.3134    3361279.98747   2608339.08946                  23460362.9624
        24.2504         23.5004
  25838441.4234   11774885.45345   9046263.36045                  25838449.2674
         9.2504          9.2504
  25346395.6424   13728712.77146  10537583.80346                  25346401.2314
        14.5004         13.5004
  24636814.4074   11475618.40546   8831026.45646                  24636820.1384
        16.0004         13.7504
  25648340.4544   12055886.23745   9283245.83745                  25648346.4194
        11.5004         10.5004
 02  7 10 17 23 15.0050000  0 11G 2G 3G 6G15G17G18G21G22G23G26G29
  26136580.6104    8028471.62345   6117564.29845                  26136592.4854
         8.0004          8.7504
  24438572.5244    1133218.29746    906474.80646                  24438577.8924
        17.0004         15.2504
  24807835.0714   14736437.25946  11322844.61846                  24807841.0714
        13.0004         13.2504
  22086247.0324    7386015.36648   5654183.94847                  22086251.9424
        29.7504         28.0004
  22404847.9234    8528525.20247   6571015.89547                  22404852.9274
        26.2504         25.7504
  22044273.9784    6726248.13547   5190037.40447                  22044277.2594
        22.7504         25.7504
  23466983.8064    3396101.01247   2635472.37046                  23466989.4194
        25.0004         23.5004
  25855917.0954   11866723.79445   9117825.65945                  25855924.5634
         9.0004          9.5004
  25365597.0634   13829618.25846  10616211.41946                  25365603.0754
        14.5004         13.5004
  24654774.9384   11570002.75346   8904572.66946                  24654780.0834
        16.0004         14.2504
  25666569.3454   12151679.51345   9357889.89745                  25666574.6654
        11.5004         11.0004
 02  7 10 17 23 30.0050000  0 11G 2G 3G 6G15G17G18G21G22G23G26G29
  26149620.2354    8096993.85545
         8.2504
  24442359.6034    1153119.58746    921982.32346                  24442365.5564
        16.7504         15.2504
  24828831.4074   14846776.79346  11408823.41946                  24828837.5954
        12.7504         13.2504
  22097960.4314    7447571.94748   5702150.10847                  22097965.3884
        29.2504         28.0004
  22417890.5564    8597067.57447   6624425.53147                  22417895.7474
        25.5004         26.0004
  22055673.4154    6786154.34947   5236717.56847                  22055676.7314
        22.7504         25.7504
  23473636.6034    3431061.91147   2662714.64546                  23473642.4154
        24.7504         23.5004
  25873417.8454   11958691.65345   9189488.87545                  25873426.2394
         9.0004          9.7504
  25384813.9704   13930601.89346  10694899.93246                  25384820.4034
        14.7504         13.5004
  24672772.4544   11664579.69646   8978268.96346                  24672777.7284
        16.0004         14.7504
  25684828.9704   12247632.88345   9432658.73945                  25684834.9354
        11.7504         10.5004
 02  7 10 17 23 45.0050000  0 11G 2G 3G 6G15G17G18G21G22G23G26G29
  26162690.2514    8165679.13145
         8.2504
  24446175.5484    1173173.96146    937609.12746                  24446180.9624
        16.5004         15.2504
  24849850.9384   14957234.93846  11494894.63346                  24849857.0674
        12.2504         12.5004
  22109700.8374    7509266.49848   5750223.77847                  22109705.7004
        30.0004         27.7504
  22430958.6264    8665740.69547   6677937.03547                  22430964.0524
        25.7504         25.7504
  22067105.1814    6846228.09147   5283528.27247                  22067108.4974
        22.7504         25.7504
  23480315.3374    3466159.92147   2690063.76346                  23480321.3024
        24.2504         23.5004
  25890942.3604   12050786.01545   9261250.66445                  25890950.6384
         9.0004          9.5004
  25404044.6494   14031660.96946  10773647.22846                  25404050.5794
        14.2504         13.5004
  24690805.9934   11759346.31146   9052113.06446                  24690812.4034
        15.7504         14.5004
  25703117.9314   12343743.23645   9507549.89745                  25703123.8844
        11.7504         11.0004
 02  7 10 17 24  0.0050000  0 11G 2G 3G 6G15G17G18G21G22G23G26G29
  26175793.2434    8234530.01445
         8.0004
  24450021.6034    1193384.46946    953357.58346                  24450027.6494
        16.7504         15.5004
  24870893.2904   15067814.18646  11581060.21146                  24870899.4544
        12.2504         12.7504
  22121467.4854    7571101.80948   5798407.13147                  22121472.4544
        29.5004         28.0004
  22444052.7354    8734547.43647   6731552.66747                  22444057.8104
        26.5004         25.7504
  22078568.8764    6906472.09247   5330471.64247                  22078572.1924
        22.5004         26.0004
  23487020.6494    3501397.98047   2717522.00646                  23487026.1694
        24.2504         23.5004
  25908493.0874   12143009.21345   9333112.85745                  25908500.9544
         9.5004         10.2504
  25423290.4234   14132798.01446  10852455.29146                  25423296.8334
        14.2504         13.2504
  24708875.8994   11854304.92246   9126106.75746                  24708881.3724
        15.5004         14.2504
  25721436.9784   12440013.12545   9582565.38145                  25721442.3684
        11.2504         10.7504
 02  7 10 17 24 15.0060000  0 11G 2G 3G 6G15G17G18G21G22G23G26G29
  26188925.9594    8303547.27845
         7.7504
  24453896.7954    1213749.06046    969226.10346                  24453902.2444
        17.0004         15.5004
  24891959.4824   15178518.01645  11667322.88446                  24891964.8384
        11.5004         12.0004
  22133261.1004    7633078.53748   5846700.68347                  22133266.1394
        29.2504         28.0004
  22457171.1544    8803488.75247   6785273.16546                  22457176.2644
        25.5004         25.5004
  22090065.8964    6966886.58247   5377547.86747                  22090069.2834
        23.0004         26.0004
  23493752.9124    3536774.96147   2745088.50446                  23493758.4674
        24.7504         23.5004
  25926067.3424   12235363.50045   9405077.18045                  25926073.8814
         9.2504          9.7504
  25442551.6074   14234015.97346  10931326.38446                  25442557.2564
        14.0004         13.2504
  24726982.6394   11949458.12646   9200252.08546                  24726988.6154
        15.7504         14.0004
  25739787.9044   12536445.05045   9657707.09945                  25739793.1664
        11.7504         10.7504
 02  7 10 17 24 30.0060000  0 11G 2G 3G 6G15G17G18G21G22G23G26G29
  26202090.6004    8372722.71345     32352.67255                  26202099.6624
         8.2504          8.2504
  24457800.9514    1234266.51646    985213.75046                  24457806.8114
        17.0004         15.2504
  24913047.1314   15289332.55745  11753671.83446                  24913053.8574
        11.7504         12.2504
  22145080.5844    7695189.64648   5895098.94347                  22145085.4244
        29.7504         27.7504
  22470314.6544    8872556.70347   6839092.33346                  22470319.7644
        26.0004         25.5004
  22101593.7014    7027464.57447   5424751.49347                  22101596.9244
        23.0004         25.7504
  23500510.8964    3572287.15447   2772760.35846                  23500516.6504
        25.0004         23.5004
  25943663.9674   12327837.32645   9477134.66645                  25943671.2014
         9.2504          9.2504
  25461825.7484   14335302.33346  11010250.80046                  25461832.4394
        14.5004         13.2504
  24745124.7254   12044793.96546   9274539.71846                  24745130.8654
        15.2504         14.0004
  25758166.9044   12633027.08145   9732965.79545                  25758172.6584
        11.2504         10.7504
 02  7 10 17 24 45.0060000  0 11G 2G 3G 6G15G17G18G21G22G23G26G29
  26215285.6544    8442065.02045     86385.57045                  26215292.8534
         8.0004          7.5004
  24461735.5294    1254942.89946   1001325.23846                  24461741.2714
        17.0004         15.0004
  24934157.7564   15400269.20445  11840115.90846                  24934164.2364
        11.2504         12.0004
  22156926.9674    7757443.62448   5943608.52947                  22156931.6434
        29.2504         28.0004
  22483483.5844    8941760.34147   6893017.23946                  22483488.5184
        26.0004         25.5004
  22113153.7644    7088214.22447   5472088.88347                  22113157.0574
        23.0004         25.7504
  23507295.3114    3607941.20447   2800542.75546                  23507300.7364
        25.0004         23.5004
  25961286.3964   12420440.73045   9549293.09645                  25961293.6784
        10.2504          9.7504
  25481115.2954   14436668.02346  11089237.02746                  25481122.1394
        14.2504         13.5004
  24763303.8184   12140322.77246   9348977.72846                  24763309.4084
        16.0004         14.7504
  25776576.4284   12729769.62645   9808349.57445                  25776582.2054
        11.2504         10.2504
 02  7 10 17 25  0.0060000  0 11G 2G 3G 6G15G17G18G21G22G23G26G29
  26228512.5684    8511573.71045    140548.16845                  26228521.3504
         8.0004          8.2504
  24465700.6154    1275778.23746   1017560.57346                  24465706.5924
        17.0004         15.7504
  24955291.0534   15511327.48745  11926654.76945                  24955298.4634
        10.7504         11.7504
  22168801.0454    7819840.19348   5992229.22547                  22168805.7914
        29.7504         28.0004
  22496678.3264    9011099.32047   6947047.60146                  22496683.2134
        25.5004         25.2504
  22124746.5294    7149135.25247   5519559.81047                  22124749.9634
        23.0004         26.0004
  23514107.3424    3643736.78847   2828435.43146                  23514112.8734
        24.7504         23.5004
  25978932.6234   12513173.26345   9621552.18145                  25978939.5534
         9.7504          9.5004
  25500419.3034   14538112.55146  11168284.66646                  25500425.7714
        13.5004         13.0004
  24781518.4434   12236043.95646   9423565.62246                  24781524.1154
        16.0004         14.7504
  25795016.8424   12826672.14245   9883857.97745                  25795022.3144
        11.7504         10.2504
 02  7 10 17 25 15.0060000  0 10G 3G 6G15G17G18G21G22G23G26G29
  24469693.7954    1296765.26746   1033914.11246                  24469699.8894
        16.7504         15.7504
  24976446.9044   15622499.52845  12013282.26145                  24976454.4324
        10.7504         11.7504
  22180700.3114    7882371.89748   6040955.21947                  22180705.1154
        29.7504         27.7504
  22509897.5844    9080566.26747   7001177.67746                  22509902.4824
        25.5004         25.5004
  22136370.4594    7210219.86947   5567158.20547                  22136373.7054
        22.7504         26.0004
  23520944.2714    3679666.45647   2856432.58846                  23520950.0254
        24.2504         23.5004
  25996602.5684   12606026.84945   9693905.56545                  25996609.0024
        10.0004          9.2504
  25519736.8894   14639628.13846  11247387.67546                  25519743.7714
        13.0004         13.2504
  24799768.5454   12331949.62846   9498297.29246                  24799773.7714
        16.0004         15.0004
  25813485.4044   12923726.76945   9959484.96145                  25813491.6154
        11.0004         10.0004
 02  7 10 17 25 30.0060000  0 10G 3G 6G15G17G18G21G22G23G26G29
  24473716.6864    1317905.08646   1050386.71946                  24473722.2174
        16.7504         15.7504
  24997624.1394   15733785.81745  12099998.77446                  24997630.5144
        11.2504         12.0004
  22192625.5534    7945039.50948   6089787.11947                  22192630.4984
        29.7504         28.0004
  22523141.2254    9150161.98147   7055408.09046                  22523146.1584
        26.0004         25.2504
  22148025.6934    7271468.82347   5614884.66547                  22148029.0104
        22.7504         25.7504
  23527807.0614    3715730.94347   2884534.80746                  23527812.7324
        24.5004         23.7504
  26014294.3114   12699001.91545   9766353.63645                  26014300.8614
         9.7504          9.2504
  25539068.2954   14741215.38246  11326546.54846                  25539074.7054
        13.0004         12.7504
  24818054.3264   12428040.26746   9573173.10046                  24818060.0574
        16.0004         15.0004
  25831982.6934   13020933.99345  10035230.79245                  25831987.9784
        10.5004         10.0004
 02  7 10 17 25 45.0060000  0 10G 3G 6G15G17G18G21G22G23G26G29
  24477768.3964    1339196.09046   1066977.12746                  24477773.7284
        17.0004         16.2504
  25018822.6074   15845184.17745  12186802.66046                  25018829.4904
        11.0004         12.0004
  22204576.4284    8007841.28048   6138723.55647                  22204581.4784
        29.7504         28.0004
  22536408.8504    9219884.59647   7109737.38846                  22536413.9124
        25.2504         25.5004
  22159712.0294    7332880.01147   5662737.53247                  22159715.2644
        23.0004         26.0004
  23534695.4204    3751928.21747   2912740.48846                  23534700.9284
        24.7504         23.5004
  26032010.9284   12792096.24445   9838894.60445                  26032017.3734
        10.2504          9.2504
  25558412.6544   14842872.26746  11405759.66246                  25558418.6784
        12.7504         12.2504
  24836374.3184   12524313.73146   9648191.34746                  24836379.7444
        15.7504         14.2504
  25850509.7254   13118291.81945  10111093.99845                  25850515.7604
        10.7504         10.0004
 02  7 10 17 26  0.0060000  0 10G 3G 6G15G17G18G21G22G23G26G29
  24481849.4904    1360642.36846   1083688.51546                  24481855.2094
        17.0004         15.7504
  25040042.3734   15956698.17345  12273696.59146                  25040049.1704
        11.0004         12.0004
  22216553.4594    8070781.06448   6187767.53447                  22216558.4044
        29.7504         27.7504
  22549701.6314    9289737.95347   7164168.56246                  22549706.7644
        25.7504         25.2504
  22171429.7874    7394457.14547   5710719.70847                  22171433.1154
        23.0004         26.0004
  23541609.1864    3788262.08847   2941052.61246                  23541614.7994
        24.5004         23.7504
  26049749.2954   12885313.27645   9911531.23145                  26049757.4674
         9.7504          9.7504
  25577771.6234   14944602.51846  11485029.97546                  25577778.0104
        13.2504         12.5004
  24854729.8034   12620773.45046   9723354.74346                  24854735.6034
        15.2504         14.5004
  25869064.9044   13215803.55545  10187077.15845                  25869071.3034
        10.0004         10.5004
 02  7 10 17 26 15.0060000  0 10G 3G 6G15G17G18G21G22G23G26G29
  24485960.4674    1382246.53146   1100522.94146                  24485965.9284
        17.5004         16.0004
  25061285.5064   16068329.65645  12360682.08745                  25061291.5414
        11.0004         11.2504
  22228557.1624    8133861.17248   6236920.86447                  22228562.0614
        29.5004         28.0004
  22563019.6234    9359724.50347   7218703.52846                  22563024.7564
        26.0004         25.2504
  22183179.3264    7456202.26147   5758832.78547                  22183182.4904
        22.7504         26.0004
  23548549.5684    3824734.81547   2969472.93446                  23548555.4394
        24.2504         23.5004
  26067511.4984   12978654.94345   9984264.95645                  26067519.3424
        10.2504          9.5004
  25597145.3504   15046408.14246  11564358.97846                  25597151.7834
        13.2504         12.2504
  24873121.8574   12717421.30546   9798664.72846                  24873128.0804
        15.7504         14.7504
  25887651.3114   13313471.21545  10263181.80045                  25887657.8504
        10.0004         10.0004
 02  7 10 17 26 30.0060000  0 10G 3G 6G15G17G18G21G22G23G26G29
  24490100.9984    1404003.58446   1117476.50446                  24490106.8934
        17.5004         15.7504
  25082549.6314   16180073.21745  12447754.95645                  25082555.3734
        11.2504         11.5004
  22240586.6704    8197076.52248   6286179.56947                  22240591.5924
        29.5004         27.7504
  22576361.8654    9429839.04747   7273338.22746                  22576366.8934
        25.5004         25.2504
  22194960.0844    7518110.09247   5807072.65047                  22194963.3424
        23.0004         26.0004
  23555515.7014    3861341.23847   2997997.43946                  23555521.4434
        24.7504         23.5004
  26085295.9754   13072115.73545  10057091.49845                  26085303.3734
         9.7504          9.7504
  25616531.1314   15148283.72446  11643742.52646                  25616537.1894
        13.0004         12.5004
  24891547.9674   12814251.81246   9874117.04146                  24891553.9084
        15.2504         14.0004
  25906264.9044   13411289.25345  10339403.62045                  25906271.5724
        10.0004          9.7504
 02  7 10 17 26 45.0060000  0 10G 3G 6G15G17G18G21G22G23G26G29
  24494270.9904    1425914.34346   1134549.83946                  24494276.0884
        18.0004         16.2504
  25103835.2324   16291929.10845  12534915.30945                  25103841.9944
        11.2504         11.0004
  22252641.8814    8260427.68748   6335544.10747                  22252646.8144
        29.5004         27.7504
  22589728.7324    9500082.17747   7328073.12246                  22589733.8774
        25.2504         25.2504
  22206771.9364    7580181.14047   5855439.69647                  22206775.2174
        23.0004         26.0004
  23562507.0144    3898081.86847   3026626.50946                  23562512.6624
        24.5004         23.7504
  26103104.3344   13165695.64745  10130010.85345                  26103111.1934
        10.0004          9.2504
  25635930.7484   15250229.71546  11723180.92046                  25635937.2754
        12.7504         12.2504
  24910009.1544   12911265.17946   9949711.83846                  24910014.9904
        15.2504         14.5004
  25924907.9204   13509258.13245  10415742.97745                  25924913.6154
         9.7504          9.7504
 02  7 10 17 27  0.0060000  0 10G 3G 6G15G17G18G21G22G23G26G29
  24498469.9514    1447983.28446   1151746.41946                  24498475.1784
        18.0004         16.5004
  25125143.6864   16403901.18346  12622166.23245                  25125149.2284
        12.2504         11.2504
  22264724.1074    8323918.82348   6385017.71447                  22264728.7834
        30.0004         28.0004
  22603120.7644    9570458.13147   7382911.51046                  22603126.0374
        25.5004         25.2504
  22218615.3184    7642419.29447   5903936.95547                  22218618.5884
        22.7504         26.0004
  23569525.2254    3934960.75247   3055363.32346                  23569530.8034
        24.7504         23.5004
  26120934.8034   13259398.68145  10203026.16845                  26120941.4824
         9.7504          9.0004
  25655344.2794   15352250.02346  11802677.23446                  25655351.5724
        12.5004         12.0004
  24928505.5374   13008465.34946  10025452.20146                  24928511.1624
        15.0004         14.2504
  25943580.6234   13607381.44145  10492202.66345                  25943586.8934
         9.7504          9.5004
 02  7 10 17 27 15.0060000  0 10G 3G 6G15G17G18G21G22G23G26G29
  24502698.8114    1470205.78546   1169062.68646                  24502704.3184
        18.0004         16.5004
  25146471.8424   16515984.09146  12709503.52246                  25146478.1114
        12.5004         12.0004
  22276831.4984    8387544.99848   6434596.54747                  22276836.4674
        29.0004         27.7504
  22616537.5924    9640961.96647   7437849.55246                  22616542.7604
        25.7504         25.2504
  22230489.7644    7704819.44147   5952560.44547                  22230493.0684
        23.0004         26.2504
  23576568.0684    3971973.01847   3084204.06446                  23576573.7054
        24.5004         23.7504
  26138789.0924   13353219.24645  10276133.05545                  26138795.7134
        10.0004          9.7504
  25674770.9904   15454339.43746  11882227.40146                  25674778.6464
        12.5004         12.0004
  24947036.1704   13105846.77746  10101333.80246                  24947042.0884
        14.7504         14.5004
  25962281.1544   13705653.99845  10568778.64945                  25962287.8814
         9.2504          9.2504
 02  7 10 17 27 30.0060000  0 10G 3G 6G15G17G18G21G22G23G26G29
  24506956.8734    1492582.48846   1186499.09146                  24506962.3114
        17.7504         16.7504
  25167821.4364   16628177.94446  12796927.26445                  25167828.2564
        12.0004         11.5004
  22288965.1624    8451306.68148   6484280.96947                  22288970.1784
        29.7504         27.7504
  22629978.4204    9711594.08547   7492887.56046                  22629983.3894
        26.5004         25.5004
  22242394.9904    7767381.86447   6001310.37947                  22242398.1544
        23.0004         26.5004
  23583636.6234    4009118.81647   3113148.85946                  23583642.4124
        24.0004         23.5004
  26156664.4364   13447157.37545  10349331.57145                  26156670.8114
         9.7504          8.7504
  25694211.8344   15556498.15346  11961831.56346                  25694217.3534
        12.5004         12.0004
  24965602.4594   13203409.60146  10177356.75846                  24965608.0844
        15.2504         14.2504
  25981011.5534   13804075.91145  10645470.99145                  25981017.8224
         9.5004          9.7504
 02  7 10 17 27 45.0060000  0 10G 3G 6G15G17G18G21G22G23G26G29
  24511244.5214    1515114.21946   1204056.29346                  24511250.0414
        18.0004         16.0004
  25189192.6544   16740483.11746  12884437.68846                  25189199.8774
        12.2504         12.2504
  22301124.1074    8515204.54648   6534071.50447                  22301129.1354
        28.7504         27.5004
  22643443.6784    9782355.17847   7548026.06346                  22643448.6584
        26.0004         25.5004
  22254330.9364    7830106.92747   6050187.05547                  22254334.0884
        23.0004         26.2504
  23590730.9984    4046398.89047   3142198.28046                  23590736.6354
        24.5004         23.7504
  26174562.7714   13541213.47445  10422621.96645                  26174569.7714
         9.5004          8.7504
  25713665.3574   15658726.67346  12041490.10445                  25713670.8534
        12.7504         11.7504
  24984202.5844   13301154.16746  10253521.32846                  24984208.4204
        15.2504         14.0004
  25999767.8424   13902647.55345  10722280.03245                  25999773.9594
         9.2504          9.7504
 02  7 10 17 28  0.0060000  0 10G 3G 6G15G17G18G21G22G23G26G29
  24515562.1464    1537802.36646   1221735.39346                  24515567.3614
        18.2504         16.2504
  25210585.2254   16852900.50246  12972035.60146                  25210591.2364
        12.7504         12.0004
  22313310.1464    8579239.78848   6583969.09147                  22313315.3614
        29.2504         27.5004
  22656934.0684    9853246.39147   7603265.95747                  22656938.8964
        26.5004         25.7504
  22266298.7254    7892995.72547   6099191.30647                  22266301.9944
        23.2504         26.2504
  23597850.9674    4083814.39747   3171353.24146                  23597856.9204
        24.5004         23.7504
  26192484.3264   13635388.25745  10496004.85945                  26192492.4754
         9.5004          8.5004
  25733131.8734   15761025.92746  12121203.76846                  25733137.8964
        12.7504         12.0004
  25002837.7564   13399081.16546  10329828.03746                  25002842.8774
        15.0004         14.0004
  26018554.5214   14001369.69745  10799206.36445                  26018560.0644
         9.2504          9.7504
 02  7 10 17 28 15.0060000  0 10G 3G 6G15G17G18G21G22G23G26G29
  24519909.1004    1560646.95646   1239536.38546                  24519913.9514
        18.5004         16.5004
  25231998.8734   16965429.46746  13059720.44946                  25232005.7444
        12.5004         12.0004
  22325521.2644    8643412.18748   6633973.55147                  22325526.4434
        28.7504         27.5004
  22670448.6004    9924267.53147   7658607.09847                  22670453.5104
        26.0004         25.7504
  22278297.1704    7956047.75147   6148322.75347                  22278300.1704
        23.5004         26.2504
  23604996.2564    4121364.86147   3200613.35546                  23605002.1624
        24.2504         23.7504
  26210427.1544   13729680.92245  10569479.63845                  26210434.1544
         9.2504          8.7504
  25752612.4364   15863395.43846  12200972.18546                  25752618.6004
        13.0004         12.0004
  25021506.7954   13497189.98846  10406276.43346                  25021512.9474
        14.5004         13.7504
  26037369.4044   14100241.77745  10876249.50945                  26037375.2754
         9.2504          9.2504
 02  7 10 17 28 30.0060000  0 10G 3G 6G15G17G18G21G22G23G26G29
  24524286.4754    1583648.16946   1257459.43046                  24524291.9124
        18.5004         16.7504
  25253433.4514   17078069.49046  13147491.83145                  25253439.9784
        12.5004         11.7504
  22337759.0924    8707721.50648   6684084.70447                  22337764.1434
        29.7504         27.7504
  22683988.3034    9995418.48047   7714049.37946                  22683993.3894
        26.0004         25.5004
  22290326.4124    8019262.68547   6197581.14347                  22290329.4944
        23.2504         26.5004
  23612167.4204    4159050.15147   3229978.53046                  23612173.2444
        24.0004         23.7504
  26228392.7174   13824091.03645  10643045.89145                  26228399.0214
         8.7504          8.0004
  25772106.2014   15965834.79146  12280795.02046                  25772112.6114
        13.0004         12.5004
  25040210.9594   13595480.10846  10482866.12546                  25040216.2324
        14.5004         13.2504
  26056212.6934   14199263.20245  10953409.02745                  26056219.7754
         9.2504          9.7504
 02  7 10 17 28 45.0060000  0 10G 3G 6G15G17G18G21G22G23G26G29
  24528692.2564    1606802.17046   1275501.52746                  24528697.8694
        18.5004         16.7504
  25274888.9044   17190816.27246  13235346.41246                  25274895.9984
        12.7504         12.0004
  22350022.2794    8772163.79548   6734299.47147                  22350027.2014
        29.7504         27.7504
  22697551.8034   10066695.21847   7769589.68446                  22697556.8304
        26.2504         25.5004
  22302386.1394    8082636.37447   6246963.23447                  22302389.1504
        23.7504         26.2504
  23619364.3424    4196866.17647   3259445.57846                  23619369.8614
        25.0004         23.7504
  26246379.6234   13918614.11645  10716700.20645                  26246386.6824
         8.2504          8.7504
  25791612.2014   16068339.84446  12360669.04746                  25791618.3074
        13.5004         12.2504
  25058949.3184   13693947.17146  10559593.67346                  25058954.1114
        15.0004         13.7504
  26075083.2484   14298429.63045  11030681.51345                  26075089.9984
         9.7504         10.0004
 02  7 10 17 29  0.0060000  0 10G 3G 6G15G17G18G21G22G23G26G29
  24533128.3114    1630114.05446   1293666.64946                  24533133.9714
        18.2504         16.5004
  25296364.7324   17303674.30446  13323287.67746                  25296370.7214
        12.2504         12.0004
  22362311.2564    8836743.89748   6784621.62547                  22362316.2254
        29.0004         27.7504
  22711140.2254   10138102.62047   7825231.80046                  22711145.1584
        26.0004         25.5004
  22314476.7954    8146173.45447   6296472.64447                  22314479.9594
        23.5004         26.5004
  23626586.0764    4234817.65247   3289018.16546                  23626591.6894
        25.0004         24.0004
  26264388.9434   14013254.62445  10790445.99045                  26264397.5494
         8.0004          8.0004
  25811132.0294   16170915.18146  12440597.85945                  25811137.9824
        13.5004         11.7504
  25077720.6074   13792595.68246  10636462.61246                  25077726.1274
        14.2504         14.0004
  26093982.2254   14397745.63345  11108070.58045                  26093989.2364
         9.5004         10.5004
 02  7 10 17 29 15.0060000  0 10G 3G 6G15G17G18G21G22G23G26G29
  24537592.9674    1653577.17446   1311949.61446                  24537598.6974
        18.2504         16.7504
  25317860.9984   17416636.27545  13411309.93146                  25317867.0684
        11.7504         12.2504
  22374625.6004    8901454.95548   6835045.81747                  22374630.5574
        29.7504         27.7504
  22724751.8894   10209633.81547   7880970.38346                  22724757.2094
        25.7504         25.5004
  22326597.0924    8209866.84747   6346103.86247                  22326600.3264
        23.5004         26.5004
  23633832.3424    4272897.65947   3318690.90946                  23633837.9324
        24.7504         23.7504
  26282420.2324   14108005.21445  10864277.60545                  26282427.6434
         8.0004          7.7504
  25830663.3504   16273553.64046  12520575.85646                  25830669.7954
        13.2504         12.0004
  25096526.3894   13891418.16546  10713467.11446                  25096531.5104
        14.2504         13.7504
  26112908.2484   14497203.89645  11185570.49945                  26112914.8574
         9.0004          9.7504
 02  7 10 17 29 30.0060000  0 10G 3G 6G15G17G18G21G22G23G26G29
  24542087.5454    1677195.81946   1330353.77746                  24542093.1354
        18.2504         16.7504
  25339376.7874   17529705.89045  13499416.03445                  25339383.4204
        11.5004         11.7504
  22386964.9674    8966300.97748   6885575.17747                  22386970.0764
        28.5004         27.7504
  22738388.4364   10281292.81847   7936808.55446                  22738393.4864
        26.0004         25.2504
  22338748.2324    8273720.28947   6395859.78547                  22338751.5024
        23.5004         26.5004
  23641103.6704    4311110.17547   3348466.90746                  23641109.4124
        24.5004         23.7504
  26300472.1154   14202869.45945  10938197.73545                  26300478.0684
         7.5004          8.0004
  25850207.2714   16376258.99846  12600605.94545                  25850213.4124
        13.0004         11.5004
  25115365.6394   13990418.39446  10790610.09746                  25115370.7604
        14.0004         13.7504
  26131862.6314   14596808.07645  11263184.10045                  26131868.7254
         9.5004         10.0004
 02  7 10 17 29 45.0060000  0 10G 3G 6G15G17G18G21G22G23G26G29
  24546610.9284    1700966.36746   1348876.29446                  24546616.6824
        18.2504         16.5004
  25360913.3344   17642879.03645  13587602.85445                  25360919.1114
        11.2504         11.5004
  22399330.0064    9031278.14648   6936206.73347                  22399335.0214
        29.7504         27.7504
  22752048.1704   10353075.73447   7992743.28347                  22752053.3264
        26.2504         25.7504
  22350928.5684    8337729.84147   6445737.35947                  22350931.8384
        23.2504         26.5004
  23648400.1784    4349451.26847   3378343.09546                  23648405.6974
        25.2504         24.0004
  26318545.6074   14297843.07545  11012203.09745                  26318553.3464
         7.5004          7.2504
  25869763.1464   16479027.23546  12680685.06646                  25869769.4864
        12.7504         12.0004
  25134237.6934   14089592.10946  10867888.30546                  25134243.4474
        14.0004         13.0004
  26150843.6934   14696554.06845  11340908.20745                  26150850.3034
        10.2504         10.0004
 02  7 10 17 30  0.0060000  0 10G 3G 6G15G17G18G21G22G23G26G29
  24551163.9124    1724892.20646   1367519.82346                  24551169.6194
        18.2504         16.7504
  25382470.1704   17756158.52845  13675872.52545                  25382476.4984
        11.2504         11.7504
  22411720.1864    9096389.67748   6986942.98747                  22411725.0494
        29.2504         27.5004
  22765732.1394   10424985.81147   8048777.09947                  22765737.3894
        26.0004         25.7504
  22363139.6074    8401898.54647   6495738.94247                  22363142.8184
        23.2504         26.2504
  23655721.1784    4387924.02447   3408321.87346                  23655726.5334
        25.0004         24.0004
  26336638.7254   14392928.96944  11086295.98845                  26336642.1354
         7.0004          7.2504
  25889332.1864   16581861.33746  12760815.50546                  25889338.6544
        13.2504         12.2504
  25153143.0764   14188942.09346  10945303.84246                  25153148.9124
        13.5004         12.7504
  26169852.3424   14796444.71445  11418745.04945                  26169859.0334
        10.2504         10.2504
 02  7 10 17 30 15.0060000  0 10G 3G 6G15G17G18G21G22G23G26G29
  24555746.5454    1748973.39446   1386284.39746                  24555751.9594
        18.5004         16.7504
  25404046.5454   17869543.71145  13764224.56046                  25404052.9324
        11.5004         12.0004
  22424136.2484    9161635.31548   7037783.73947                  22424140.9364
        29.5004         27.7504
  22779440.6624   10497022.74247   8104909.76247                  22779445.7604
        26.2504         25.7504
  22375380.7794    8466225.90047   6545864.15347                  22375383.9434
        23.2504         26.5004
  23663067.0064    4426528.06847   3438402.96046                  23663072.4554
        25.5004         24.2504
  26354754.2794   14488126.36344  11160475.70245                  26354761.1504
         6.5004          7.2504
  25908913.4204   16684760.81446  12840996.88646                  25908919.6074
        13.2504         12.2504
  25172082.0534   14288467.79746  11022856.30546                  25172087.9824
        13.2504         12.7504
  26188887.8424   14896479.29345  11496694.01045                  26188893.6544
         9.7504         10.2504
 02  7 10 17 30 30.0060000  0 10G 3G 6G15G17G18G21G22G23G26G29
  24560357.0214    1773205.19346   1405166.34446                  24560362.7754
        17.7504         17.0004
  25425642.1004   17983029.27845  13852654.79646                  25425649.1464
        11.0004         12.0004
  22436576.6934    9227009.98648   7088725.03447                  22436581.4164
        29.5004         27.7504
  22793172.0214   10569181.62247   8161137.45547                  22793176.8034
        26.2504         25.7504
  22387651.0684    8530706.68747   6596108.92047                  22387654.3964
        23.2504         26.5004
  23670437.2794    4465258.63347   3468582.62946                  23670442.5644
        25.2504         24.2504
  26372889.7404   14583429.95744  11234738.20145                  26372896.0804
         6.5004          6.2504
  25928506.2794   16787720.40646  12921225.09146                  25928511.9984
        14.0004         12.0004
  25191053.6864   14388163.74046  11100541.41246                  25191058.7714
        13.0004         12.7504
  26207950.1624   14996652.51245  11574751.06045                  26207955.8814
         9.7504         10.2504
 02  7 10 17 30 45.0070000  0 10G 3G 6G15G17G18G21G22G23G26G29
  24564997.6514    1797591.31546   1424168.51446                  24565002.9014
        17.7504         16.7504
  25447258.1984   18096624.42745  13941170.45445                  25447265.3394
        10.5004         11.2504
  22449042.5734    9292519.88448   7139771.70147                  22449047.6014
        28.7504         27.5004
  22806927.8864   10641469.13347   8217465.36947                  22806932.9134
        26.5004         26.0004
  22399951.3474    8595346.84047   6646477.86847                  22399954.7224
        23.2504         26.5004
  23677832.2764    4504120.12347   3498864.32246                  23677837.7844
        25.0004         24.5004
  26391047.3084   14678847.44243  11309089.42745                  26391054.5304
         6.0004          7.5004
  25948111.5264   16890748.66846  13001506.83145                  25948117.5974
        13.2504         11.7504
  25210059.4174   14488038.12246  11178365.56846                  25210064.7724
        13.5004         12.7504
  26227042.1124   15096972.67845  11652922.60045                  26227048.8514
        10.5004         10.2504
 02  7 10 17 31  0.0070000  0 10G 3G 6G15G17G18G21G22G23G26G29
  24569668.2454    1822134.39746   1443293.01846                  24569673.6594
        18.0004         16.5004
  25468893.7294   18210319.27745  14029763.75645                  25468900.6474
        10.5004         11.7504
  22461533.7454    9358162.00648   7190921.40447                  22461538.7264
        28.2504         27.5004
  22820707.4014   10713881.35447   8273890.46547                  22820712.3114
        26.5004         26.0004
  22412282.0584    8660143.25247   6696968.57347                  22412285.2574
        23.5004         26.5004
  23685252.5424    4543112.56047   3529248.05546                  23685257.9094
        26.0004         24.5004
  26409225.8154   14774371.33644  11383523.62445                  26409234.1984
         6.7504          7.2504
  25967728.1204   16993837.28646  13081835.58845                  25967734.1794
        12.7504         11.7504
  25229097.3864   14588082.82546  11256322.45346                  25229103.6444
        13.2504         12.5004
  26246158.1674   15197431.76045  11731202.32645                  26246164.1674
        11.0004         10.0004
 02  7 10 17 31 15.0070000  0 10G 3G 6G15G17G18G21G22G23G26G29
  24574368.4174    1846833.29346   1462538.92046                  24574373.7144
        18.2504         17.0004
  25490549.7614   18324118.00345  14118438.00945                  25490556.2414
        10.5004         11.5004
  22474050.3784    9423937.72648   7242175.20147                  22474055.6404
        28.5004         27.2504
  22834511.0584   10786420.06747   8330414.12947                  22834516.1674
        26.7504         25.7504
  22424642.1754    8725097.00147   6747581.88747                  22424645.4444
        23.5004         26.2504
  23692697.3544    4582235.58047   3559733.53446                  23692702.7694
        26.0004         24.5004
  26427423.2764   14870004.57043  11458042.96345                  26427432.8434
         6.0004          7.0004
  25987357.3474   17096989.98646  13162214.28045                  25987363.6404
        12.5004         11.5004
  25248167.8084   14688301.18246  11334414.63746                  25248173.5034
        13.0004         12.5004
  26265301.2144   15298032.88945  11809592.79745                  26265307.2844
        10.2504         10.0004
